GFSMW_500_spd_000.txt.gz
Wind_Speed
6 6 7 9 10 11 12 12 11 10 10 9 8 5 5 5 5 7 5 7 8 10 11 10 12 13 13 12 12 13 12 12 12 12 14 13 13 12 12 12 13 14 14
7 7 7 7 10 12 13 13 12 13 12 12 11 9 7 6 6 7 7 8 10 13 16 15 14 15 15 14 13 13 11 11 12 12 12 13 12 12 11 11 13 16 14
9 9 9 9 9 11 13 14 14 14 13 13 11 9 9 8 9 10 11 13 16 21 22 21 19 18 17 16 15 14 14 12 13 12 11 12 13 12 12 12 13 15 15
10 11 11 13 13 13 13 14 14 14 15 13 12 13 13 13 13 14 16 19 23 22 20 21 21 19 18 19 17 18 18 15 14 13 13 13 16 16 15 14 13 14 16
7 12 12 11 12 14 14 15 16 17 17 16 17 17 18 18 20 21 22 25 24 22 22 23 21 19 18 18 19 19 19 17 16 14 15 16 18 19 19 17 14 14 16
12 12 13 10 15 18 18 18 18 20 19 18 19 21 21 21 23 25 23 22 21 21 21 21 21 21 21 19 17 18 20 20 19 17 18 19 19 22 22 21 20 19 19
21 17 14 14 8 12 21 23 23 21 20 20 21 20 19 22 20 21 21 21 20 21 22 23 25 24 21 19 18 19 24 23 21 21 22 23 21 22 22 21 21 22 24
20 15 14 13 11 13 15 18 18 20 21 21 22 21 24 18 18 20 22 23 22 24 26 27 28 28 25 22 21 23 26 25 24 25 26 27 25 24 23 21 21 24 26
23 12 14 13 15 16 14 16 18 20 19 21 24 24 20 17 18 17 18 20 21 24 26 28 29 27 28 25 25 26 29 29 27 27 29 28 29 27 25 23 24 26 27
16 15 16 16 16 10 11 15 16 18 19 19 16 15 11 12 14 18 20 22 24 23 27 29 29 33 32 30 28 28 28 30 28 28 31 30 31 30 27 27 23 27 29
18 19 19 23 22 18 12 14 14 16 15 13 9 8 13 16 17 16 15 28 33 33 35 33 31 32 31 32 33 31 31 30 29 28 30 31 32 31 25 21 23 27 30
27 24 22 26 27 21 13 13 15 13 12 10 9 12 13 13 15 21 29 25 35 38 36 27 40 45 33 38 36 32 35 34 32 31 31 32 32 28 23 30 32 32 34
28 26 25 20 20 20 14 13 12 11 11 10 11 14 15 18 22 30 29 29 33 35 42 44 40 35 42 38 37 35 34 35 34 34 33 34 36 35 38 34 30 35 38
21 24 23 25 22 21 19 17 16 14 15 15 17 18 20 21 25 28 33 35 38 41 41 34 38 19 26 28 32 38 33 35 37 37 33 33 36 38 35 34 38 46 48
28 23 28 23 24 22 21 19 19 20 21 22 21 19 24 24 25 30 34 39 41 43 35 31 27 24 28 28 34 37 35 36 37 38 34 35 35 38 38 36 37 42 42
29 26 28 31 27 27 25 27 25 24 25 22 20 25 26 31 33 35 39 41 45 47 34 30 36 33 29 31 35 37 38 39 37 37 41 39 40 41 42 45 45 42 51
31 26 29 34 33 29 28 30 28 24 23 23 23 26 31 36 38 39 45 44 48 45 43 40 39 40 36 33 31 33 30 32 33 35 37 38 42 43 38 42 38 41 46
29 32 36 31 29 32 35 34 29 26 30 29 32 34 38 41 44 44 46 48 46 51 48 43 42 44 39 33 31 27 28 28 36 40 34 32 28 32 36 36 40 44 45
30 36 32 30 32 35 36 36 33 31 35 35 37 38 39 45 49 51 52 57 64 46 48 46 45 44 38 30 30 27 26 23 24 24 29 33 35 40 44 40 42 48 49
32 35 35 34 35 37 38 37 36 34 34 36 39 41 46 51 54 59 51 57 55 52 50 46 41 39 33 34 31 29 30 27 24 32 36 40 44 43 46 44 49 53 52
33 32 30 39 38 39 41 45 39 40 39 39 43 46 52 55 58 52 43 52 51 47 49 43 35 34 34 33 29 26 27 34 39 41 43 43 43 41 42 47 51 53 55
39 38 35 33 44 47 48 45 45 41 42 44 45 51 54 59 58 55 48 53 53 51 42 40 37 36 35 33 36 35 34 36 39 46 40 37 38 41 46 48 53 53 52
39 38 39 39 43 48 46 43 46 44 42 41 46 50 54 61 56 53 54 50 45 39 38 40 36 38 38 41 38 40 38 38 41 40 39 41 43 45 46 50 46 46 42
42 39 39 41 43 47 52 39 45 43 42 41 45 48 53 46 55 56 51 45 43 37 37 34 39 43 45 44 41 41 40 38 40 41 42 45 44 43 43 38 41 40 37
44 42 42 43 46 50 47 41 44 47 47 49 50 49 48 53 47 43 46 45 43 40 39 43 44 45 46 42 40 38 38 38 39 41 45 42 40 38 39 38 38 37 36
44 42 41 45 45 46 45 46 49 51 51 50 47 48 45 42 43 45 44 44 43 42 42 45 45 45 45 41 40 39 41 39 41 42 39 39 40 40 39 40 39 37 35

GFSMW_500_spd_003.txt.gz
Wind_Speed
9 9 10 10 10 11 11 11 10 9 9 9 8 6 4 5 5 6 6 5 7 9 9 9 12 13 14 16 17 15 15 14 14 14 14 14 15 14 13 14 15 15 15
8 8 9 11 13 13 13 13 12 10 11 10 9 9 8 8 7 8 9 9 9 12 14 16 17 17 18 18 16 17 15 15 15 15 14 13 13 14 13 13 15 17 16
9 9 9 11 12 13 15 15 13 12 12 12 10 10 9 9 10 11 12 12 14 17 21 18 17 19 20 19 17 18 18 17 17 18 17 16 14 14 13 15 16 17 18
12 12 13 13 14 15 14 14 14 14 14 13 13 14 12 13 14 15 17 18 19 22 23 20 21 21 22 21 20 19 20 20 19 19 20 18 18 17 15 14 15 15 17
19 17 15 15 13 14 15 16 15 16 17 16 15 15 15 17 18 20 22 23 25 24 24 24 23 22 22 23 23 23 21 21 20 22 21 22 22 21 21 20 16 14 15
21 21 21 14 13 15 16 18 18 19 20 19 18 18 18 19 22 24 24 23 23 24 25 25 24 24 25 25 26 26 24 21 22 24 24 24 25 26 25 25 22 20 17
24 23 22 19 17 13 15 18 19 19 21 20 20 20 20 21 21 23 22 23 25 27 27 28 29 28 26 26 27 26 26 24 24 26 27 28 28 29 29 29 28 26 23
27 23 18 19 18 17 16 15 16 21 21 22 22 20 21 20 22 21 23 25 25 25 23 28 29 31 35 32 25 28 27 27 28 28 28 30 29 30 31 32 32 30 29
24 23 16 15 11 13 15 15 17 18 20 22 22 20 21 22 20 19 18 19 21 22 23 33 31 32 38 37 42 31 30 31 32 33 32 33 32 31 31 33 33 34 34
25 26 22 18 12 12 10 10 12 18 19 22 20 21 20 19 17 16 19 19 16 27 25 30 31 30 33 31 35 37 33 32 33 35 34 35 35 33 31 34 33 34 35
22 21 16 14 16 18 15 13 16 17 18 19 19 18 17 15 15 13 14 16 19 21 25 34 29 30 34 32 33 38 35 36 40 37 37 37 36 36 34 33 32 32 29
27 22 22 21 18 19 18 21 18 16 18 19 21 20 16 13 12 16 19 19 17 22 22 24 32 31 33 24 21 27 38 46 41 38 40 39 38 38 38 37 35 35 37
25 28 28 30 24 17 17 19 18 16 17 21 19 17 15 15 18 20 19 17 22 21 29 27 27 30 34 32 29 32 38 41 39 40 38 39 37 38 38 39 39 39 42
33 31 29 30 28 21 20 20 18 19 17 18 18 18 16 17 19 17 19 24 21 28 30 32 30 32 36 35 34 39 42 42 42 37 41 40 38 35 37 39 40 40 42
35 28 30 26 25 23 24 23 20 22 22 19 17 17 14 16 20 21 25 30 28 33 36 37 33 34 43 43 42 45 47 44 38 37 36 41 36 35 39 38 39 43 46
30 34 31 31 27 28 26 25 24 25 25 19 18 18 16 18 23 27 31 36 38 40 42 46 43 47 42 41 45 41 42 42 37 28 33 36 31 36 36 42 43 44 43
32 34 33 27 30 30 31 32 30 28 27 22 18 22 21 27 30 33 36 41 44 47 49 53 57 57 46 42 44 40 39 38 36 30 31 31 33 37 34 35 34 35 36
36 34 31 28 34 32 33 35 35 33 27 27 27 28 29 32 35 38 41 44 48 50 51 57 48 46 48 42 43 39 36 34 35 37 33 32 32 31 32 34 35 37 45
30 38 32 32 33 35 33 34 36 34 33 33 35 30 31 35 40 42 43 48 53 57 57 49 52 53 51 48 40 36 35 34 32 35 34 35 32 35 39 41 45 47 49
39 41 35 34 37 34 34 35 37 35 33 32 32 33 35 38 41 44 45 50 59 60 53 49 51 54 52 44 35 34 33 29 33 35 37 38 40 46 48 50 51 45 48
46 43 38 35 39 38 37 35 36 36 37 39 40 39 40 45 45 45 49 52 58 62 58 56 53 52 46 39 37 38 37 34 38 40 40 43 43 47 48 52 47 49 50
49 47 42 39 38 40 40 40 40 42 43 45 46 44 47 49 47 49 49 53 53 61 59 55 52 47 41 41 38 38 40 42 45 43 44 46 45 48 49 48 50 53 55
46 49 46 40 37 34 30 36 44 47 47 46 46 49 48 48 50 52 54 56 56 54 57 53 44 44 43 39 41 40 46 44 42 44 45 40 42 47 50 51 52 53 48
48 50 48 47 44 42 41 38 39 47 51 52 50 46 45 50 54 54 57 52 51 53 48 44 44 43 41 41 40 49 46 43 44 45 45 44 46 49 49 50 49 45 43
47 43 45 46 48 48 48 48 49 48 47 51 50 50 54 54 56 55 54 47 48 46 47 47 49 45 50 48 45 43 44 47 45 44 46 48 47 47 44 42 41 44 45
39 41 42 47 49 50 50 49 48 47 46 51 47 53 55 59 55 56 48 43 46 46 44 46 48 46 46 46 48 46 45 45 47 47 46 44 42 42 43 44 42 42 42

GFSMW_500_spd_006.txt.gz
Wind_Speed
11 11 10 11 11 10 9 7 6 5 5 6 5 4 2 3 4 3 3 4 5 9 9 11 14 16 18 19 19 18 17 17 17 17 15 17 15 13 15 13 13 12 12
10 9 10 10 11 11 10 10 9 8 7 6 5 6 6 5 5 6 6 8 10 12 14 17 20 20 19 21 22 21 19 17 18 17 16 15 15 16 14 15 14 14 13
13 12 10 10 11 11 13 13 11 10 10 9 8 8 7 6 7 9 10 12 14 16 18 21 22 22 22 23 24 24 23 21 19 19 19 18 18 17 15 16 18 17 16
14 13 12 12 12 14 14 14 15 14 14 12 12 11 10 10 10 12 14 16 18 20 21 22 23 23 24 24 24 23 24 25 24 22 22 19 21 21 21 17 17 20 25
17 17 16 16 16 15 16 17 16 15 16 15 15 14 13 14 14 16 17 20 20 20 22 22 22 22 24 24 26 26 25 27 27 25 22 24 23 24 25 25 22 19 16
19 19 20 21 21 21 17 16 17 18 18 18 18 17 18 17 17 18 18 18 19 20 19 19 19 18 20 20 21 22 23 25 26 27 27 26 26 26 27 29 29 28 25
26 22 23 22 20 18 19 17 18 18 20 20 20 21 21 19 19 19 18 20 18 16 12 12 19 22 24 27 28 32 24 21 24 25 28 30 30 32 30 30 31 32 31
29 24 23 21 13 17 17 20 18 19 23 23 23 22 21 21 19 17 18 15 12 11 12 13 17 18 25 28 27 29 28 27 21 22 25 29 32 33 34 33 34 34 33
32 33 22 21 19 16 13 15 18 21 20 22 24 23 22 21 19 17 12 9 8 10 12 17 20 20 18 30 31 30 30 28 23 22 25 27 31 37 38 38 37 37 34
38 38 28 23 19 15 11 9 10 11 15 19 21 23 22 20 17 9 6 9 10 9 12 16 16 23 24 28 33 33 33 28 23 25 28 35 39 36 36 37 39 40 38
35 39 27 28 21 18 14 12 10 16 18 17 20 23 24 19 9 5 4 13 11 11 10 16 20 23 28 28 30 30 26 29 32 33 33 36 38 37 36 37 39 40 40
34 36 24 25 24 18 13 10 11 16 19 18 18 18 18 12 7 5 9 6 9 10 13 17 20 24 31 32 32 38 41 39 35 34 36 40 38 37 36 36 38 39 39
36 36 30 28 24 20 17 15 13 18 18 17 13 7 6 3 5 8 5 5 8 11 18 24 30 33 34 35 41 44 45 42 40 40 40 39 34 32 34 35 37 40 39
25 29 23 25 26 26 19 20 18 20 19 13 8 2 1 2 5 5 3 6 6 13 19 23 30 35 40 43 35 42 39 41 43 37 39 37 34 31 31 34 36 37 37
31 32 30 29 28 31 27 24 24 24 20 15 9 4 4 7 9 6 12 17 18 22 27 30 36 42 44 43 38 37 37 40 43 38 36 36 33 33 31 31 32 33 38
45 42 29 32 33 34 30 26 26 26 23 19 12 12 8 11 12 15 16 20 24 27 28 34 40 45 50 35 41 42 44 40 42 37 32 34 33 35 31 31 35 34 37
38 49 47 40 37 37 36 31 29 28 27 24 17 17 12 10 15 17 20 23 27 31 34 38 46 50 55 46 42 46 44 46 38 36 33 33 33 33 34 39 42 36 38
43 40 49 51 42 40 39 35 33 30 28 28 24 21 21 19 22 23 26 30 32 34 39 43 48 53 58 53 44 47 47 46 39 35 32 33 33 31 37 41 40 42 42
39 50 51 48 51 39 36 37 34 28 30 29 25 22 22 29 29 29 30 35 36 38 41 46 50 57 51 51 51 49 48 44 38 32 36 31 33 39 42 43 44 47 50
52 50 51 42 45 36 36 32 34 32 33 28 26 26 26 28 30 32 35 36 40 44 46 48 52 56 55 59 51 50 41 39 38 38 38 40 40 43 46 48 49 52 55
53 59 40 38 40 34 36 33 34 31 29 30 27 29 29 32 34 34 35 38 43 48 49 52 53 55 55 51 49 40 39 40 38 36 37 41 46 46 48 51 55 55 54
65 62 46 49 37 39 38 36 35 32 33 32 33 31 33 37 39 39 33 41 47 51 53 56 57 60 52 47 41 40 38 38 40 47 38 49 45 43 46 53 54 52 54
53 68 61 57 48 46 44 39 40 37 35 39 37 38 40 42 46 43 42 43 45 55 56 59 59 57 47 44 45 44 42 42 44 41 47 44 43 46 47 50 49 51 52
47 48 46 49 52 49 46 39 39 39 41 41 41 43 43 43 45 47 52 54 54 57 56 55 54 47 45 46 43 44 44 43 42 41 44 44 43 43 47 47 48 47 44
52 47 48 46 50 49 45 46 40 38 38 39 44 47 50 50 52 51 53 53 56 58 56 52 50 49 49 48 46 44 43 46 44 44 42 44 44 44 44 43 42 40 40
41 38 39 37 43 46 48 48 46 46 50 50 50 52 53 53 53 52 54 58 57 59 56 52 50 48 48 48 47 46 46 41 40 38 39 40 41 43 41 37 36 38 38

GFSMW_500_spd_009.txt.gz
Wind_Speed
8 9 8 9 8 8 7 6 4 3 2 2 1 1 2 2 4 4 3 4 5 7 10 13 15 18 18 18 18 19 20 21 18 16 18 17 13 13 10 10 9 7 8
7 8 9 9 9 8 8 7 5 4 4 4 3 2 3 3 3 2 2 5 8 11 13 16 19 20 19 20 19 18 19 19 19 18 16 16 17 15 16 14 13 12 11
9 10 11 11 10 9 10 8 7 8 7 7 6 5 6 6 4 3 5 8 11 14 16 17 17 16 16 16 17 16 16 17 18 18 18 17 16 16 12 17 17 17 15
10 10 9 10 10 11 10 10 11 11 12 10 11 9 9 10 7 4 6 8 12 14 15 16 15 14 14 15 17 20 21 19 19 20 20 20 19 18 17 16 14 23 22
11 9 12 13 13 12 14 14 13 12 15 14 14 12 12 11 10 9 7 9 10 11 12 13 14 14 15 16 19 19 19 20 21 20 19 19 21 21 21 21 20 18 22
13 12 10 13 15 17 17 16 16 16 16 17 16 16 16 14 13 11 10 9 12 10 10 12 11 14 14 17 21 21 24 26 20 17 18 18 19 22 24 25 26 26 25
15 10 14 17 19 16 16 15 16 18 19 19 18 19 18 15 15 13 10 9 8 8 7 11 11 9 11 20 25 25 29 33 22 18 17 18 20 21 22 27 28 28 30
26 11 12 13 18 18 16 16 18 20 19 19 22 21 20 15 15 12 10 7 8 5 8 9 10 10 14 18 23 26 30 32 32 18 17 19 21 21 22 27 33 30 29
32 13 10 16 16 19 18 17 17 18 20 20 22 21 22 18 17 13 8 5 4 5 8 6 8 12 15 17 21 25 32 30 30 26 23 22 24 27 29 30 29 30 31
28 26 10 18 28 21 20 19 14 11 12 16 18 18 18 17 14 10 6 5 6 11 5 6 11 11 17 20 20 26 30 29 27 24 27 28 29 29 31 27 27 30 31
30 30 19 26 24 22 23 23 15 12 12 13 11 12 15 12 9 8 6 5 6 4 4 6 7 11 16 24 26 29 30 33 32 27 28 31 31 28 28 25 25 28 31
30 27 22 30 25 23 20 22 14 13 13 14 10 9 7 5 9 8 6 5 6 5 6 12 14 15 16 23 34 38 37 33 31 33 32 33 36 35 29 26 27 28 29
28 32 32 35 30 23 18 21 16 15 16 13 9 3 6 10 12 10 8 7 7 8 7 11 12 19 24 30 37 38 40 33 30 34 36 37 33 35 30 28 31 28 27
32 37 39 37 35 31 25 24 21 18 16 10 8 8 13 15 15 11 11 10 7 9 10 17 22 25 30 34 34 33 45 41 33 33 36 40 35 33 32 30 31 34 28
32 36 39 39 30 26 23 23 23 23 21 15 10 12 14 16 15 14 12 12 13 16 18 20 20 22 29 34 41 42 42 40 39 38 40 39 36 33 31 30 30 31 33
38 36 40 44 39 37 37 36 26 22 24 22 13 17 14 15 15 13 14 14 11 13 17 20 24 25 29 38 42 45 41 44 45 39 42 40 35 33 32 32 33 31 32
35 43 43 47 45 45 40 41 33 27 24 25 20 16 18 16 17 16 14 12 15 18 21 23 26 29 33 39 41 43 48 49 49 45 39 36 33 33 32 31 30 35 36
47 42 42 44 48 50 50 39 40 32 29 31 28 24 19 20 26 22 20 22 23 22 22 26 29 34 38 42 44 47 51 52 47 44 34 31 33 35 35 35 33 39 44
43 41 45 50 46 45 50 47 47 39 36 35 33 30 22 21 26 27 29 29 27 27 20 26 31 36 42 47 47 51 55 50 44 38 34 33 36 36 37 39 41 46 48
60 53 45 46 46 37 46 46 43 40 39 36 33 31 25 24 24 25 29 28 32 36 27 32 35 39 45 48 50 54 56 45 39 38 36 34 35 36 42 44 46 49 50
68 58 59 52 51 44 50 51 45 45 35 35 37 35 31 26 21 22 30 30 29 34 34 40 42 38 46 49 53 52 45 37 37 37 35 36 39 41 43 42 49 47 48
77 74 67 55 48 49 55 45 35 41 38 35 41 38 33 24 22 31 33 31 37 40 44 40 39 45 49 51 58 49 40 39 39 42 40 41 42 43 43 45 48 52 51
51 57 82 73 61 55 57 57 46 40 40 37 38 35 30 30 32 34 34 38 47 40 44 46 50 50 53 54 54 47 45 43 43 43 44 44 44 46 48 48 47 48 46
52 51 46 56 67 66 57 54 51 45 44 42 40 34 38 36 35 37 41 45 46 47 48 51 52 54 58 57 55 48 44 41 43 45 44 46 46 44 42 42 42 43 42
56 62 56 55 55 49 62 62 56 52 47 45 46 46 43 37 38 40 44 45 49 50 49 53 53 54 56 51 46 45 44 43 43 45 46 41 37 38 41 40 40 36 33
57 61 60 59 54 53 50 58 65 64 52 51 45 44 40 38 42 43 46 50 51 51 54 56 56 53 49 44 45 45 45 44 44 43 36 35 38 40 39 34 30 29 31

GFSMW_500_spd_012.txt.gz
Wind_Speed
7 8 10 11 13 12 9 7 6 5 4 5 4 3 5 5 3 2 1 4 5 7 8 12 15 16 14 13 14 15 15 13 14 12 12 10 8 9 8 7 6 8 11
3 5 9 11 12 10 8 7 5 4 4 3 3 3 5 5 5 3 2 2 4 7 10 12 13 14 15 14 16 17 18 18 16 14 11 11 9 12 9 10 11 8 7
5 4 5 8 8 9 9 8 7 5 4 4 5 4 4 4 4 3 2 2 4 7 9 10 13 15 17 17 17 20 21 19 18 17 14 13 11 9 13 12 13 14 13
9 3 3 4 4 5 5 6 8 9 8 6 6 6 5 6 6 5 4 5 7 7 8 11 12 14 14 14 16 17 19 20 20 19 17 14 14 11 11 11 15 17 16
11 6 2 2 1 4 6 7 7 6 8 9 10 8 10 9 8 9 9 10 9 12 11 11 10 10 9 9 11 13 16 19 19 15 12 13 13 13 13 13 13 16 20
10 2 4 6 3 5 8 9 11 11 10 9 12 13 13 11 11 11 12 12 12 15 11 7 6 7 6 13 14 15 16 23 21 9 7 10 11 13 15 15 16 16 17
15 11 10 10 11 9 10 12 15 16 16 13 12 14 16 14 15 14 13 14 16 12 7 3 3 4 5 8 10 13 16 20 21 19 14 13 14 14 16 17 18 21 25
26 18 17 15 11 10 10 14 16 17 18 17 14 14 17 18 17 14 14 16 16 6 1 3 3 6 7 8 12 15 18 20 23 21 20 20 19 19 19 21 25 26 28
13 10 15 17 12 6 8 11 17 17 15 16 16 16 16 18 18 16 17 18 12 4 3 4 6 7 9 9 9 16 20 22 22 21 19 20 21 22 22 21 22 23 24
21 15 15 14 14 5 6 11 17 16 14 11 12 14 19 20 17 18 19 18 9 5 7 9 9 10 8 8 13 22 23 26 25 22 20 20 24 26 23 20 21 21 20
19 18 17 17 21 19 10 10 16 16 15 11 11 11 15 16 16 20 20 16 9 8 8 9 9 11 14 14 16 20 25 30 31 29 27 25 26 28 29 24 21 19 18
22 23 19 20 24 14 14 12 17 17 17 16 13 10 12 15 19 22 20 16 11 7 7 7 7 8 11 15 17 21 16 27 31 30 30 32 32 33 31 29 27 26 24
31 27 23 22 23 18 14 15 18 15 15 17 14 11 11 16 22 22 19 14 11 10 10 9 11 12 16 19 20 24 23 29 33 34 36 34 35 38 36 31 31 31 28
43 32 30 26 26 26 23 19 20 19 18 18 13 11 11 17 23 23 20 16 11 10 12 13 14 17 17 18 22 26 27 28 31 38 40 40 40 41 38 35 33 34 33
42 28 31 28 33 33 26 17 20 22 21 22 16 13 17 20 24 24 21 20 17 14 14 16 14 13 16 18 23 25 29 32 36 40 44 43 40 40 37 36 34 33 34
32 28 26 27 31 29 27 21 20 17 21 23 22 20 22 22 23 23 24 22 21 17 15 15 15 15 18 19 23 25 30 32 36 41 45 39 37 35 32 31 29 33 35
38 36 31 33 36 31 30 30 31 24 28 27 23 21 23 25 25 25 29 27 27 23 20 21 18 19 20 22 24 28 30 33 37 43 43 35 31 31 32 31 31 34 36
43 38 43 37 41 38 38 35 35 38 33 30 26 24 22 25 27 27 31 28 27 25 27 29 25 28 26 24 26 29 34 36 41 45 38 32 32 33 31 32 33 34 37
52 50 49 37 41 47 43 46 44 38 34 33 33 27 28 31 29 28 32 35 35 33 32 37 35 34 27 28 29 34 37 39 44 42 33 32 31 35 31 33 35 38 43
57 48 50 52 45 46 49 47 45 39 41 37 36 35 32 36 35 33 33 38 38 37 38 41 36 30 31 35 33 37 38 44 46 43 37 37 38 38 37 37 37 38 40
63 65 59 57 60 52 47 48 46 46 49 39 34 35 36 39 39 38 34 37 42 43 40 42 31 30 34 33 36 40 43 48 50 47 41 40 40 40 41 36 33 36 39
50 64 67 70 66 63 65 62 55 47 50 49 44 44 40 44 44 41 37 41 43 43 45 45 27 32 34 38 41 43 47 51 51 43 40 41 42 43 43 38 40 43 47
51 61 64 69 73 63 59 64 64 56 50 50 43 45 43 42 46 47 45 45 44 45 47 34 32 35 35 41 44 44 48 51 47 45 45 43 43 43 44 41 38 39 43
46 51 58 68 77 76 70 64 63 58 54 49 47 46 44 45 44 52 50 48 49 47 39 37 40 36 39 44 46 48 52 52 51 47 46 44 42 43 39 35 38 43 42
55 56 52 52 56 59 62 60 68 66 61 65 48 48 49 48 47 53 56 57 54 45 30 39 42 41 43 48 52 54 58 58 49 46 45 44 42 39 38 40 39 35 29
54 52 55 52 55 61 65 53 53 62 64 60 55 52 52 50 54 61 64 49 35 30 39 44 47 45 50 54 57 57 59 45 44 43 43 40 38 36 37 34 30 29 30

GFSMW_500_spd_015.txt.gz
Wind_Speed
7 11 11 14 14 11 10 10 10 9 9 9 8 8 10 11 6 4 4 4 4 1 5 8 10 12 15 17 17 16 16 15 15 14 13 11 7 7 5 5 5 7 7
5 10 10 10 12 14 12 10 9 8 8 7 6 7 8 6 5 6 4 1 1 3 6 9 12 14 17 16 16 16 17 18 17 15 12 12 12 10 9 9 7 7 8
8 8 8 11 12 11 10 10 10 8 7 6 6 5 6 6 5 4 4 3 4 6 8 11 12 15 15 13 14 17 19 21 22 18 11 10 10 11 11 11 11 10 10
11 11 11 9 12 12 11 10 10 8 5 6 6 6 6 7 6 7 6 6 6 9 12 12 13 14 11 11 12 15 15 20 18 11 8 6 8 9 11 12 11 12 13
2 9 15 16 14 11 11 10 8 7 5 5 6 6 9 9 8 8 9 9 8 13 14 12 10 9 10 9 12 10 12 18 20 12 8 7 8 9 9 11 14 17 17
6 3 6 10 12 10 9 8 9 8 7 8 8 9 11 11 12 12 11 12 13 15 14 10 8 8 9 9 11 11 13 14 17 15 13 11 11 12 13 14 14 14 17
7 6 5 14 13 13 10 8 8 7 8 10 10 11 13 12 14 15 15 15 17 15 12 8 9 8 7 8 7 9 12 14 16 18 14 12 12 12 12 14 16 18 20
5 6 7 12 19 19 15 11 11 10 8 10 14 15 16 14 16 17 18 18 17 13 12 11 8 8 9 11 10 12 14 15 16 17 17 17 17 16 17 16 17 20 21
11 4 5 10 22 19 13 9 7 7 7 8 14 18 17 16 16 19 19 19 17 14 13 12 10 10 13 15 11 10 12 18 19 18 17 17 20 21 23 24 19 17 18
12 10 8 5 16 11 10 8 12 8 9 9 11 15 19 20 19 20 21 21 19 16 16 14 11 12 13 13 15 16 16 16 22 23 23 20 19 21 23 26 28 25 21
15 11 10 10 12 16 15 13 13 11 8 10 14 13 16 15 17 20 25 23 18 18 19 16 13 13 13 13 12 16 17 17 20 22 23 25 26 25 26 28 29 26 27
22 19 16 17 17 16 13 16 14 12 10 14 16 17 15 15 16 21 27 23 19 22 21 17 14 14 12 12 15 16 13 16 17 20 25 28 31 31 30 30 30 29 28
27 27 28 27 23 18 14 16 17 12 15 16 16 17 15 17 18 23 26 22 22 22 20 18 18 17 14 13 15 18 16 17 20 24 28 31 36 36 31 31 29 30 31
34 36 30 30 30 23 17 19 15 16 18 17 17 14 16 17 20 22 25 23 25 23 23 23 23 20 16 15 16 18 17 19 21 24 28 33 37 35 30 31 31 30 32
38 41 31 35 34 24 24 25 22 18 21 19 10 12 15 17 20 20 24 26 25 24 24 26 25 22 22 18 19 19 19 20 22 22 29 33 35 31 27 28 30 28 29
43 45 40 27 25 30 26 26 29 22 22 22 12 18 20 20 23 22 25 28 26 28 27 25 27 26 23 23 24 26 26 19 19 24 28 31 29 27 28 27 27 30 30
47 45 44 30 29 19 23 28 25 25 24 23 21 20 25 23 23 26 27 27 27 29 30 30 29 28 29 26 26 37 43 26 21 24 27 31 30 29 29 30 33 33 35
51 45 43 41 39 32 29 30 31 30 32 32 29 26 28 28 25 28 29 30 33 33 35 36 34 33 32 30 32 34 27 23 24 26 30 34 33 33 32 36 37 37 38
54 53 48 47 47 44 32 34 38 35 33 35 35 34 31 28 26 25 27 29 31 35 38 40 38 38 35 35 36 34 27 23 26 28 32 37 35 35 35 37 39 41 42
55 57 54 52 52 49 37 33 34 39 41 43 38 36 33 31 33 30 31 33 35 34 40 46 44 42 41 42 41 33 29 28 31 31 34 37 37 39 41 42 42 42 43
51 57 56 54 54 49 46 46 46 45 40 43 44 40 38 35 37 37 39 40 39 40 44 49 47 44 45 47 46 28 30 31 35 38 39 42 46 47 45 44 43 43 44
48 53 56 57 56 56 52 48 45 43 42 44 43 41 42 43 42 41 43 42 45 47 49 49 48 51 50 48 49 28 33 35 38 41 43 47 49 43 44 43 43 44 42
37 41 59 58 55 52 53 51 52 45 48 51 53 52 50 48 48 44 46 45 47 55 54 52 51 51 51 52 52 31 34 39 40 43 47 48 45 42 43 42 43 42 38
40 42 44 53 65 67 59 57 55 58 60 57 56 61 48 58 58 54 51 54 54 57 63 56 56 53 51 50 43 31 39 41 41 46 52 51 51 40 41 42 42 36 34
42 44 47 48 51 51 54 62 67 73 70 61 68 62 57 58 55 59 57 51 54 60 63 64 68 57 60 52 34 37 44 47 45 51 52 51 41 37 37 40 34 31 31
52 52 54 59 61 56 54 56 65 64 65 67 67 70 66 64 62 64 58 60 60 64 67 63 54 39 52 32 35 41 46 44 48 45 35 35 37 36 36 34 29 30 32

GFSMW_500_spd_018.txt.gz
Wind_Speed
8 11 14 17 17 15 14 13 15 15 13 13 12 10 11 11 8 7 7 5 2 1 2 5 8 12 14 15 16 16 17 17 14 11 9 8 8 8 8 9 6 4 3
10 13 13 15 14 16 15 14 13 15 13 11 10 10 10 8 8 7 6 4 2 4 7 9 12 13 15 14 15 15 18 20 19 12 7 6 7 8 9 9 10 9 8
10 10 12 15 16 13 10 9 10 9 10 10 10 9 10 8 8 7 6 4 3 5 8 10 12 13 11 12 12 18 21 22 22 12 5 7 6 7 8 9 10 11 11
12 11 9 11 15 15 14 11 9 8 8 10 12 11 9 9 9 9 8 6 5 7 10 12 12 11 9 11 12 17 17 20 21 15 11 9 7 8 9 8 9 11 12
10 14 15 15 14 11 12 14 14 12 11 12 13 13 13 11 11 11 9 8 9 10 11 11 11 11 9 10 12 16 13 14 18 17 14 12 10 8 9 10 12 12 14
16 13 13 14 14 16 14 13 13 15 14 15 15 16 15 13 12 12 11 10 11 11 12 12 12 11 7 8 11 12 12 12 13 14 12 12 13 13 12 12 12 14 16
20 16 10 5 2 7 10 12 10 10 11 13 14 16 16 14 14 13 13 14 13 11 11 14 15 12 7 7 9 12 15 14 13 11 11 11 11 13 14 15 15 15 16
18 18 14 7 7 10 10 14 11 11 12 14 17 19 18 17 17 15 15 17 16 11 11 15 17 15 9 8 12 12 13 13 13 10 10 11 11 11 12 13 16 15 17
21 16 15 9 9 10 8 10 12 9 12 12 15 18 20 19 18 19 18 18 18 14 12 17 18 17 10 10 13 13 17 16 11 12 11 11 12 14 15 14 14 17 17
27 24 20 12 9 13 13 13 10 9 7 11 11 13 17 20 20 20 20 20 20 16 15 17 20 20 11 11 13 14 15 16 16 15 14 14 14 16 20 19 17 16 17
30 28 25 20 14 19 21 18 15 12 11 12 11 11 13 16 19 21 22 24 23 18 18 20 21 20 13 13 13 13 15 14 13 12 15 17 21 23 29 24 19 21 20
31 29 27 26 25 21 22 19 18 17 13 15 16 14 14 14 15 18 20 27 26 21 22 24 23 20 14 14 13 13 16 16 15 16 19 20 23 28 30 27 21 20 21
31 28 29 29 30 24 24 21 21 19 16 17 17 16 16 13 16 19 19 24 25 23 24 26 24 22 18 17 16 16 18 18 19 19 22 22 23 27 30 24 21 23 25
36 33 31 29 32 28 26 23 21 21 22 17 16 15 14 13 17 21 20 21 23 25 25 28 26 26 24 20 19 20 20 20 21 26 27 18 22 25 22 20 19 20 23
43 40 35 37 36 30 26 29 25 22 24 20 15 11 15 14 12 16 20 20 19 24 26 29 29 29 25 24 25 22 22 23 26 31 34 18 19 21 20 19 20 23 28
43 42 40 39 39 35 35 26 28 26 22 22 15 16 19 16 16 18 21 22 20 21 28 29 30 29 27 28 30 23 21 28 21 28 22 20 21 22 21 21 24 26 27
38 41 44 40 36 36 33 31 32 24 23 22 21 20 18 19 19 23 27 25 23 25 25 31 32 31 28 29 30 27 23 28 36 34 21 22 23 23 22 25 27 29 31
36 38 41 35 33 35 34 26 24 30 29 29 28 27 26 25 26 26 29 30 26 24 25 29 32 34 32 31 32 32 32 29 37 27 25 25 26 23 27 29 28 30 32
38 43 49 45 41 38 33 33 34 28 25 32 33 33 31 29 31 26 27 29 27 23 24 30 35 36 37 37 38 40 37 36 35 41 30 22 27 28 30 29 30 32 34
45 45 49 51 44 42 38 38 38 36 29 33 34 34 33 32 37 33 27 29 30 29 28 29 32 38 39 42 46 45 44 44 39 39 28 29 31 30 35 31 32 34 35
42 47 46 51 54 52 48 46 43 42 30 33 36 35 36 37 45 39 35 32 36 38 38 37 36 40 40 42 49 51 49 45 49 48 34 30 31 36 40 43 38 36 36
40 45 46 47 48 49 51 46 44 45 44 41 40 40 39 38 51 43 40 42 36 40 42 45 46 47 50 47 52 54 54 54 53 48 32 33 33 38 42 41 36 35 35
42 39 43 48 48 50 50 51 51 52 49 46 45 47 46 46 47 47 49 42 42 51 48 46 48 46 56 57 59 61 60 57 52 53 34 34 37 40 39 36 33 33 33
41 40 42 43 45 50 54 53 55 54 51 50 48 50 51 53 54 49 56 52 47 53 43 46 46 49 56 59 67 66 63 57 50 51 33 38 44 38 34 34 32 32 33
43 38 41 43 45 44 43 45 51 57 57 53 51 55 55 58 58 59 62 62 53 57 64 60 50 59 59 65 65 69 73 55 53 34 28 33 40 44 38 33 32 32 31
47 45 41 43 46 48 48 48 48 48 47 48 52 62 70 72 71 71 68 65 63 63 58 62 62 69 69 84 74 28 37 28 18 33 27 36 37 29 28 32 31 32 30

GFSMW_500_spd_021.txt.gz
Wind_Speed
10 13 17 19 19 20 18 18 16 15 13 15 15 14 13 11 10 9 9 7 4 1 3 6 9 10 13 13 13 14 16 17 15 10 6 5 5 6 8 9 8 8 8
12 15 18 18 18 20 20 19 18 17 15 13 12 13 13 12 11 10 8 4 1 4 6 8 10 10 11 12 11 18 21 21 17 10 3 2 5 5 7 9 10 11 11
15 16 19 22 21 20 18 19 19 17 15 14 11 11 12 13 12 10 8 5 2 4 7 9 12 11 10 12 12 18 19 21 19 12 8 5 1 2 4 6 9 11 12
16 16 18 20 21 21 22 19 16 15 13 12 13 12 11 11 11 11 9 6 4 3 4 7 11 11 11 12 11 15 16 17 16 15 12 11 9 6 4 3 4 6 8
20 19 20 20 20 19 17 18 19 17 15 14 15 13 11 12 12 13 13 10 7 6 5 8 11 11 10 10 10 12 12 13 12 13 9 10 10 11 11 10 9 9 9
20 20 23 24 22 21 20 18 16 17 17 18 17 16 17 15 14 15 15 12 11 9 8 8 10 12 11 9 8 10 13 12 10 9 9 9 9 9 8 9 11 11 11
24 22 16 14 13 14 16 17 17 15 14 14 14 16 17 18 18 18 18 17 16 15 10 9 10 11 11 9 7 10 12 13 12 10 10 10 9 9 9 9 10 10 11
28 25 24 22 18 15 14 11 11 13 14 15 16 17 17 18 19 20 21 21 20 18 13 12 11 12 11 10 6 8 11 13 9 10 11 9 10 11 14 14 14 13 14
26 26 25 23 22 20 15 12 14 16 15 16 20 21 21 21 20 22 23 22 22 20 17 15 13 12 11 11 7 7 10 12 12 13 9 7 8 10 15 19 15 14 14
27 25 24 22 19 16 17 16 17 15 17 15 16 18 18 21 23 22 22 23 24 22 19 18 16 14 13 11 9 8 10 13 13 12 11 12 13 14 18 20 17 12 12
28 28 26 23 22 19 21 18 18 18 15 14 15 15 14 15 17 20 24 25 27 25 21 20 20 17 15 12 10 9 10 12 15 14 14 14 16 18 18 17 14 11 10
36 33 32 30 27 25 25 23 22 20 15 19 18 16 17 14 12 13 17 22 27 28 26 24 23 20 19 14 12 10 12 13 15 18 20 20 25 17 18 13 9 9 10
40 39 36 34 30 27 24 28 27 25 21 22 21 21 19 18 14 14 15 16 21 24 25 25 25 23 22 17 15 13 13 15 18 21 25 28 26 12 13 14 11 12 15
41 41 40 39 34 30 31 29 29 29 27 22 21 20 17 16 16 18 16 14 16 19 21 24 27 26 26 22 19 18 18 16 20 23 22 21 12 14 16 14 13 14 16
43 44 44 40 37 34 29 29 29 29 26 22 19 17 16 20 17 15 15 15 14 16 17 23 29 29 30 25 22 22 20 15 21 21 26 24 16 12 17 16 17 16 18
48 47 46 44 39 39 32 29 28 22 29 26 22 19 19 20 17 16 16 16 15 16 18 18 27 31 30 28 26 24 24 21 20 23 22 21 20 15 17 19 23 23 23
46 48 46 43 42 41 37 31 33 27 29 35 33 24 23 20 20 22 20 20 20 22 20 20 22 28 31 29 29 26 24 22 25 26 27 26 24 26 23 20 24 26 25
33 33 41 44 41 41 35 39 34 34 30 36 32 27 26 26 24 25 24 23 27 27 27 21 22 26 30 30 31 31 32 30 27 28 32 33 34 33 29 28 29 29 29
38 36 33 31 35 34 31 34 37 35 31 30 32 29 28 30 32 29 28 29 31 29 28 24 22 24 27 30 34 38 39 38 35 34 36 39 39 39 32 34 33 33 35
40 38 36 34 34 33 32 31 33 34 32 30 24 28 35 36 35 34 33 34 35 33 32 30 28 25 24 25 30 37 38 41 40 39 43 44 44 43 45 39 39 36 40
42 41 39 38 38 35 35 34 34 32 32 35 39 35 34 35 35 37 43 35 36 43 41 35 36 36 36 34 37 42 45 44 45 47 48 49 51 51 51 38 41 36 41
43 45 41 39 37 36 38 39 39 42 42 43 42 40 38 35 38 39 42 47 46 44 43 42 40 39 45 46 45 46 48 50 50 53 55 57 59 62 58 43 41 39 40
41 44 44 40 37 36 36 38 40 41 44 46 44 43 41 37 41 43 46 46 45 53 47 48 39 40 45 44 47 51 51 54 56 62 66 69 68 68 62 41 38 36 40
42 39 43 43 41 40 39 37 41 42 44 46 46 46 46 46 45 47 52 50 55 49 55 48 50 56 47 50 50 52 52 57 62 61 74 74 66 70 44 29 31 37 33
48 44 40 40 40 41 42 39 38 42 47 50 53 54 56 57 49 55 54 60 56 58 58 61 59 64 58 56 49 56 61 63 63 73 80 68 45 50 23 29 31 28 30
48 48 46 43 36 40 40 41 39 41 41 43 52 56 56 57 58 60 64 64 67 67 66 66 65 63 66 65 64 67 68 68 68 70 80 41 49 24 26 29 31 29 32

GFSMW_500_spd_024.txt.gz
Wind_Speed
15 16 18 22 22 21 19 21 19 17 17 18 18 17 16 14 12 10 9 7 4 4 4 6 7 10 11 11 11 12 16 13 7 5 1 1 3 4 5 5 6 7 8
17 17 19 21 22 23 22 22 21 17 16 15 16 14 12 12 11 10 9 7 4 5 4 4 7 9 9 9 10 13 18 18 14 11 7 4 3 3 4 5 6 7 8
21 20 21 22 23 24 23 24 23 21 17 15 13 13 12 14 14 12 9 6 4 5 4 4 6 8 8 9 10 13 16 16 15 15 12 8 6 4 5 5 5 4 6
20 22 22 21 22 25 25 25 25 22 19 15 13 15 16 15 13 12 11 8 5 1 1 3 6 9 9 7 7 11 13 12 13 12 11 10 10 8 8 6 5 4 4
23 24 23 24 24 23 24 23 22 20 18 18 19 16 14 15 15 16 14 12 9 6 5 4 4 6 8 8 6 10 11 11 11 10 11 10 9 9 8 7 7 7 8
24 24 25 27 25 23 22 21 20 21 21 20 18 17 17 16 16 16 16 14 12 10 10 8 7 5 6 6 5 7 9 10 9 10 10 11 11 11 10 10 10 10 10
26 25 24 25 25 23 23 22 21 20 20 20 18 17 17 17 17 17 17 16 16 14 12 11 12 9 5 5 4 4 9 10 9 9 12 11 11 11 12 13 13 11 9
28 27 25 26 25 24 22 21 19 19 19 20 19 19 18 17 18 17 18 19 19 17 15 14 14 13 9 4 4 2 7 9 11 11 12 10 10 11 11 14 12 10 7
30 27 26 28 28 27 23 20 19 19 18 19 20 20 21 20 19 20 21 21 19 19 19 17 17 16 13 8 5 3 2 6 9 10 8 9 11 12 14 17 13 9 6
25 29 30 29 27 25 25 25 24 21 20 23 22 22 22 21 21 21 19 20 21 21 20 19 19 18 16 14 8 5 2 2 6 11 10 13 13 15 13 14 11 8 4
24 27 30 29 26 25 26 24 23 23 22 19 17 17 19 19 19 20 21 21 24 22 21 21 22 21 19 16 12 10 6 4 7 11 14 15 17 17 10 9 8 6 4
31 30 32 31 29 26 24 25 23 23 19 18 18 16 18 17 16 16 17 20 22 25 25 25 25 25 21 18 17 14 10 8 8 12 15 20 18 12 3 6 6 7 7
33 32 37 34 31 29 27 24 22 22 22 22 20 19 19 17 14 15 17 15 15 17 16 18 21 26 25 22 21 18 13 11 9 12 15 10 4 2 4 5 7 10 15
37 35 38 34 36 34 31 29 25 25 27 28 25 21 21 18 15 16 18 14 12 11 12 14 17 22 26 26 23 20 18 15 14 16 13 14 16 9 9 8 11 13 15
45 45 44 45 42 41 36 32 29 29 30 30 26 21 23 22 20 16 17 13 10 8 9 11 14 20 25 27 25 20 22 18 17 15 14 14 15 15 14 13 14 16 20
50 47 47 47 47 43 42 37 32 31 30 28 19 24 24 23 23 21 19 18 13 11 10 13 16 18 20 25 27 24 22 23 22 24 18 20 22 22 20 21 21 22 22
50 53 50 45 42 44 42 41 37 36 30 23 27 26 25 21 23 22 23 23 20 18 15 16 17 17 18 19 20 22 23 21 22 20 20 24 24 27 28 31 28 30 29
45 44 46 47 45 43 42 43 42 39 36 30 24 25 29 32 30 26 24 25 24 22 21 20 21 21 19 22 21 22 22 25 27 30 30 29 30 30 33 36 34 33 34
38 39 41 33 33 38 43 46 47 43 42 35 28 27 29 28 30 32 29 28 28 28 27 27 27 25 22 23 25 27 30 29 31 32 33 32 31 37 39 41 41 40 41
39 38 37 34 31 32 38 44 40 32 38 39 31 32 30 31 32 37 35 34 36 33 35 32 32 33 32 27 27 30 35 35 32 31 33 32 34 43 45 46 46 48 49
41 40 39 36 34 32 32 31 33 31 33 37 37 35 36 33 31 34 33 37 40 41 42 40 35 37 39 40 37 37 40 40 39 43 43 42 43 48 51 54 53 57 51
40 41 42 40 37 36 36 33 31 32 33 34 33 34 36 39 36 36 33 36 40 39 39 39 39 41 41 39 40 43 45 49 51 49 51 50 48 56 59 57 58 62 63
39 39 42 40 38 38 37 36 37 36 35 36 38 38 40 40 40 39 40 40 42 43 44 43 43 43 43 45 44 46 47 53 52 55 52 56 55 62 55 59 68 68 68
38 41 40 40 41 41 38 38 37 38 39 39 41 41 41 41 41 42 42 42 41 41 46 51 54 54 51 54 53 45 50 56 54 55 53 52 60 58 59 61 70 68 77
40 38 35 37 38 37 36 38 39 39 40 41 40 41 42 44 45 43 46 48 48 49 52 55 61 60 59 58 62 60 56 58 66 64 63 62 59 65 66 66 64 71 57
42 42 40 39 38 35 36 33 33 36 39 41 42 44 45 46 48 50 52 52 55 55 58 59 63 70 70 71 69 70 70 72 72 70 73 63 68 70 68 63 64 62 47

GFSMW_500_spd_027.txt.gz
Wind_Speed
16 18 21 21 21 20 20 21 20 20 18 19 18 17 15 13 10 8 7 5 4 3 2 5 7 10 11 11 10 15 16 13 11 8 5 3 4 3 3 4 4 4 6
17 18 19 20 22 22 21 21 21 21 21 20 19 17 15 13 10 9 8 6 5 3 2 5 8 9 10 10 10 12 15 16 14 12 10 7 6 7 6 5 4 5 7
18 18 20 23 23 22 21 22 22 22 22 19 18 17 15 15 15 12 9 8 7 4 2 5 6 8 10 8 8 11 14 13 14 16 16 14 11 10 9 8 7 6 6
20 20 20 22 23 25 25 23 24 24 20 17 16 17 17 16 13 12 11 10 9 5 1 2 4 6 7 7 7 9 13 11 11 12 12 12 12 11 9 9 8 7 8
21 21 22 25 26 25 24 23 24 22 20 18 18 17 15 14 14 15 15 11 8 5 4 2 3 6 5 6 6 7 8 9 10 10 11 9 8 7 7 8 7 7 9
24 23 26 25 24 23 24 22 21 22 22 21 19 18 18 17 16 16 15 12 9 9 8 6 5 5 6 4 5 4 6 7 8 8 9 10 10 12 12 12 10 8 8
27 28 27 25 25 21 21 22 23 22 22 20 18 18 19 18 17 17 15 14 13 12 9 9 8 6 6 4 2 2 3 5 6 8 8 9 9 10 10 14 14 11 8
26 28 26 25 27 25 23 22 22 22 20 19 19 19 19 17 17 17 17 17 15 13 12 12 11 10 7 6 4 3 1 1 4 5 6 8 11 10 10 12 13 11 4
26 28 26 27 28 28 26 23 23 21 19 18 19 18 17 17 18 19 19 19 17 15 15 14 12 13 11 8 7 7 4 2 2 5 4 7 8 8 7 9 9 7 2
24 29 28 28 28 27 27 26 24 21 22 20 19 18 17 18 20 19 19 20 19 17 16 15 14 14 14 12 10 10 9 6 4 5 7 10 12 12 8 10 8 5 5
24 28 28 29 29 29 28 25 23 23 21 20 20 20 19 18 19 18 20 22 22 19 16 16 15 15 15 15 14 12 13 11 8 7 8 11 16 14 13 10 7 7 7
29 24 25 30 32 29 28 26 25 24 23 23 22 18 18 15 13 14 14 15 17 18 18 17 18 18 19 19 16 16 15 16 14 11 8 10 10 8 6 7 9 11 9
34 26 28 30 31 31 30 28 27 23 23 23 21 19 16 15 14 14 15 14 13 13 13 11 11 14 17 19 19 19 17 18 18 14 8 8 11 9 8 10 13 14 14
43 38 35 30 31 30 29 28 25 24 24 23 25 21 17 15 16 17 17 15 13 13 10 7 7 9 12 15 17 18 18 19 20 18 15 12 12 11 12 12 13 14 16
40 37 34 34 31 29 30 31 30 28 26 24 24 21 19 19 19 19 20 17 12 12 10 6 7 9 9 8 9 13 15 17 22 19 19 18 18 17 16 15 16 18 22
43 39 38 37 37 37 37 34 32 31 27 24 21 23 21 21 20 22 23 22 17 13 13 9 7 7 9 9 11 13 14 17 22 23 23 27 27 24 25 21 21 23 23
46 43 40 39 38 38 39 37 37 35 29 28 21 21 22 20 20 23 24 23 20 18 16 15 13 10 10 13 14 15 16 18 23 25 28 27 27 24 28 26 27 27 26
44 45 44 44 43 41 42 43 43 39 36 33 28 24 24 22 22 22 26 26 24 21 19 18 18 20 15 17 20 20 20 20 22 27 31 31 30 26 30 35 33 32 33
41 45 50 49 50 49 44 39 37 38 38 36 33 33 30 27 24 20 26 25 29 24 24 24 23 24 22 22 25 29 31 30 24 24 29 30 34 33 29 36 35 36 37
41 41 41 40 43 43 47 46 41 37 38 40 42 38 38 34 29 23 24 25 29 31 31 30 31 31 30 29 29 34 38 38 35 34 33 30 33 36 35 37 43 44 45
38 36 35 33 32 33 36 38 39 38 39 45 46 46 45 42 35 32 30 29 28 30 30 32 32 32 31 29 33 35 39 39 41 42 40 38 41 44 46 44 49 54 55
42 42 39 37 35 32 31 30 31 36 39 40 41 38 36 40 39 36 35 33 32 34 35 36 37 36 34 34 35 37 40 40 42 45 43 48 47 50 50 50 53 58 54
41 42 39 40 39 35 32 31 33 34 33 32 32 34 35 37 37 35 34 38 39 38 38 41 41 41 41 42 42 40 45 50 51 52 54 57 52 53 42 47 54 57 56
40 40 41 40 39 39 38 35 34 33 35 36 35 35 36 36 38 38 41 43 43 42 41 44 45 44 45 44 42 44 48 53 57 55 61 67 68 56 62 54 55 55 59
43 42 41 40 41 39 37 37 38 36 36 37 36 38 39 41 41 43 43 44 45 47 46 47 49 49 50 48 52 54 54 54 60 63 65 68 76 70 71 62 71 62 66
47 46 43 41 43 42 43 40 39 38 38 39 39 39 41 43 44 46 48 48 48 49 50 52 51 53 55 60 60 59 61 61 64 73 78 79 81 81 78 66 69 70 71

GFSMW_500_spd_030.txt.gz
Wind_Speed
10 14 17 18 20 19 18 19 18 17 17 18 17 15 12 9 9 8 7 6 5 5 4 8 9 10 10 10 11 13 16 15 15 12 10 8 7 6 6 5 4 5 6
10 12 13 17 18 21 20 20 21 20 20 20 18 14 12 10 8 8 7 6 6 6 4 6 8 10 9 11 11 13 15 19 18 16 13 11 9 9 9 9 9 9 8
9 11 11 14 18 19 19 20 22 23 22 21 18 15 13 12 11 8 8 8 7 7 5 6 7 8 8 9 11 12 12 13 13 13 15 14 13 10 10 11 10 9 8
10 13 14 14 18 21 20 19 21 23 23 21 18 17 17 13 9 10 11 10 7 5 4 4 5 6 7 7 8 10 11 10 8 8 9 9 8 8 8 8 8 8 8
12 15 17 18 19 20 19 18 19 20 21 20 19 18 17 13 11 12 12 11 7 4 2 1 3 5 5 5 5 6 6 7 8 9 9 7 6 8 7 8 8 7 8
19 14 21 20 17 20 20 20 19 20 20 20 18 17 16 14 13 13 11 10 8 6 3 2 2 4 5 4 3 3 4 4 4 6 7 6 5 6 7 8 9 7 5
25 15 20 19 19 19 19 20 19 19 20 20 17 16 15 13 12 11 10 10 9 8 7 6 4 3 4 5 5 3 2 1 1 3 5 7 5 3 5 8 10 7 3
24 14 16 20 21 22 20 22 22 20 20 20 17 15 14 13 13 12 11 11 11 11 12 10 9 7 5 4 4 6 5 3 2 2 2 4 6 7 7 9 11 11 3
28 25 16 20 23 22 19 19 21 19 19 19 18 16 16 13 13 14 14 14 13 13 13 12 11 9 8 7 6 5 8 8 6 4 3 7 9 10 11 11 8 4 3
32 24 13 20 22 23 23 22 21 19 19 19 18 15 13 13 12 12 13 15 16 16 14 15 14 12 11 9 9 8 8 10 11 9 7 10 12 12 12 12 11 9 7
35 30 14 20 23 25 24 24 22 20 18 16 16 15 15 14 13 12 13 15 15 15 13 15 14 14 13 11 10 11 10 11 12 13 11 13 15 15 12 11 12 10 8
34 34 18 21 25 26 24 24 22 20 20 21 19 18 14 13 10 10 10 10 10 10 10 11 12 14 15 15 14 12 12 12 13 14 13 13 13 13 12 11 11 10 12
34 35 28 20 22 25 25 24 23 22 23 21 18 16 16 11 9 10 10 9 8 9 8 6 6 6 7 9 11 13 13 13 13 15 15 14 13 11 12 14 16 18 16
38 36 35 24 22 22 24 25 24 24 22 18 16 16 16 13 12 12 11 11 11 10 8 6 4 3 3 5 7 8 9 11 14 18 17 18 19 19 15 14 15 14 19
36 36 38 30 25 27 26 26 27 25 24 22 19 17 18 16 15 13 13 13 12 10 9 7 5 3 2 3 5 7 10 10 15 19 21 20 22 23 23 19 21 24 24
45 49 46 37 29 23 25 28 28 27 27 22 19 18 16 11 11 14 14 14 14 11 13 10 10 8 4 4 5 6 9 11 14 17 20 23 23 24 26 30 30 28 29
34 35 41 39 33 28 24 30 29 28 25 23 21 16 12 9 11 13 13 10 13 13 11 16 13 10 9 9 9 9 9 10 14 19 22 23 25 26 25 27 31 31 31
33 31 33 35 32 30 28 29 32 32 28 24 21 19 16 13 15 16 15 14 15 18 18 15 16 14 12 13 16 19 20 19 18 20 21 22 24 25 29 31 33 35 34
37 37 34 34 35 36 35 38 37 33 30 26 24 25 24 22 20 19 20 20 17 19 19 23 17 16 17 18 19 22 26 27 26 27 22 23 23 25 28 31 31 34 38
35 32 32 35 38 37 38 40 36 31 29 26 30 35 30 29 29 29 27 27 24 20 19 22 22 19 20 23 24 26 31 32 31 32 30 28 27 30 32 34 36 38 39
36 34 32 32 32 25 23 26 26 24 21 33 35 34 35 34 35 37 36 34 32 29 25 25 24 22 22 24 24 26 30 31 35 36 35 34 36 38 39 40 42 41 47
35 36 36 35 34 32 28 25 25 28 28 33 32 36 39 38 40 40 41 42 38 36 33 29 28 28 29 28 28 29 33 36 42 42 41 43 43 47 46 46 48 52 51
41 38 36 35 33 32 29 25 26 27 29 34 38 40 40 41 43 44 41 40 37 36 36 35 33 34 35 35 36 39 39 41 46 47 47 52 51 51 53 53 57 57 56
41 39 39 39 39 33 34 32 29 28 29 29 31 31 30 35 40 40 40 42 37 37 36 36 38 40 41 42 46 47 46 45 46 49 49 53 57 60 59 59 58 64 62
40 40 40 42 38 34 34 34 32 33 34 32 31 32 33 33 35 38 39 40 41 42 42 43 45 46 46 47 48 50 53 52 52 55 57 60 61 64 67 70 69 69 68
43 45 43 43 42 40 37 36 34 34 36 35 35 34 36 37 37 39 40 42 44 45 46 48 49 49 50 52 53 55 58 60 58 59 61 64 66 68 71 75 75 75 76

GFSMW_500_spd_033.txt.gz
Wind_Speed
7 5 4 11 14 16 16 17 17 18 18 18 16 13 11 9 8 6 6 6 7 7 8 10 10 10 11 11 13 16 17 16 14 13 12 10 9 8 7 7 5 5 6
3 5 3 10 14 17 18 19 19 19 20 19 17 14 11 10 9 8 7 7 7 7 7 8 9 9 10 12 13 13 14 17 14 14 13 10 11 10 10 11 9 10 8
7 2 1 8 17 19 18 18 21 21 22 20 17 15 13 11 10 8 7 7 8 8 5 7 7 8 9 9 11 12 11 12 13 13 12 13 11 10 10 9 8 8 7
12 2 2 8 15 19 19 18 21 22 22 20 18 16 14 11 9 10 9 7 8 7 5 5 5 5 6 7 9 9 9 9 7 8 7 7 5 5 6 8 8 9 9
18 7 7 9 12 17 17 16 20 22 20 20 19 16 13 11 12 12 10 9 7 4 4 4 4 5 5 6 5 7 6 6 8 7 7 7 8 8 10 9 11 8 8
8 9 11 10 11 16 15 14 15 17 20 19 17 16 13 12 13 12 11 11 8 4 2 3 3 3 4 4 4 4 4 3 5 6 6 6 5 6 10 11 14 12 8
5 8 8 11 11 16 17 17 16 15 17 18 16 15 14 13 12 11 10 10 8 6 5 3 2 1 3 4 4 4 5 6 4 4 6 7 7 6 7 12 12 10 6
9 4 7 10 12 15 18 17 17 19 18 17 17 15 13 13 12 11 11 10 9 9 9 9 7 4 4 5 5 6 7 7 6 4 6 8 9 8 6 4 8 10 9
15 7 9 10 13 15 17 18 19 21 20 19 17 15 14 12 12 11 10 10 11 13 12 10 9 8 8 8 7 5 7 8 8 6 8 8 9 10 9 10 6 8 9
20 20 10 8 10 16 18 18 18 20 20 19 18 16 15 13 12 12 12 11 11 11 12 11 10 10 10 9 8 7 6 8 8 8 11 12 13 14 12 8 7 7 9
27 20 8 6 9 15 18 20 18 17 16 16 17 16 15 15 14 11 10 11 11 12 13 12 10 11 11 11 11 10 9 10 9 10 11 12 12 14 13 11 10 9 8
34 25 13 12 12 12 17 20 20 18 19 20 19 18 16 13 11 9 7 6 5 3 4 4 3 3 6 9 11 10 11 12 12 11 13 14 14 14 14 14 11 12 16
36 34 25 16 10 13 17 17 20 20 20 18 17 16 14 10 8 7 6 4 4 2 1 2 3 4 4 4 5 6 7 10 11 12 12 17 16 16 15 14 13 13 15
39 36 31 20 14 13 17 18 20 21 20 18 18 15 12 9 9 8 4 3 3 4 3 2 5 5 3 1 2 4 5 5 8 11 12 14 16 19 22 20 20 19 21
43 43 34 25 19 18 18 21 21 21 20 18 18 15 13 9 9 7 5 3 4 2 2 2 3 3 3 2 2 3 5 7 8 12 13 15 17 19 23 27 26 26 25
36 37 38 34 27 24 22 26 26 22 20 18 16 15 13 11 10 7 6 4 3 2 3 4 4 3 2 1 2 1 3 4 6 11 11 11 14 17 20 24 28 31 28
43 45 42 38 29 22 17 16 22 26 24 21 19 16 11 9 9 8 6 5 6 6 3 5 8 8 6 5 6 7 6 4 5 7 9 8 9 13 17 18 23 29 33
40 43 42 30 22 24 21 19 24 29 29 25 23 18 14 14 13 9 8 8 8 10 10 9 8 11 12 13 11 13 12 9 11 13 14 15 14 15 15 17 20 24 28
38 32 27 24 23 25 26 20 22 26 27 27 24 21 19 16 13 11 11 11 12 14 15 14 15 14 15 16 16 18 19 19 17 18 19 20 21 21 22 23 24 26 26
34 34 32 28 24 25 25 26 25 25 23 23 21 22 22 21 19 19 19 20 19 19 20 19 17 17 18 20 21 21 23 23 23 25 25 24 24 26 28 31 33 34 34
34 34 32 32 34 30 29 30 28 25 27 29 28 27 25 25 25 28 28 25 26 25 24 23 23 22 21 24 25 27 28 28 29 29 30 31 33 35 36 39 42 39 43
39 36 35 31 30 33 33 32 28 22 23 25 26 30 30 29 30 32 33 32 30 31 31 31 30 30 27 30 33 31 31 33 35 34 35 35 39 43 45 47 48 48 47
38 38 37 35 33 30 27 23 24 24 22 33 32 36 38 37 37 37 37 37 36 36 38 37 33 34 36 37 39 36 36 37 38 39 42 43 44 45 48 49 50 53 57
37 36 37 37 34 30 26 27 25 24 26 26 31 38 39 39 41 38 36 37 39 39 39 38 36 38 37 37 36 37 38 41 43 45 46 48 50 53 54 58 59 58 60
39 43 43 41 37 33 32 33 31 28 28 30 29 31 35 38 40 37 34 34 35 36 36 38 38 39 40 40 40 41 43 45 47 49 52 54 55 58 59 62 62 61 64
47 44 45 43 40 37 36 35 34 34 34 33 32 32 34 35 36 37 37 36 35 35 37 39 40 39 41 42 44 46 50 51 53 55 57 58 60 61 62 64 64 63 64

GFSMW_500_spd_036.txt.gz
Wind_Speed
5 8 11 19 19 16 16 17 21 20 20 18 17 16 14 13 11 10 9 8 9 9 10 10 12 13 14 13 15 16 14 16 13 12 12 12 11 9 8 8 8 9 10
4 4 10 19 21 21 18 19 21 21 22 20 17 16 14 12 10 8 10 9 8 8 8 9 9 11 14 13 14 13 14 16 16 12 15 13 13 12 11 10 10 10 9
6 5 10 15 22 24 22 21 23 22 21 20 17 15 14 12 10 8 8 8 7 6 6 7 8 10 12 12 12 12 11 11 12 13 11 11 11 11 8 7 8 9 8
10 4 9 13 19 24 24 23 23 22 20 19 17 16 13 11 8 8 7 8 7 5 5 5 7 7 8 9 10 11 13 13 11 11 10 9 9 7 6 8 8 8 5
14 9 4 13 18 21 21 19 21 22 21 20 18 15 13 10 10 9 9 9 9 6 4 4 6 6 6 7 7 9 9 9 9 8 9 8 7 8 9 12 11 7 8
7 6 8 10 13 16 19 18 18 21 22 21 18 15 13 12 11 11 10 10 7 6 5 3 3 5 5 5 6 6 5 5 5 7 9 10 9 6 10 14 15 10 10
9 7 7 13 14 16 19 18 18 19 22 21 20 18 15 14 13 12 11 9 7 5 5 3 1 2 4 5 6 5 4 3 4 4 6 8 9 8 7 10 13 13 11
11 9 5 11 14 17 19 20 18 18 21 23 21 19 18 17 15 12 11 11 10 9 7 4 4 5 5 5 5 6 6 3 3 7 6 6 6 9 9 8 8 11 12
14 9 9 7 16 18 22 21 21 20 19 23 22 19 19 18 17 15 13 13 13 11 9 7 7 8 9 9 7 6 7 7 6 7 9 8 6 8 6 5 6 8 10
18 14 10 6 13 20 22 22 20 21 22 23 23 22 21 20 18 16 15 14 13 12 11 11 11 11 12 11 8 7 8 8 8 9 12 12 13 13 12 9 6 7 9
17 18 16 9 9 21 21 22 19 21 21 19 22 23 22 21 19 18 15 12 12 14 14 15 16 14 11 11 10 9 10 10 9 10 13 13 13 14 16 16 12 9 9
21 14 14 11 13 16 21 21 18 17 22 24 23 24 24 22 19 15 11 10 9 8 7 8 10 11 11 10 11 11 11 10 10 9 10 12 11 14 15 17 19 17 15
24 21 17 13 14 13 20 20 20 20 23 23 23 23 22 20 15 12 11 9 7 6 6 9 11 9 9 8 7 6 5 6 6 6 7 11 9 10 14 17 18 18 19
30 30 23 20 16 12 16 20 22 23 22 23 22 22 21 18 13 14 12 10 7 9 10 10 9 9 7 5 4 5 5 4 5 6 3 5 9 11 12 13 15 18 18
33 29 29 25 19 17 12 21 24 24 24 22 21 21 21 17 16 14 12 10 7 7 8 9 9 8 9 8 7 5 5 7 9 7 5 5 5 7 11 15 16 18 19
33 34 30 28 24 22 17 16 23 26 25 23 21 21 19 16 18 16 12 9 7 6 7 10 11 10 10 10 7 6 5 8 5 4 2 3 5 7 8 13 17 18 18
21 35 38 33 30 28 24 18 17 25 27 23 24 22 19 16 17 15 13 11 10 9 8 8 11 12 11 11 9 9 9 9 8 7 6 5 7 10 13 17 20 21 22
28 28 29 31 34 31 31 27 26 24 25 23 21 20 16 17 17 16 16 15 13 10 10 8 9 13 14 15 14 14 9 10 12 12 13 12 13 14 15 19 22 26 25
29 29 26 23 20 24 28 27 19 24 26 26 23 20 21 21 19 17 17 18 16 14 12 11 12 14 17 20 20 19 18 16 16 16 17 17 18 19 22 23 25 26 25
33 32 28 23 20 22 23 22 22 24 23 29 26 26 27 26 25 24 20 21 19 17 16 15 16 16 18 24 23 23 24 22 22 22 21 23 24 25 27 30 33 33 31
34 32 30 26 22 22 31 31 30 25 21 27 34 33 31 27 26 28 29 26 24 25 22 20 20 19 19 20 25 29 30 28 28 27 28 30 31 33 34 35 36 36 38
35 34 30 29 29 28 28 32 34 34 34 33 32 32 31 31 32 33 32 32 32 31 29 28 28 27 27 27 29 31 30 32 32 33 34 36 36 36 38 41 43 44 45
40 39 38 36 34 32 31 31 30 29 31 34 35 34 33 35 35 37 36 36 35 37 37 38 33 34 35 34 32 34 35 37 38 40 41 39 40 41 42 44 45 47 51
44 43 40 39 34 30 28 27 26 27 30 33 36 39 42 42 44 45 45 45 42 42 42 41 40 40 39 37 35 34 38 41 42 41 42 42 43 46 48 51 51 54 56
44 46 43 39 37 36 35 33 29 27 27 29 32 37 41 45 47 47 47 46 45 42 40 39 39 39 39 39 39 41 40 41 43 42 43 45 48 50 53 56 57 58 59
48 46 39 34 35 36 36 34 32 32 30 29 30 32 40 45 45 43 42 38 39 39 36 37 37 38 40 41 42 43 44 43 42 45 48 51 54 55 55 57 60 62 63

GFSMW_500_spd_039.txt.gz
Wind_Speed
2 4 15 17 20 15 16 20 21 24 22 20 20 19 16 14 13 10 9 8 8 8 10 11 14 15 17 17 17 15 14 14 13 13 13 12 12 11 10 10 11 11 11
3 1 9 18 20 21 19 21 25 24 24 23 23 21 16 14 12 10 9 8 6 8 9 11 13 14 15 17 16 17 14 14 15 12 12 14 13 12 11 11 11 9 10
5 2 5 16 19 23 20 21 24 24 23 23 22 20 17 15 12 11 10 9 7 5 8 9 11 11 12 14 15 13 10 10 11 12 11 10 8 8 8 6 6 6 6
3 2 2 12 19 25 25 24 26 25 23 23 23 23 21 18 14 12 11 10 8 4 7 7 9 8 9 11 11 11 11 13 12 12 11 10 8 9 9 7 9 10 10
4 5 4 8 21 27 24 25 27 26 25 25 25 22 18 14 12 10 11 11 9 6 5 6 6 7 7 7 8 8 8 10 12 11 10 9 8 9 13 13 13 12 12
10 3 5 10 17 27 25 26 26 25 26 26 23 21 19 16 13 12 12 11 9 5 3 5 5 6 7 8 7 6 6 7 7 8 9 9 8 9 14 17 14 12 12
13 6 6 13 15 21 26 24 26 26 26 25 22 20 18 16 13 13 12 10 10 7 3 2 1 2 3 5 7 8 8 7 6 7 8 9 10 9 9 11 14 13 11
11 12 9 12 19 21 24 24 25 28 27 26 23 21 18 17 15 15 14 12 9 8 7 6 4 5 4 3 3 5 8 9 8 6 8 11 12 11 9 10 11 12 13
16 16 8 14 19 22 26 23 22 26 30 28 26 22 19 18 18 18 16 14 12 10 9 9 9 9 8 6 5 5 7 7 8 9 8 10 12 14 12 9 10 10 12
23 19 17 17 18 23 27 27 25 22 24 27 26 23 21 21 21 18 17 16 14 12 12 13 13 13 11 10 8 7 8 8 7 7 7 7 8 11 13 13 11 8 8
32 23 19 20 14 24 26 27 26 24 20 23 26 26 24 23 21 19 18 16 14 13 14 15 14 14 14 13 11 10 10 8 8 7 6 5 4 6 7 10 9 7 7
25 27 26 21 18 18 26 27 27 25 23 24 25 26 26 24 21 20 17 14 12 11 13 15 16 17 15 15 14 12 11 10 8 7 4 5 4 3 3 4 5 6 5
25 27 28 29 23 14 27 28 28 26 27 28 26 27 26 24 23 21 18 15 12 10 9 11 14 14 13 14 12 9 9 9 7 4 4 0 2 4 6 8 8 8 10
34 27 34 29 23 17 25 28 28 26 27 29 28 28 27 26 24 22 19 17 15 13 13 13 12 11 9 8 7 7 6 4 6 6 5 2 1 2 4 5 8 11 13
40 36 33 29 25 22 19 26 29 27 26 25 26 27 28 27 25 22 21 18 16 16 16 14 12 10 10 9 9 8 8 10 10 8 6 2 2 4 6 7 10 11 12
44 35 32 26 31 25 20 18 27 28 29 27 27 28 27 26 24 24 20 19 18 16 16 15 15 13 12 12 12 10 10 11 9 6 4 4 4 5 7 11 12 13 14
32 33 27 25 29 23 19 13 23 28 30 31 31 27 26 26 27 25 22 19 17 15 13 13 15 16 16 16 15 15 13 13 11 9 8 6 8 10 14 17 18 19 20
22 25 26 24 22 21 20 18 19 22 30 33 30 29 28 28 29 25 21 20 17 14 13 12 15 18 18 20 19 17 16 16 17 15 15 14 16 18 20 21 22 21 21
28 27 29 30 30 27 23 22 24 23 22 32 30 27 26 28 27 23 22 22 20 19 16 16 16 15 18 22 23 22 19 17 17 18 18 19 20 21 23 25 26 27 26
33 28 25 23 23 28 29 27 27 21 19 20 28 28 30 31 28 26 25 25 25 24 23 20 16 16 15 18 19 24 26 23 22 22 23 22 21 24 27 30 31 31 32
32 25 25 28 26 26 27 30 26 21 17 23 29 33 34 34 32 33 30 29 29 28 26 23 20 19 18 20 21 20 21 23 25 26 26 27 27 31 34 35 37 38 41
34 28 25 27 30 29 30 26 25 28 27 26 31 31 34 35 33 34 35 32 32 31 31 29 28 27 26 27 28 27 25 25 26 27 29 30 34 37 40 40 42 44 45
33 29 27 26 29 32 32 34 30 30 33 35 34 30 32 36 38 36 35 38 39 35 34 34 33 31 33 33 35 34 33 33 32 33 35 36 38 41 43 45 47 47 47
37 33 29 27 28 28 32 34 36 37 39 41 43 43 43 44 45 45 45 45 44 44 47 41 43 43 42 41 41 38 39 41 39 38 36 38 41 42 42 44 47 49 50
41 37 35 33 33 31 31 30 30 34 39 42 46 46 45 45 47 49 52 53 51 48 46 45 48 49 49 50 49 47 43 43 43 42 42 43 43 42 44 46 49 51 54
46 46 44 44 43 41 38 32 31 30 29 32 39 42 46 49 51 52 54 56 54 52 53 52 52 51 50 48 45 45 45 45 45 46 46 46 45 46 48 50 52 54 56

GFSMW_500_spd_045.txt.gz
Wind_Speed
20 25 27 22 18 20 21 21 23 25 23 19 18 17 16 15 15 14 14 14 15 16 16 16 16 16 15 15 14 15 14 13 12 14 13 12 12 12 13 13 11 11 11
16 17 26 27 21 21 23 23 24 26 25 25 23 21 18 15 14 15 13 15 14 16 17 16 17 15 15 15 16 16 13 12 12 14 14 14 12 12 11 11 10 10 12
16 16 20 29 27 23 22 25 25 28 27 26 24 20 17 14 14 15 14 14 13 13 15 15 14 15 14 13 14 14 14 12 9 9 10 9 8 8 7 7 8 12 14
18 16 17 22 31 27 26 28 28 30 28 26 24 22 21 20 18 17 15 13 12 12 13 13 12 11 12 12 13 12 13 13 11 10 10 11 9 9 10 11 13 15 16
23 19 20 24 33 33 29 29 30 31 26 26 26 24 22 18 14 15 16 14 12 12 12 11 11 10 10 8 8 8 10 11 11 11 12 13 13 13 13 14 13 13 13
27 26 21 22 28 36 35 32 30 30 27 24 26 25 23 17 16 16 17 16 13 12 12 12 13 13 13 11 8 7 7 9 10 11 11 12 13 14 15 14 12 9 10
30 27 24 21 25 30 32 34 33 30 27 26 26 25 21 19 18 16 15 15 16 13 12 11 11 11 10 9 8 9 9 7 7 10 10 9 12 15 15 14 12 10 9
30 27 25 25 26 31 35 33 34 32 29 28 26 26 22 21 19 16 16 17 16 14 13 11 8 9 8 6 4 6 7 7 7 7 8 7 11 15 15 15 12 10 10
32 30 28 26 27 32 36 35 33 35 33 31 29 27 24 22 19 19 18 18 16 14 13 10 7 5 6 5 4 3 4 5 6 6 7 9 10 13 13 13 12 11 9
33 32 29 30 28 30 38 40 38 36 36 35 33 30 28 26 24 20 21 21 19 16 15 13 9 7 5 6 5 3 3 4 3 4 6 10 11 13 14 14 12 10 9
34 33 28 28 29 31 36 37 37 37 37 37 35 33 30 27 25 23 24 23 20 18 17 14 12 10 8 7 6 4 4 3 2 3 6 10 11 13 14 13 12 11 10
38 35 31 32 33 30 31 34 35 35 35 35 36 34 33 31 28 26 26 25 24 21 19 17 15 11 11 9 7 7 6 4 4 4 5 8 11 12 11 10 9 8 7
42 37 36 31 32 34 32 32 34 33 34 35 36 36 35 32 30 29 29 28 26 23 21 18 16 14 13 12 10 8 8 7 7 7 8 9 11 10 8 7 7 6 3
48 44 41 34 31 30 32 32 33 35 34 35 36 36 36 34 32 32 31 30 28 25 22 20 17 15 12 12 11 11 10 10 10 10 10 12 11 10 8 7 5 4 2
55 49 45 42 36 33 31 34 35 37 36 34 33 33 35 35 36 34 34 32 29 26 24 21 18 15 12 12 13 13 12 12 12 12 12 13 11 10 9 8 6 3 4
58 53 49 47 37 36 31 30 33 36 36 36 33 34 34 34 34 33 34 34 31 28 25 23 19 17 15 15 15 14 14 13 13 11 12 12 10 8 8 6 6 7 7
60 59 53 48 41 38 33 29 29 35 36 36 36 35 35 33 33 33 34 32 29 29 27 25 21 19 18 17 16 16 15 13 12 12 12 10 7 6 6 8 10 12 12
57 59 56 51 45 41 32 33 31 29 36 37 36 35 35 35 36 35 32 31 30 29 28 25 22 20 20 19 19 20 16 14 15 13 13 11 11 11 13 14 15 16 17
62 58 56 49 43 42 37 35 33 28 35 37 35 33 36 37 37 33 32 31 31 31 28 26 21 19 20 20 21 20 18 15 15 15 15 15 16 17 17 17 17 21 22
57 40 42 51 46 42 34 36 32 26 30 35 33 33 35 37 35 35 34 33 33 32 29 24 21 19 18 18 18 16 16 15 16 19 17 17 19 22 24 24 23 23 24
38 40 44 46 50 43 40 33 34 23 24 31 34 34 34 34 35 35 35 33 34 31 28 25 23 20 17 15 14 13 13 15 16 14 16 18 21 23 24 25 25 26 28
32 31 39 47 45 44 42 37 33 28 24 25 35 36 36 36 35 34 34 34 34 31 28 27 25 21 19 20 21 21 18 19 19 19 19 20 21 24 25 28 28 30 33
33 31 40 46 49 48 43 35 35 33 29 28 29 33 35 35 35 35 35 35 35 32 31 28 25 24 26 26 26 25 25 25 26 26 27 28 29 31 33 34 36 37 37
36 41 39 44 44 48 54 45 42 33 32 30 29 30 30 32 37 38 38 37 36 35 36 35 34 35 34 33 32 33 32 33 34 32 32 34 34 36 36 40 40 42 43
43 42 43 46 45 39 38 37 42 38 48 32 31 30 28 30 31 41 40 40 39 43 40 39 42 42 42 43 42 41 41 42 37 38 41 42 42 44 47 48 45 42 41
50 49 46 45 44 45 45 42 42 38 32 38 39 36 32 32 35 37 40 44 44 38 42 49 47 48 50 50 50 45 46 46 46 46 46 48 50 49 49 46 42 43 43

GFSMW_500_spd_048.txt.gz
Wind_Speed
25 23 22 21 21 22 22 24 26 25 22 19 18 18 16 14 12 12 12 13 17 17 19 19 17 15 14 12 11 11 12 13 11 11 10 11 12 12 12 11 10 10 11
21 25 25 23 21 23 22 23 26 25 24 23 22 20 18 15 14 13 12 14 17 18 18 19 17 15 14 12 11 11 12 12 10 10 10 10 12 11 10 9 8 11 13
20 24 27 26 23 24 23 24 26 27 26 24 22 20 18 16 16 14 13 14 16 17 17 18 17 16 14 13 11 11 11 11 9 7 7 7 8 8 6 5 9 13 14
17 18 25 31 26 25 27 28 28 30 27 25 22 22 22 21 18 17 15 14 15 15 14 14 14 14 12 11 11 10 9 8 8 7 7 6 5 5 6 10 13 14 14
19 19 22 27 35 31 29 30 30 31 28 25 24 25 23 19 16 17 16 15 14 14 14 13 12 11 11 10 8 9 8 6 7 9 9 7 9 9 11 13 13 13 12
22 23 24 27 34 37 33 34 32 32 30 27 25 25 24 20 18 18 17 16 14 14 13 13 12 11 10 9 8 8 7 8 9 10 10 9 8 9 11 10 11 10 11
31 28 25 22 25 33 33 34 34 33 30 27 26 25 23 19 20 19 17 16 15 13 14 13 12 10 11 11 10 8 6 7 8 8 9 10 9 9 10 9 8 8 8
34 33 29 28 27 31 36 34 35 34 33 29 27 27 24 21 19 19 19 18 16 14 13 12 10 9 8 7 8 7 8 7 6 5 6 8 11 11 11 9 8 7 6
37 34 31 29 27 31 36 37 36 37 35 33 31 30 26 23 21 20 20 18 17 16 15 13 10 8 7 5 5 6 6 6 5 5 5 7 10 12 12 10 8 8 6
39 37 35 31 28 30 35 42 41 38 38 36 35 33 29 27 26 22 19 19 19 18 16 15 12 8 7 6 4 5 6 5 5 5 7 9 10 11 12 11 10 8 6
42 38 34 31 31 31 36 40 43 43 42 39 37 35 31 30 29 24 23 20 19 19 17 16 13 11 9 8 8 7 7 7 6 5 8 11 11 12 13 13 11 9 9
44 41 37 35 33 31 31 38 44 43 41 40 39 37 34 33 31 27 24 23 22 21 20 18 16 14 12 12 11 10 9 8 8 7 9 13 14 14 15 15 13 11 9
47 46 43 39 34 30 29 32 40 42 42 41 40 38 36 35 32 30 27 24 24 24 23 21 18 17 16 15 14 13 10 10 10 9 10 14 15 15 15 14 12 10 8
53 50 47 41 36 32 31 32 37 43 43 43 41 40 38 35 33 32 30 27 25 26 25 24 21 18 17 16 14 14 13 13 12 10 12 14 17 15 14 12 10 7 5
56 52 47 44 37 34 31 33 36 41 43 42 42 40 39 38 37 35 32 30 28 27 27 27 23 19 17 15 15 16 14 14 13 11 11 15 16 15 14 10 8 5 3
61 56 51 48 43 39 33 30 30 35 39 40 38 39 41 40 39 36 34 32 30 30 29 28 25 21 19 17 18 16 15 14 13 12 12 14 14 14 12 8 6 5 6
65 60 55 51 46 43 36 33 30 28 32 35 38 38 38 39 39 38 37 34 31 33 31 30 27 24 21 19 18 18 16 14 14 11 12 14 12 10 9 7 5 7 8
66 64 60 55 50 44 39 37 32 31 27 32 37 37 36 34 33 35 35 34 33 33 33 31 29 27 23 21 20 18 17 16 13 12 12 12 11 10 9 8 6 6 9
68 66 63 58 55 50 44 38 34 32 29 27 31 36 36 35 35 32 32 33 34 33 32 31 30 26 25 21 20 19 17 17 15 14 14 15 14 13 13 11 10 12 14
64 67 65 60 59 53 46 41 37 32 30 27 24 32 36 36 34 34 35 36 36 33 33 32 30 27 24 21 19 17 17 18 17 17 16 14 14 15 17 17 19 19 21
62 64 64 63 59 55 51 46 40 35 33 31 30 30 33 36 35 36 39 38 35 34 33 31 29 27 26 22 20 18 18 22 21 19 18 17 18 21 24 24 23 21 23
55 62 61 61 57 61 55 47 44 39 34 35 28 28 32 35 35 36 37 36 36 34 33 31 29 28 26 23 20 19 21 23 22 20 20 21 21 21 21 20 22 25 28
49 58 62 54 54 56 52 50 47 45 52 31 30 28 33 34 33 33 34 35 35 33 32 31 30 29 27 22 20 19 20 20 20 21 21 22 23 24 25 27 30 32 32
40 39 43 48 53 56 59 56 56 55 47 36 36 26 28 35 34 33 34 34 33 32 32 32 31 31 30 28 26 24 25 26 27 27 28 29 30 32 32 33 36 36 37
35 37 41 49 52 52 60 60 56 52 46 41 38 31 29 34 35 35 36 35 34 35 35 34 34 36 35 33 32 33 34 35 33 33 34 34 36 36 35 37 40 42 45
44 42 39 41 51 60 54 58 56 49 42 43 42 37 34 35 38 42 40 36 32 33 36 38 39 40 39 40 41 41 41 43 41 40 39 41 42 42 44 45 43 44 44

GFSMW_500_spd_051.txt.gz
Wind_Speed
23 23 21 18 15 18 21 24 24 21 18 17 17 16 16 12 12 12 12 11 10 11 14 16 16 14 13 12 10 9 9 9 8 7 8 8 8 9 9 9 8 8 10
22 21 22 18 16 19 21 23 24 23 19 19 17 17 16 15 12 13 13 13 12 12 15 16 16 15 14 13 12 9 10 10 9 9 8 7 8 9 9 8 8 10 11
22 22 21 19 19 21 22 23 26 25 22 19 18 18 17 16 15 14 14 15 13 12 15 14 14 14 12 11 11 10 9 8 8 7 6 6 5 6 6 9 11 11 11
22 23 25 24 21 22 25 25 27 27 24 20 19 19 20 18 17 15 15 16 14 13 13 13 11 10 10 9 8 7 6 6 4 4 3 3 4 5 7 12 14 15 12
21 19 22 26 28 27 26 27 28 29 27 23 20 21 21 19 17 16 15 14 15 13 12 12 9 8 8 8 8 6 6 5 4 5 4 4 6 7 12 11 14 13 12
21 20 18 22 26 32 29 29 29 29 28 25 22 21 22 19 18 18 16 14 13 12 9 9 7 5 5 6 6 7 8 7 5 4 4 6 8 8 10 10 12 10 10
24 25 21 18 23 27 31 29 30 30 30 27 24 22 22 19 19 19 18 17 15 13 11 11 8 8 7 7 6 6 7 6 6 6 7 6 7 6 8 8 8 9 8
30 27 27 25 21 24 30 31 29 32 30 30 27 26 25 21 19 19 20 18 16 14 13 11 9 9 7 5 5 7 7 5 5 5 5 7 6 6 6 7 7 7 5
37 30 30 25 27 25 26 33 31 33 33 32 31 29 28 24 21 20 20 19 17 17 16 13 10 8 7 5 3 2 4 4 4 5 5 6 7 7 6 5 5 5 4
41 35 33 29 31 27 26 30 36 35 35 36 34 32 30 27 25 22 20 19 20 19 18 16 13 9 7 5 4 4 3 4 4 5 6 7 8 8 7 6 5 5 4
47 38 35 33 34 32 28 27 34 38 38 36 36 34 32 29 28 25 22 21 20 21 19 18 14 11 8 6 6 6 6 5 6 5 9 10 10 10 10 9 8 7 7
44 40 37 36 37 36 31 26 28 38 39 39 39 37 36 34 31 27 24 23 22 24 22 21 18 14 11 10 9 9 8 8 9 8 10 14 13 13 13 13 11 10 10
52 47 41 41 40 37 33 27 26 29 39 40 41 40 37 35 31 28 27 24 24 25 24 22 20 18 14 13 12 12 12 10 12 11 12 15 17 16 15 15 14 11 9
57 54 47 47 45 41 37 30 25 29 34 41 41 41 38 35 32 32 29 26 25 25 25 23 22 20 16 13 13 14 14 13 15 13 13 16 19 18 16 15 12 11 9
60 57 52 53 49 44 39 34 27 29 31 38 40 39 38 37 35 34 32 29 27 26 27 26 24 20 16 14 14 15 14 14 15 15 13 15 18 18 16 14 12 10 8
62 59 59 58 52 48 41 37 30 26 29 32 37 38 39 39 38 36 34 31 29 28 28 27 25 22 18 17 15 14 13 12 15 14 13 13 15 17 16 13 12 9 8
58 64 55 58 54 48 41 37 31 27 28 29 34 36 38 39 39 38 37 35 32 32 29 29 27 24 21 19 17 15 14 12 15 15 12 14 15 15 13 13 12 10 8
64 63 58 59 53 49 46 40 37 32 26 27 31 35 38 37 38 39 38 38 37 35 32 31 30 27 24 22 19 18 18 15 16 15 14 15 15 16 14 14 12 11 9
54 56 57 60 56 54 49 43 39 34 30 27 26 30 33 36 36 35 36 38 40 37 34 32 31 28 26 24 22 20 19 17 16 17 15 15 16 16 14 13 14 13 11
51 56 59 61 59 57 52 46 41 39 33 26 21 22 29 33 33 32 31 31 34 36 36 34 31 31 29 27 23 21 20 18 18 19 17 16 16 16 15 14 14 13 16
54 51 60 62 61 58 55 51 46 41 32 28 28 27 25 29 32 34 34 33 32 33 34 33 32 32 30 27 24 21 20 20 22 22 20 16 16 17 17 18 18 19 20
47 50 54 64 64 62 60 55 50 40 42 37 32 29 24 25 32 34 33 33 32 32 32 32 33 32 29 26 24 22 22 23 23 23 21 21 22 21 23 23 21 20 20
49 48 51 54 62 64 63 58 53 51 46 41 37 35 31 29 28 35 33 33 33 33 33 33 33 30 28 27 25 23 23 26 24 23 25 25 26 26 26 25 24 26 27
52 49 51 54 57 61 64 62 61 55 50 45 44 40 37 31 27 34 34 35 35 36 36 36 34 31 30 29 26 25 26 28 29 29 29 30 28 26 27 28 30 33 32
48 47 49 53 55 58 59 64 60 56 53 49 49 47 49 36 26 33 35 36 37 37 37 37 36 33 31 29 28 28 27 27 28 31 32 31 30 32 32 33 34 35 39
42 44 48 50 54 58 57 55 57 58 61 57 55 54 49 38 29 30 35 38 35 34 36 36 36 36 36 36 34 31 30 31 32 34 33 33 35 36 38 41 42 40 41

GFSMW_500_spd_054.txt.gz
Wind_Speed
12 15 16 17 14 12 16 19 19 16 15 15 13 12 10 8 9 9 10 11 11 13 7 10 9 12 7 9 9 7 7 8 8 6 6 8 8 8 9 9 10 11 12
9 10 16 17 15 15 17 20 22 18 17 14 14 13 12 9 9 9 9 10 13 13 12 12 10 10 9 8 9 9 9 9 10 9 9 7 7 7 7 10 11 11 12
7 10 15 16 18 16 18 20 24 21 17 16 14 15 13 11 10 10 11 10 13 12 13 12 12 10 8 8 8 8 8 8 8 8 9 9 7 7 7 11 13 12 14
8 8 14 17 18 18 19 20 25 25 20 16 16 16 15 13 11 10 9 11 12 13 13 12 11 9 8 7 6 5 5 5 5 5 6 6 5 8 11 10 14 15 15
10 7 14 18 20 21 20 22 22 25 23 19 18 17 16 15 13 12 11 11 11 10 11 10 9 8 7 6 4 5 3 3 4 6 6 8 10 11 14 12 12 14 15
14 12 13 16 17 19 22 22 23 24 25 22 19 18 18 17 16 14 12 12 11 10 8 6 6 6 6 6 6 5 4 4 4 4 7 9 13 13 12 10 11 10 11
17 20 17 12 11 14 21 22 23 24 25 24 21 20 20 18 18 17 15 13 11 10 9 7 6 8 9 9 8 5 4 3 4 4 6 9 10 12 12 8 7 7 9
24 22 21 21 14 10 12 23 23 25 25 24 23 23 22 21 20 18 16 14 12 10 11 8 7 9 9 8 8 5 4 2 4 4 4 6 6 8 8 8 6 7 7
30 29 27 22 21 18 14 14 27 27 27 27 26 24 23 22 21 19 19 17 15 14 12 10 8 7 6 5 5 4 3 1 1 4 4 4 6 6 5 6 4 5 5
47 36 34 25 22 22 21 16 19 29 29 30 28 27 26 24 23 21 20 20 18 16 14 12 9 8 6 4 2 3 2 1 1 4 6 6 8 7 5 4 4 4 3
23 35 42 27 25 25 26 20 17 27 30 30 29 29 28 26 25 23 21 20 20 18 17 15 12 10 9 6 4 2 2 3 4 4 7 9 9 9 9 7 6 6 6
51 45 33 35 27 25 25 24 19 19 30 31 33 31 30 30 27 25 23 23 22 21 21 19 17 15 12 9 6 5 4 4 6 6 8 11 11 11 10 10 8 9 8
46 40 26 20 23 30 25 26 22 19 20 31 33 34 32 31 28 27 26 23 23 22 22 21 20 19 16 12 9 7 6 7 9 10 9 12 13 14 14 12 10 10 9
39 49 46 39 30 31 30 27 25 23 22 24 34 35 33 33 30 28 28 26 25 24 23 23 22 22 18 14 12 10 8 8 10 11 12 13 16 16 16 15 13 12 10
40 44 46 55 22 32 35 32 30 27 23 23 27 34 35 34 33 31 30 28 27 25 24 24 24 22 19 17 15 13 9 8 10 13 13 14 16 18 18 16 14 13 12
33 35 47 47 42 43 36 36 33 29 25 23 21 30 36 35 34 33 33 32 28 28 26 23 24 23 20 19 17 14 11 8 9 13 15 15 15 17 19 18 16 15 14
49 47 51 44 44 41 37 40 35 32 27 24 24 24 34 35 33 34 34 32 30 30 26 24 24 23 23 22 19 16 12 10 11 13 14 15 16 18 19 20 19 18 16
57 57 57 60 49 25 50 35 37 34 27 25 24 23 25 31 32 32 31 33 32 31 30 28 26 26 26 24 23 19 15 13 11 14 15 17 18 19 19 18 18 18 16
52 58 57 59 57 62 42 36 39 34 31 25 20 20 22 25 29 29 29 31 32 33 32 32 30 28 28 28 25 23 18 16 15 15 16 18 19 21 21 18 18 18 17
51 55 59 61 58 49 45 45 35 34 33 26 19 20 21 24 26 27 29 31 31 32 34 35 35 33 32 31 28 25 21 18 19 17 19 19 20 22 21 20 19 17 19
62 57 56 54 54 52 50 49 41 40 32 30 29 25 23 23 25 29 31 32 31 31 32 33 36 36 34 33 32 28 25 22 23 21 24 24 24 23 22 20 19 18 20
36 53 50 51 52 54 53 50 48 42 38 38 34 30 26 26 26 26 28 32 33 32 29 30 32 35 35 35 34 30 27 27 26 25 27 28 25 23 22 22 23 21 19
66 51 53 55 51 51 53 52 52 49 46 42 38 34 33 29 27 27 26 31 34 34 32 32 31 31 32 34 32 30 29 30 27 26 27 29 28 27 27 27 24 22 23
62 60 55 55 52 51 53 53 55 54 51 48 43 41 36 34 32 29 26 26 33 36 35 33 33 32 33 33 32 32 30 30 27 27 28 29 30 30 29 28 28 29 29
75 66 55 60 57 55 54 56 58 57 54 50 48 46 42 37 37 32 30 28 28 34 36 35 36 37 36 34 33 32 31 29 28 30 31 31 31 31 32 33 33 33 33
68 68 62 57 52 53 54 54 57 58 59 54 52 49 47 41 38 37 33 28 26 30 35 35 37 36 35 35 35 35 34 35 36 37 38 38 38 36 35 35 35 36 36

GFSMW_500_spd_057.txt.gz
Wind_Speed
9 12 11 9 9 10 12 14 14 13 11 10 9 9 10 8 7 8 9 8 11 12 10 6 8 6 9 10 8 10 8 7 9 11 10 9 11 11 12 12 13 13 18
7 6 9 10 11 12 15 17 18 15 13 13 11 11 11 11 8 9 10 10 12 8 12 10 8 7 9 10 10 10 10 8 9 9 11 11 12 9 10 14 13 17 19
8 9 9 11 12 13 16 18 20 17 15 13 14 13 13 11 8 8 10 11 12 13 11 11 10 8 9 10 9 10 9 10 8 8 8 9 10 11 12 14 17 19 22
6 5 8 11 11 15 17 20 23 19 16 14 15 14 13 12 10 10 12 13 13 13 11 10 10 10 9 9 7 7 7 9 7 6 6 8 8 14 14 15 17 19 21
12 7 8 9 15 15 16 20 21 21 16 17 16 15 14 14 12 12 14 14 13 13 12 10 8 7 8 7 7 6 7 7 9 9 7 10 13 14 14 16 15 18 18
18 14 8 7 10 16 16 18 19 22 21 17 17 17 17 16 14 13 15 15 13 12 11 9 7 6 6 5 7 7 7 7 9 10 13 12 14 14 13 11 13 15 16
12 18 13 8 6 8 16 16 18 19 23 21 18 18 18 17 16 14 13 12 11 9 8 7 8 8 8 7 7 6 6 8 8 10 12 14 14 13 12 11 12 12 11
25 20 19 13 13 11 13 18 17 19 22 23 21 20 19 19 18 17 16 14 11 10 9 7 8 9 8 6 7 6 6 7 7 7 11 12 13 10 9 10 13 12 11
25 29 29 18 16 13 11 13 18 20 22 25 25 23 22 21 20 19 18 16 14 12 10 8 7 8 6 5 4 4 4 5 5 4 7 9 9 11 8 8 10 11 13
30 33 33 27 22 18 17 13 13 19 25 25 26 25 25 25 24 21 19 18 16 13 12 11 7 7 6 4 2 2 2 2 3 4 5 7 9 9 10 4 6 8 10
35 38 43 28 29 27 23 17 13 13 21 24 26 26 24 25 26 23 21 19 17 15 13 13 12 9 7 6 3 1 1 1 2 2 5 6 8 9 8 9 8 7 7
30 38 21 43 34 25 23 21 16 13 16 27 28 29 28 28 25 25 24 22 21 20 18 17 15 14 11 8 5 3 3 3 4 5 5 9 8 10 10 10 8 7 7
31 32 34 28 28 26 25 23 20 16 15 18 28 29 29 27 25 26 26 23 22 22 22 19 18 16 15 12 8 8 6 6 6 8 8 10 12 12 12 12 12 11 9
25 20 29 32 22 38 31 23 20 18 17 15 17 28 31 30 29 28 28 25 24 24 22 21 19 19 17 15 11 10 10 10 9 10 11 11 13 15 14 14 14 13 12
32 27 31 36 27 27 30 31 25 17 17 18 15 19 31 34 34 31 29 28 26 24 25 23 21 19 17 16 15 13 10 11 11 12 13 13 14 16 17 16 16 16 15
42 37 38 39 37 35 35 33 34 21 17 19 18 20 25 33 35 34 32 30 29 27 25 23 22 20 19 19 18 15 12 10 11 13 15 16 15 15 18 20 19 18 17
29 35 42 37 34 29 35 52 36 26 22 22 20 19 20 26 33 36 35 31 30 31 26 25 24 22 23 22 20 18 15 12 11 13 14 17 17 17 17 21 22 21 21
57 46 46 40 32 37 48 47 41 38 29 26 22 20 17 20 30 35 33 32 31 31 30 28 27 26 24 24 22 21 19 16 15 14 15 17 19 19 20 21 23 24 23
59 55 58 53 49 50 48 43 65 36 34 32 21 16 16 18 24 30 32 33 33 32 32 31 29 28 27 25 24 24 23 21 20 18 17 19 21 22 22 22 23 24 24
63 62 61 55 51 56 45 48 40 40 33 27 23 18 17 17 19 27 31 33 32 33 34 33 32 31 30 29 28 26 25 25 23 23 21 21 23 26 24 24 25 24 25
62 59 58 52 47 56 48 27 47 25 19 21 25 23 20 19 21 24 27 30 31 32 32 32 34 34 33 33 32 30 27 27 27 28 24 23 26 28 26 26 26 25 25
62 63 60 60 51 51 46 43 22 29 28 33 28 26 26 23 23 22 24 26 29 31 32 32 32 32 33 35 36 34 31 29 30 30 29 27 27 28 28 27 27 28 27
65 56 55 58 47 57 54 46 50 49 36 36 34 33 31 29 25 25 24 26 28 28 29 31 31 30 30 32 35 35 34 33 31 33 33 30 28 31 30 29 30 31 31
71 69 54 52 53 60 55 50 47 49 43 41 41 39 37 33 31 27 26 28 27 24 26 30 31 31 32 31 31 32 33 32 33 35 35 33 32 32 34 34 34 35 34
84 78 60 54 49 50 48 50 48 50 49 45 45 43 40 36 34 32 30 28 26 25 23 25 33 35 34 32 33 34 33 34 34 39 39 36 34 34 37 37 39 38 34
87 88 79 55 50 52 45 44 41 46 49 47 48 48 45 41 37 35 31 30 28 28 25 24 29 36 36 36 37 36 37 37 39 42 39 38 38 37 38 39 37 35 35

GFSMW_500_spd_060.txt.gz
Wind_Speed
11 13 17 13 13 11 11 13 18 18 14 12 12 11 12 11 9 6 9 10 8 9 9 10 9 11 10 11 12 11 13 9 11 12 12 9 10 11 14 14 16 16 16
10 10 15 14 14 15 14 15 16 17 15 13 11 10 10 12 10 6 8 10 11 10 11 11 9 11 11 12 12 11 12 10 9 10 11 9 9 11 12 14 15 18 21
19 16 15 14 15 16 14 16 18 17 14 14 9 9 9 9 9 6 9 10 9 9 12 12 11 11 10 11 11 12 11 11 10 10 9 10 9 13 13 15 17 19 21
10 17 21 17 15 15 17 18 21 20 15 16 13 11 10 10 10 8 8 9 11 9 11 10 10 10 8 9 9 9 9 10 11 9 9 11 13 13 14 15 17 17 19
13 11 19 19 19 17 16 20 22 21 19 14 14 12 8 11 12 11 11 10 11 9 10 10 9 8 8 7 8 6 10 10 12 14 11 14 17 15 13 13 13 15 18
11 11 18 22 19 18 16 19 22 23 20 18 16 15 13 12 13 13 13 13 11 10 9 8 9 7 7 6 7 7 8 9 10 15 16 15 17 17 13 11 10 9 13
8 13 12 16 16 16 16 17 21 25 24 20 18 16 14 12 13 14 15 13 11 9 6 7 8 8 8 7 6 7 8 8 12 12 16 19 18 16 13 14 13 11 12
18 19 15 17 19 20 21 18 20 22 26 24 21 20 17 14 13 15 15 15 14 10 7 6 9 8 7 7 7 7 7 8 10 12 13 14 14 16 15 13 15 14 14
21 22 23 21 21 22 25 25 23 23 24 28 26 23 23 19 16 15 15 15 13 11 9 8 8 6 6 6 5 5 5 5 7 9 11 13 14 14 15 11 11 15 16
20 18 28 21 19 18 23 30 30 26 25 26 29 27 25 25 23 18 16 14 13 12 11 9 8 7 5 4 4 3 3 3 4 6 7 10 11 12 14 14 12 12 15
12 16 24 25 24 20 19 21 26 31 28 25 27 30 28 25 25 22 20 17 14 13 13 12 9 8 7 4 1 1 1 1 2 5 6 7 9 10 10 12 14 13 13
21 16 18 24 29 29 24 23 22 22 29 29 29 29 30 29 27 26 23 20 19 17 16 15 14 11 9 7 5 2 2 3 4 5 7 9 9 9 11 11 12 12 11
20 21 20 29 30 34 28 29 27 25 25 32 32 30 31 30 28 27 27 25 23 22 20 19 18 16 15 13 10 8 5 5 7 8 8 10 12 12 12 12 12 12 11
33 28 30 29 21 32 44 38 33 28 24 23 29 31 29 30 31 31 30 29 26 24 23 22 22 20 19 17 14 12 9 6 7 10 11 12 13 15 14 14 14 14 13
37 36 33 26 27 37 36 39 35 33 26 21 21 26 32 32 33 34 33 31 30 27 26 25 22 22 21 19 18 16 13 9 8 10 13 15 15 16 17 18 17 17 17
41 44 34 22 25 31 33 37 35 33 32 27 21 23 24 30 32 33 34 33 31 30 28 26 26 23 20 20 20 19 16 13 11 12 13 16 18 18 18 21 21 21 20
45 42 35 32 30 21 32 44 45 40 35 34 26 23 21 21 25 34 36 35 33 32 29 28 26 24 23 23 22 22 20 18 15 13 13 14 18 20 19 20 23 24 23
45 48 42 42 38 33 37 43 43 40 39 35 32 28 23 22 23 31 37 36 36 33 31 30 28 27 26 25 24 25 24 22 19 17 16 15 17 20 22 21 21 25 27
45 47 48 48 44 40 37 41 45 46 43 37 34 33 29 27 26 26 35 38 37 36 33 32 32 29 29 28 27 26 25 25 24 22 19 19 19 22 24 24 23 24 27
44 42 54 49 47 51 47 44 35 42 45 33 36 34 31 30 28 27 32 39 39 38 38 36 34 33 32 33 31 29 27 25 25 26 24 24 24 26 27 26 28 25 28
57 52 56 51 58 60 48 50 38 35 44 46 45 39 35 32 30 30 33 38 39 38 39 37 36 35 34 33 33 32 29 27 28 28 28 29 29 29 29 28 29 28 31
70 63 59 63 66 63 56 53 41 38 38 53 53 50 39 35 34 32 31 33 36 36 36 36 35 34 34 35 35 35 33 32 31 29 32 34 34 33 32 29 29 32 32
79 77 70 69 61 63 62 57 40 40 42 34 52 59 41 34 31 31 29 33 34 35 36 35 34 35 36 37 37 38 37 38 36 34 35 39 41 38 33 30 32 33 33
90 75 73 79 72 74 70 61 49 42 41 35 37 44 44 41 36 32 31 32 31 30 30 30 32 34 36 35 36 35 38 40 39 37 37 41 43 41 35 33 33 35 36
90 87 78 73 71 81 70 59 58 50 49 47 34 44 48 38 41 41 38 32 28 26 25 23 28 32 34 34 38 39 39 39 39 41 42 41 42 41 38 37 36 39 41
83 93 87 85 85 80 67 75 68 58 57 50 53 45 46 44 46 44 40 36 32 29 27 27 26 26 26 32 38 40 41 42 43 41 39 39 41 42 41 40 41 42 45

GFSMW_500_spd_063.txt.gz
Wind_Speed
14 21 19 18 16 15 16 18 19 20 16 14 12 9 8 12 8 10 10 10 10 12 13 11 8 10 10 10 10 9 12 11 10 10 11 14 13 12 14 13 15 17 20
13 20 19 17 20 20 20 21 22 23 18 15 12 9 8 10 9 10 10 11 9 9 11 12 11 11 11 10 9 8 10 11 10 7 7 11 14 13 13 13 16 19 21
17 20 21 19 19 21 22 24 24 22 18 16 14 10 11 8 11 12 12 12 10 10 10 13 11 11 11 11 10 10 9 11 10 9 6 7 13 13 13 13 16 18 20
12 16 21 21 20 22 24 26 25 22 20 17 17 15 11 10 11 12 13 12 11 12 8 10 12 11 11 12 10 9 10 9 11 10 8 9 13 13 13 13 14 14 19
18 18 21 21 24 21 23 27 27 24 21 21 19 16 12 11 11 13 14 13 12 11 10 8 8 9 7 8 10 9 11 8 10 12 10 12 14 13 12 11 11 10 17
21 20 24 22 20 21 21 25 26 23 21 20 18 16 15 14 13 14 14 13 12 11 9 7 6 8 7 9 10 11 11 9 10 14 15 13 14 12 10 10 9 9 16
20 19 20 19 18 18 18 23 26 23 21 20 19 17 17 15 14 13 14 14 14 12 9 7 7 7 8 7 9 9 12 11 11 15 19 17 15 14 12 11 10 14 16
25 17 18 20 21 22 22 21 24 27 24 22 22 21 18 17 15 15 15 13 13 13 11 9 8 10 9 9 9 8 10 12 12 14 15 17 17 15 14 13 12 16 17
25 22 19 18 21 24 26 24 25 28 28 24 23 23 20 18 18 18 16 13 11 11 12 12 12 10 9 9 9 8 7 9 12 14 13 11 10 12 13 11 13 15 16
24 23 23 17 17 24 28 25 25 26 29 30 26 24 24 22 21 20 18 16 15 13 11 12 12 11 9 7 7 7 6 6 9 12 14 14 13 12 12 11 12 14 14
20 22 31 28 25 23 23 25 26 25 24 27 30 27 25 25 23 20 18 16 15 13 14 13 11 10 11 8 5 5 4 4 4 8 13 13 12 12 13 13 13 14 14
28 27 23 30 28 29 27 23 23 28 28 28 30 31 30 28 27 24 22 19 17 16 16 14 13 12 11 9 7 4 3 3 3 5 8 13 14 14 13 13 12 12 12
35 36 31 32 33 33 35 29 27 27 33 35 33 31 32 32 30 28 27 24 22 20 18 18 17 16 13 11 9 6 4 3 4 5 7 9 13 15 15 15 15 14 13
39 37 34 34 35 38 40 36 32 30 30 34 38 35 33 33 34 32 31 29 26 25 23 22 21 19 17 15 12 10 9 7 6 7 8 10 11 14 16 17 17 17 17
43 41 39 40 39 39 43 40 41 38 36 33 34 38 39 37 36 37 35 33 31 28 26 25 25 23 21 19 17 16 14 12 9 9 9 12 13 14 17 18 19 20 21
49 47 46 42 42 40 42 47 45 41 36 37 34 35 43 43 41 39 39 38 35 33 31 28 27 26 24 23 21 20 20 18 14 12 11 12 13 15 17 20 22 22 23
55 51 51 46 50 39 39 48 43 45 42 41 39 37 36 43 44 43 43 41 38 36 33 31 29 26 25 25 24 24 22 20 19 16 14 14 14 16 18 20 21 23 25
57 55 54 50 44 25 23 36 40 48 47 44 43 41 37 36 43 45 44 43 42 39 37 35 33 31 28 27 26 26 24 22 22 20 18 18 17 17 18 20 21 22 24
59 60 57 52 48 39 33 35 33 46 44 43 44 45 41 38 39 40 42 44 45 43 39 39 38 34 32 31 29 28 25 24 24 24 24 22 21 21 20 19 20 23 24
62 61 62 59 57 51 40 41 36 40 54 53 45 43 44 41 39 38 37 40 46 46 45 43 40 37 37 36 34 33 30 27 26 26 26 26 25 27 26 23 23 22 26
61 65 66 65 63 58 49 51 43 40 48 50 46 47 44 44 40 40 40 39 42 50 49 47 44 41 39 39 37 36 32 29 28 28 28 28 30 31 32 29 25 25 30
71 67 68 69 64 61 54 52 48 46 45 47 47 51 49 48 46 43 42 41 41 44 51 51 47 43 40 39 38 37 34 33 31 30 32 31 33 35 36 35 30 29 32
77 79 70 72 70 62 57 56 54 57 39 36 36 47 52 50 43 41 41 41 42 41 47 50 45 42 42 41 40 40 39 39 36 35 36 38 38 38 37 37 36 34 33
80 83 83 77 75 72 66 64 64 60 57 46 41 39 41 52 55 45 46 43 43 39 40 45 43 43 44 43 42 42 43 44 42 40 41 42 43 41 40 40 40 38 37
83 83 91 87 86 75 76 76 75 66 59 55 48 44 55 51 54 54 50 45 40 38 37 40 42 42 43 42 42 43 43 44 44 46 46 44 42 43 42 42 43 43 41
85 86 85 93 86 82 70 78 75 69 61 56 52 50 55 60 68 67 55 48 42 37 34 37 39 39 43 43 43 42 41 43 46 46 42 39 37 37 40 43 44 44 42

GFSMW_500_spd_066.txt.gz
Wind_Speed
16 17 16 19 19 20 20 19 20 19 17 17 13 11 15 14 12 12 11 12 11 10 10 9 10 11 10 10 10 12 12 13 15 15 12 13 15 13 13 12 14 17 17
14 19 16 19 20 22 22 21 23 21 16 15 12 11 13 15 14 12 13 13 13 10 9 8 9 8 8 8 10 9 10 9 12 13 12 11 14 14 13 13 17 17 19
17 21 19 20 21 20 19 22 25 23 17 14 14 13 15 16 17 14 13 10 12 13 10 10 11 10 8 8 9 10 10 10 9 11 10 12 13 14 14 15 16 18 20
17 20 20 20 21 21 19 22 25 23 19 17 16 15 13 14 16 15 14 11 10 13 12 10 11 11 9 9 9 9 11 11 9 10 11 13 13 13 14 14 15 18 19
18 23 24 23 24 22 22 22 25 22 20 18 17 14 12 15 15 16 15 15 13 13 13 12 10 10 9 8 9 9 10 12 12 10 13 13 13 14 13 12 14 19 17
16 18 23 22 25 24 23 24 25 24 23 21 17 15 14 15 16 18 17 17 16 14 13 13 10 9 9 10 9 9 10 11 12 12 15 13 13 12 12 12 13 16 13
22 15 20 21 23 21 19 23 26 23 23 23 20 18 16 16 17 17 17 18 17 16 14 12 11 10 10 11 10 10 11 12 12 14 16 15 14 13 11 12 12 14 12
28 18 21 20 22 24 23 24 26 26 23 23 22 20 18 17 16 18 18 16 16 14 13 13 12 12 12 12 11 10 12 15 15 14 14 16 14 14 11 10 12 15 12
30 22 19 21 23 25 25 23 27 28 27 25 23 22 20 18 19 20 19 17 16 14 13 14 13 12 11 12 11 12 12 14 16 15 14 11 13 13 12 10 12 14 14
32 29 26 24 24 28 28 26 28 30 32 30 26 25 23 21 20 19 18 18 16 15 13 14 13 12 12 11 11 11 12 13 14 15 15 12 11 12 12 12 13 16 15
32 32 27 30 28 31 31 30 28 30 32 31 28 27 26 25 23 20 18 16 15 14 15 16 15 12 10 11 11 10 10 11 13 16 17 16 14 14 14 14 14 14 15
35 31 33 32 34 31 32 32 33 31 33 36 35 30 29 27 25 22 20 17 17 15 15 15 14 14 12 10 9 9 9 9 10 12 15 17 17 16 15 15 15 15 16
42 35 39 38 36 37 35 36 36 38 38 37 37 36 33 30 28 27 26 23 20 17 16 16 16 15 15 12 10 9 9 8 7 8 10 14 17 18 18 17 17 17 17
42 44 42 39 39 40 38 34 33 35 40 38 38 38 37 35 34 33 31 28 26 23 21 20 19 19 16 14 12 11 10 8 7 6 7 10 13 17 19 20 20 21 20
41 48 47 44 39 42 43 42 40 35 33 35 39 36 37 38 38 38 36 34 31 28 27 25 23 22 20 18 16 15 14 13 9 7 8 9 11 12 16 19 22 22 23
47 49 47 47 43 43 44 45 42 37 36 35 33 35 38 38 39 40 40 39 36 34 32 29 28 27 24 23 21 20 19 19 15 13 12 11 11 13 15 17 20 22 23
49 54 53 47 46 44 42 41 39 38 43 41 37 35 34 37 41 42 43 42 40 39 37 36 33 30 29 28 26 24 24 22 20 20 17 14 14 14 15 17 18 18 21
58 58 60 53 50 46 45 44 43 44 48 50 48 46 44 40 40 45 45 44 44 42 40 40 38 35 32 31 29 28 27 26 24 22 22 19 18 17 16 15 16 18 18
62 63 61 59 57 50 49 49 45 52 49 52 55 51 47 42 40 38 44 48 48 46 44 42 41 39 37 35 33 33 30 27 26 26 25 23 22 21 20 17 16 16 19
68 68 65 63 63 60 53 56 49 56 53 56 53 54 51 46 41 41 41 46 49 49 49 45 42 41 40 40 39 38 34 31 27 28 27 27 26 27 26 23 23 19 22
67 67 72 68 66 65 59 57 59 46 39 52 51 52 49 46 45 44 42 41 43 48 49 50 46 44 43 44 44 43 39 33 31 30 28 28 30 30 30 29 26 24 27
72 71 71 74 70 66 65 58 59 39 41 43 46 52 51 52 48 46 43 42 41 41 43 46 49 48 46 45 46 45 42 38 35 32 33 33 33 33 34 33 30 29 30
80 77 74 75 72 69 67 67 61 53 51 47 45 47 54 56 51 51 47 46 44 43 43 42 43 49 51 49 48 47 44 42 39 37 36 37 39 40 37 34 34 34 33
85 83 81 77 76 72 71 71 71 63 62 57 55 46 43 58 54 51 50 51 45 43 43 43 43 45 50 51 50 48 49 47 45 43 43 43 42 43 40 38 37 38 39
94 88 84 81 81 79 76 75 74 73 70 67 65 56 56 61 49 55 56 54 47 45 43 41 43 45 45 47 52 53 52 51 48 48 46 44 43 44 43 41 41 43 44
93 96 89 85 84 86 84 78 77 80 77 71 65 58 51 47 45 45 53 62 57 50 43 45 45 43 41 46 51 52 51 51 51 50 46 45 46 46 44 42 39 41 43

GFSMW_500_spd_069.txt.gz
Wind_Speed
12 11 16 17 15 15 16 16 17 20 18 17 11 10 13 15 14 14 11 12 9 9 9 9 11 10 11 12 12 14 14 13 13 15 15 15 14 13 13 14 16 15 16
13 11 13 17 17 17 18 18 18 20 18 16 12 12 14 15 16 14 12 11 10 7 7 9 10 11 11 11 10 11 13 13 12 12 14 13 13 13 14 16 15 18 20
16 15 15 20 19 19 19 21 21 21 18 16 15 15 16 16 17 15 13 11 10 8 7 9 10 10 11 11 11 10 10 11 9 11 12 13 13 13 14 16 19 20 20
15 19 17 21 21 22 23 23 23 22 18 17 18 17 15 15 16 16 15 13 11 10 10 9 8 8 9 10 11 11 10 11 12 10 12 12 13 14 14 14 19 20 18
16 19 17 21 22 20 23 25 24 22 19 18 17 16 16 17 18 19 16 16 13 12 10 10 9 9 8 8 10 12 11 11 11 12 13 13 13 14 13 14 19 18 16
18 20 19 20 22 22 22 24 26 25 21 19 17 17 17 19 18 20 17 16 15 14 13 11 10 9 9 8 7 11 12 11 11 13 14 13 12 13 12 14 19 16 13
21 22 20 19 21 20 20 22 26 27 25 21 18 18 18 18 19 18 18 17 16 14 13 11 10 9 9 9 9 11 12 13 11 14 16 16 16 12 12 15 18 15 13
23 24 22 23 22 23 22 24 24 27 26 24 21 19 18 18 19 19 19 18 17 16 14 12 9 10 10 10 9 10 12 13 14 15 16 15 14 14 12 13 17 14 12
22 28 25 23 24 25 25 26 26 28 28 27 25 22 21 20 21 21 20 19 17 16 15 14 13 11 11 12 10 11 12 14 16 15 14 14 13 12 12 12 17 15 12
23 26 24 24 25 27 30 30 32 32 32 29 28 27 27 24 22 20 21 20 19 16 15 15 14 13 12 11 12 11 13 14 16 17 16 12 11 12 12 11 14 15 12
24 27 21 26 28 30 32 34 34 35 36 34 30 28 28 26 24 23 21 21 20 18 17 16 15 12 10 9 9 11 12 14 16 17 17 16 14 12 12 13 13 13 13
24 28 31 25 29 31 33 35 37 37 39 39 36 32 32 29 27 25 23 22 21 20 17 18 17 15 13 10 7 8 10 12 14 16 17 16 15 15 15 14 13 13 14
29 29 35 27 27 31 33 36 38 37 38 41 40 35 33 33 30 29 27 24 22 21 20 19 18 18 16 13 10 8 7 8 10 13 16 17 16 17 17 17 16 16 16
35 35 32 29 38 34 34 35 37 39 39 38 39 38 35 35 34 33 32 30 27 24 22 22 21 20 18 16 13 12 10 9 8 9 10 14 16 18 18 18 19 19 19
40 40 40 39 37 37 35 37 37 38 38 40 38 36 38 37 35 36 35 33 30 28 27 25 23 22 20 19 17 17 15 14 12 9 9 10 11 13 16 19 20 21 22
41 43 44 45 46 44 40 38 39 40 40 40 39 39 41 40 41 39 38 36 34 33 31 27 26 24 22 22 22 21 19 18 16 14 12 11 10 10 13 15 18 20 22
43 44 43 45 50 51 48 42 43 46 50 48 40 41 43 42 40 42 42 40 38 38 35 33 31 28 27 26 26 25 24 22 22 21 18 16 14 13 12 12 14 16 19
48 47 47 47 49 52 53 50 47 52 50 48 44 39 39 39 43 44 42 42 43 42 40 38 36 34 32 31 30 30 28 28 26 24 24 22 20 18 16 14 13 14 15
52 52 52 52 52 54 56 52 48 50 47 36 40 40 43 40 39 39 43 46 45 44 44 43 41 38 37 37 35 35 33 31 30 28 27 25 25 24 22 20 18 17 17
56 58 58 58 59 59 60 59 56 52 51 50 48 45 50 47 45 44 42 43 45 46 46 44 43 41 39 39 40 39 37 34 31 30 29 27 26 28 29 26 24 21 24
62 60 66 67 65 65 65 65 63 60 59 57 61 50 52 51 49 53 50 48 47 44 46 46 44 42 40 41 41 41 40 36 34 33 31 29 29 31 33 31 27 25 30
69 69 66 71 74 71 70 69 68 68 64 62 58 54 50 46 48 52 54 52 48 44 41 43 46 45 44 43 43 45 43 41 39 35 34 33 34 34 34 33 30 29 31
72 75 75 72 73 80 78 76 74 72 68 67 64 58 55 45 55 57 59 54 50 46 44 40 40 42 46 47 46 46 46 46 44 41 38 38 37 38 38 34 34 34 32
73 80 80 81 78 77 82 81 80 78 74 69 67 61 56 54 58 62 61 57 54 48 45 42 40 39 39 39 42 45 49 49 49 47 44 42 41 41 40 38 37 36 35
63 67 78 85 85 83 82 84 87 85 81 76 73 67 61 52 54 62 61 57 55 51 47 45 44 44 39 37 43 43 43 46 50 53 51 46 40 40 41 42 41 41 40
56 56 58 69 87 90 88 87 87 87 86 82 75 71 66 60 62 55 55 56 58 57 53 49 48 45 41 41 41 44 43 45 46 49 49 46 44 43 44 44 45 45 41

GFSMW_500_spd_072.txt.gz
Wind_Speed
11 11 16 17 15 16 16 17 18 17 16 14 10 8 11 13 13 10 10 10 11 10 7 8 9 10 9 11 12 11 10 11 13 13 12 13 13 13 16 16 16 15 16
12 11 17 17 18 17 18 18 17 19 15 12 9 8 12 15 13 12 9 10 10 8 8 6 8 10 9 9 11 12 11 11 12 12 12 13 12 13 14 15 17 17 19
15 14 19 20 17 18 20 20 19 19 17 14 12 12 15 16 15 13 13 10 10 8 6 8 8 9 10 9 10 10 11 11 12 11 12 13 13 14 13 15 17 19 21
16 13 18 20 19 19 20 21 21 20 19 18 16 14 14 13 15 14 12 12 9 8 7 8 9 9 9 9 9 10 10 9 11 13 12 13 14 13 14 17 18 19 17
14 12 17 22 23 20 19 22 22 22 21 19 17 15 15 15 15 16 13 12 11 10 8 8 9 8 9 9 9 9 10 10 9 13 13 13 14 13 12 18 20 17 16
15 16 16 22 23 20 19 20 22 24 23 20 18 16 15 16 16 17 16 15 14 12 11 9 8 8 6 6 8 9 10 11 9 12 14 13 14 13 14 19 17 15 14
14 17 16 18 22 20 19 20 22 25 25 21 18 17 17 17 16 17 18 17 15 13 13 12 8 7 7 6 8 10 10 10 10 13 13 13 15 12 14 19 16 14 13
17 17 20 21 23 23 21 22 24 27 27 25 21 18 19 18 18 18 18 16 16 14 13 12 12 9 9 8 8 9 10 11 11 14 15 12 13 12 12 18 16 15 14
22 23 23 25 25 25 23 23 25 27 30 28 23 21 21 20 20 20 20 18 17 16 15 13 12 12 10 10 10 8 10 12 12 12 12 11 11 10 12 17 16 14 12
21 27 27 26 27 28 28 28 29 29 33 33 29 26 25 22 20 20 21 21 19 17 17 16 12 11 12 11 9 10 11 13 13 13 13 10 8 9 11 14 14 13 11
24 26 30 30 27 31 31 31 31 32 34 32 30 28 27 26 24 23 22 22 22 20 18 17 16 13 13 12 11 11 11 13 14 14 13 12 10 9 9 10 12 12 11
25 30 36 28 27 30 32 31 32 32 34 35 35 32 32 29 26 26 25 24 24 22 19 19 18 16 15 14 14 13 12 12 14 16 16 14 13 12 11 11 11 11 11
30 28 27 23 27 26 26 28 30 32 33 35 38 36 32 30 28 29 28 27 27 25 22 20 21 19 17 15 13 13 12 12 13 14 17 17 16 15 14 14 13 14 14
33 32 31 30 29 32 28 30 31 31 32 33 36 37 35 33 32 31 30 28 28 27 24 23 22 22 19 18 16 14 13 12 12 12 14 16 17 17 16 16 17 16 17
39 37 36 35 33 37 37 33 34 35 35 34 34 35 38 37 35 34 32 31 29 29 28 26 23 22 21 20 18 17 15 14 12 12 11 13 14 16 18 19 19 19 20
45 44 43 42 41 38 37 34 34 43 39 38 38 39 39 41 41 37 35 35 33 31 30 27 26 24 23 22 21 20 18 17 16 15 13 12 11 12 14 16 18 19 21
45 47 48 47 46 44 42 43 41 36 32 41 39 41 41 42 45 45 42 39 37 36 34 32 29 27 26 25 25 24 23 21 19 18 17 16 15 14 13 13 13 15 18
47 48 48 49 49 51 49 46 46 44 41 37 41 45 46 46 47 48 46 44 42 40 37 37 35 33 31 30 29 28 26 24 22 21 20 21 21 20 18 18 16 16 15
52 51 50 50 50 50 51 50 46 48 48 47 45 51 51 56 51 50 44 43 44 43 42 41 39 37 36 35 35 34 30 27 26 26 26 24 24 24 25 23 21 20 20
56 56 56 56 55 53 53 54 52 50 51 52 52 51 45 55 53 53 48 47 47 45 42 42 41 39 38 40 39 38 36 32 28 29 28 28 26 27 29 28 27 24 26
59 60 60 61 60 59 58 57 57 56 54 54 53 55 52 49 43 49 44 44 43 43 42 42 43 41 39 40 41 42 40 35 34 34 33 30 28 30 31 32 29 26 30
59 61 62 64 65 65 64 63 62 60 60 59 59 59 57 50 48 45 47 46 46 45 42 41 39 38 41 42 42 44 44 41 38 36 35 34 34 33 34 34 30 29 31
58 59 63 66 67 70 71 70 69 67 65 64 64 63 61 59 59 55 52 50 51 50 49 46 43 38 39 41 45 45 46 46 43 40 39 38 37 37 37 37 33 33 32
57 60 63 66 68 71 73 75 75 74 72 71 68 68 67 64 63 59 56 50 44 46 52 53 48 41 42 40 41 45 47 47 45 44 45 44 41 38 37 39 38 36 34
59 62 65 67 69 72 74 77 79 80 79 77 77 74 72 69 68 61 60 55 50 49 51 51 51 48 45 42 42 41 42 43 43 43 44 46 44 41 39 39 39 39 39
55 56 58 63 67 69 72 78 80 82 85 85 83 82 80 77 75 72 65 62 56 57 50 54 51 51 48 45 43 43 41 41 42 40 37 37 37 40 42 41 42 42 42

GFSMW_500_spd_075.txt.gz
Wind_Speed
14 13 15 16 15 15 14 15 15 16 15 11 8 6 7 9 9 8 7 8 7 6 7 8 8 8 7 5 7 8 9 9 10 12 14 14 14 15 15 15 14 17 21
13 12 14 16 17 15 15 17 17 17 14 10 9 8 8 11 9 8 6 8 7 7 7 8 8 8 9 7 6 7 7 8 9 9 10 14 15 14 13 13 16 19 21
17 15 16 17 17 16 17 18 20 18 14 12 11 10 9 9 12 10 9 8 6 6 5 7 8 7 7 8 8 8 7 8 9 10 11 10 13 15 15 15 17 20 19
16 15 18 19 20 20 17 18 19 18 17 14 13 9 9 10 11 10 9 9 6 5 4 6 6 7 7 7 8 9 8 7 9 10 12 11 11 8 18 18 19 18 16
15 14 16 19 20 20 18 18 19 18 18 16 14 10 11 12 15 11 10 9 7 6 6 7 7 8 8 7 7 9 8 6 9 11 12 12 11 13 9 20 19 15 13
14 13 12 19 20 20 20 19 19 20 19 17 16 14 12 12 13 12 12 9 7 7 7 9 9 8 8 7 7 8 8 8 7 12 12 11 9 13 17 16 14 13 12
13 15 17 16 20 19 19 20 19 20 20 20 18 16 14 14 13 15 14 10 9 8 8 8 8 10 9 8 8 8 8 8 8 11 12 12 9 11 16 16 17 13 12
13 12 15 18 21 22 20 20 20 21 23 23 21 18 16 16 15 15 15 14 12 12 10 9 7 8 10 8 7 8 8 10 9 11 12 11 8 9 16 16 15 14 13
20 19 17 17 21 23 23 23 23 22 24 26 23 20 19 18 16 15 16 16 13 9 12 11 9 8 8 10 10 10 10 10 10 11 11 9 9 9 16 18 14 11 9
25 31 24 20 21 24 26 26 26 26 26 28 27 23 22 20 18 16 16 18 16 15 11 13 11 10 10 9 10 11 12 11 10 10 11 10 7 9 12 16 15 13 11
29 26 24 25 24 26 29 29 29 29 29 28 30 27 24 23 22 19 18 18 19 18 17 16 14 11 12 11 11 12 12 12 12 12 12 11 10 9 9 11 13 13 13
28 26 27 25 28 26 25 26 31 30 30 30 31 31 29 26 24 22 20 19 20 20 19 17 15 14 13 12 12 12 13 12 13 13 13 12 11 10 11 12 11 11 12
33 29 26 31 36 33 29 27 29 32 32 30 29 31 31 27 26 26 23 21 20 21 21 19 18 17 15 14 13 13 12 13 14 15 15 14 13 12 12 11 11 12 12
38 36 35 35 32 26 36 24 26 28 27 26 26 28 31 30 27 28 26 24 22 22 22 22 19 19 18 16 14 14 13 13 14 14 14 14 15 14 14 14 13 14 14
40 38 37 35 31 26 21 31 27 29 30 28 28 28 29 32 32 29 27 27 26 24 25 24 21 19 20 19 18 16 15 13 12 12 13 15 15 16 16 17 17 17 17
44 42 40 39 36 37 32 29 24 32 34 32 30 33 32 32 33 35 34 32 30 28 27 26 24 22 20 20 21 20 18 16 14 12 11 10 10 13 15 16 17 18 20
47 48 47 45 43 41 40 38 36 41 34 33 37 39 37 36 36 37 39 37 35 35 33 31 29 27 25 24 24 23 21 20 18 17 16 14 13 13 13 14 13 13 15
46 48 49 49 49 48 47 46 44 44 45 34 32 34 43 39 38 37 38 40 40 37 37 36 35 33 31 30 28 29 27 25 24 22 21 19 18 18 18 18 17 17 15
49 49 49 50 52 53 51 50 49 48 45 43 39 39 31 41 40 38 38 38 41 42 40 39 39 36 34 34 33 33 32 28 26 25 25 23 23 23 23 23 22 23 21
50 51 51 52 52 52 53 54 54 54 52 50 48 44 44 38 39 46 43 43 43 44 46 45 44 43 39 39 38 38 37 33 30 30 29 28 27 28 29 27 28 25 27
55 55 56 56 56 55 55 56 56 55 54 53 52 50 48 46 45 44 36 45 42 49 48 47 48 48 46 43 43 43 42 39 36 35 33 32 32 32 32 31 29 26 30
58 59 60 61 61 61 61 60 59 58 56 56 56 54 52 52 52 51 47 43 42 52 55 53 49 48 46 45 44 44 45 43 42 39 38 38 39 37 37 36 31 30 31
55 59 60 62 64 66 66 65 65 64 62 61 59 59 58 56 55 53 50 46 41 38 39 47 48 46 46 44 46 45 45 45 46 43 41 42 42 41 40 39 37 35 33
50 52 55 58 62 65 67 69 70 71 70 68 66 65 63 62 60 57 55 54 51 48 51 48 52 50 47 41 41 43 44 45 47 44 43 44 46 45 42 39 39 40 38
52 54 56 57 59 62 64 68 70 73 73 74 73 71 70 68 66 65 62 59 59 55 58 51 45 49 45 46 47 47 46 45 42 42 44 46 45 44 43 42 41 42 42
52 52 53 55 57 60 63 66 68 70 73 75 76 76 76 75 74 71 68 67 64 63 62 57 53 47 45 52 53 55 48 45 41 37 37 36 39 40 40 41 44 45 44

GFSMW_500_spd_078.txt.gz
Wind_Speed
16 16 13 13 14 14 13 13 12 12 11 8 5 4 5 6 7 5 5 6 4 6 4 5 6 7 8 9 9 8 10 12 13 14 14 16 19 18 18 14 15 19 19
18 15 14 13 15 15 14 14 12 12 11 8 6 5 5 8 6 6 4 4 3 4 5 5 5 6 9 9 8 8 9 9 11 12 10 12 17 17 16 16 16 19 18
20 17 14 14 16 16 15 14 14 12 12 10 8 3 2 6 4 5 2 3 3 2 1 4 5 6 6 8 8 7 8 9 9 11 14 8 11 17 16 18 16 18 16
15 17 14 12 16 17 16 15 14 13 13 11 8 5 8 10 9 5 4 4 1 2 2 4 6 6 6 7 9 7 7 9 9 10 11 12 12 12 14 19 18 16 14
15 15 13 10 13 17 18 17 15 14 14 12 9 7 9 9 6 8 5 3 3 1 1 2 4 4 6 6 7 8 7 7 7 8 11 8 9 12 16 19 19 15 11
16 15 14 13 14 15 16 17 16 17 17 15 12 10 9 9 3 8 7 4 5 3 3 3 4 4 3 5 6 6 8 8 10 10 9 7 5 12 10 15 14 12 10
16 14 15 11 12 15 16 18 18 18 18 17 14 13 11 11 11 10 10 7 5 6 4 5 5 3 3 4 5 6 6 9 9 9 9 9 5 11 12 14 14 12 10
22 25 21 17 17 17 18 19 19 20 20 20 17 14 14 14 13 12 9 8 7 11 9 8 7 6 5 4 4 6 7 8 9 12 11 11 9 13 15 10 10 9 9
30 31 26 21 22 16 18 20 21 22 23 22 20 16 15 15 14 10 7 13 16 13 8 7 7 6 6 7 6 7 7 9 9 11 11 11 12 8 15 16 12 7 5
32 30 31 19 23 20 19 20 23 22 24 25 23 19 16 16 15 14 14 16 16 12 16 11 7 6 5 7 7 6 8 8 10 10 10 9 8 9 13 15 13 12 11
30 30 35 30 23 22 20 24 26 26 25 25 25 24 20 17 15 15 15 17 18 13 14 3 11 9 7 6 6 6 8 10 11 10 11 11 11 9 10 11 12 13 13
34 30 34 16 27 24 23 32 29 29 28 26 26 26 25 22 18 16 16 16 19 14 13 12 14 13 7 6 6 7 8 9 11 12 13 13 12 12 11 11 12 13 13
34 27 25 24 27 29 32 29 30 30 31 24 24 26 27 26 23 20 17 16 18 17 15 15 14 12 10 9 9 9 8 10 11 12 12 12 13 13 14 13 13 14 13
37 34 31 28 30 28 27 23 27 30 24 31 26 29 26 27 27 25 22 19 18 18 17 16 15 13 12 11 12 12 12 12 11 12 13 14 14 13 13 14 15 16 16
39 39 39 37 35 34 35 26 35 33 27 22 28 23 27 30 24 27 24 23 22 21 20 20 19 17 15 16 16 15 14 13 13 13 14 14 15 15 15 15 15 15 16
43 43 42 42 40 40 36 32 34 24 27 27 26 28 27 16 27 31 28 26 24 24 23 22 23 23 20 20 21 20 18 15 14 14 13 13 13 14 15 16 16 16 17
46 46 44 44 44 44 43 41 38 33 27 30 24 31 32 31 26 27 28 30 30 29 26 26 26 26 26 25 24 24 22 20 20 18 16 14 14 13 12 13 13 13 14
49 49 49 48 48 47 46 43 40 43 37 32 26 28 33 34 32 32 34 32 34 34 30 29 29 30 29 29 28 27 26 24 24 22 20 20 20 18 17 17 16 16 16
44 48 50 51 50 51 50 46 44 44 43 41 39 37 33 34 23 37 35 35 35 34 34 33 31 31 32 33 32 32 31 30 28 27 26 26 25 24 24 22 20 20 21
47 49 49 50 50 51 51 50 49 49 49 47 44 45 42 39 40 29 28 39 36 36 35 36 36 34 32 35 36 37 36 34 32 32 31 31 29 31 30 26 25 22 24
53 53 53 53 52 52 52 52 51 51 51 53 52 51 48 46 41 40 36 33 41 41 37 37 36 36 38 38 39 41 42 39 38 38 36 35 35 35 34 32 29 24 29
55 55 55 55 55 55 55 55 55 54 53 53 53 52 52 52 49 46 45 44 41 40 35 42 39 34 39 41 45 46 46 45 45 44 43 42 41 40 39 37 34 33 33
52 54 55 57 59 59 58 58 58 57 56 55 55 55 54 54 54 52 50 48 48 46 42 39 37 43 36 44 48 50 49 49 50 49 48 48 47 46 44 42 41 39 38
48 51 53 57 58 60 62 63 63 63 62 61 61 60 58 58 58 57 56 54 52 51 48 45 44 41 38 43 50 52 48 46 48 50 51 50 50 49 48 46 44 43 41
44 46 49 52 55 57 59 63 64 65 66 66 66 67 67 65 63 63 61 60 57 56 54 50 46 45 39 35 43 46 47 45 45 47 49 49 49 49 50 49 47 46 45
44 45 47 49 51 54 57 58 60 61 64 67 69 69 70 71 71 70 68 66 64 61 60 56 53 49 44 48 50 53 54 49 49 49 46 44 48 45 43 45 47 48 47

GFSMW_500_spd_081.txt.gz
Wind_Speed
12 14 10 12 12 12 10 11 9 6 5 4 3 4 5 8 11 10 8 10 8 9 9 9 10 10 11 12 12 13 13 14 15 14 13 15 20 21 15 17 20 19 19
15 14 10 12 14 12 11 11 10 8 7 7 5 4 5 6 8 8 8 9 6 8 8 7 10 9 10 11 10 11 12 12 12 17 13 15 17 18 19 19 18 18 17
15 17 12 12 14 13 12 12 11 10 9 9 6 6 7 7 7 7 7 8 6 7 6 6 6 8 9 10 9 11 9 10 11 14 16 12 13 15 18 20 18 18 15
11 20 14 10 12 15 15 13 12 12 11 11 8 7 10 8 8 5 4 7 5 5 8 7 4 5 7 8 9 8 10 10 10 9 10 11 11 12 17 20 19 16 14
14 12 18 11 13 15 16 15 14 14 13 11 9 7 9 11 8 6 6 4 5 4 6 7 6 6 6 8 7 7 9 11 11 9 8 4 7 8 13 20 20 16 13
15 17 19 16 12 13 13 15 16 16 15 13 10 8 7 9 10 10 7 6 3 1 3 5 5 6 8 8 8 7 8 7 9 10 8 4 3 9 9 14 18 14 14
16 18 21 19 16 15 14 14 16 17 17 15 13 11 9 10 9 8 11 7 3 3 2 5 5 3 6 8 9 8 8 8 9 8 8 7 5 10 12 12 11 10 11
21 17 19 19 16 18 17 16 16 18 20 17 16 13 11 11 12 9 13 8 7 4 2 2 4 2 3 5 7 9 8 8 9 10 9 10 8 10 11 11 8 7 5
17 22 17 22 21 16 16 17 21 21 22 21 19 17 15 14 13 14 12 9 10 4 4 3 2 1 3 4 6 8 8 7 7 7 8 8 6 9 12 13 13 7 5
20 29 21 22 22 20 25 27 26 25 25 25 23 19 17 17 16 15 13 11 11 8 7 6 3 3 3 6 6 5 7 8 7 6 8 6 5 7 13 14 14 13 12
27 23 21 20 30 29 26 25 25 24 24 25 24 22 22 21 18 16 14 13 12 12 12 11 7 6 6 7 6 6 6 7 8 7 9 10 9 8 9 12 15 13 10
27 29 25 27 34 30 27 24 28 31 25 22 23 24 25 23 21 18 15 12 12 14 14 13 14 9 10 7 9 9 8 8 9 10 10 11 11 9 11 12 12 13 14
29 32 28 25 22 26 28 30 29 33 24 22 23 23 25 25 24 22 19 15 13 12 15 16 14 14 14 10 10 8 9 10 11 12 12 13 13 13 12 11 13 15 14
29 31 31 29 24 23 28 15 28 28 24 24 29 25 25 26 27 28 23 18 16 16 16 18 18 17 13 12 13 10 10 11 12 12 14 14 14 14 14 15 15 15 15
30 30 29 29 28 26 29 26 23 23 36 35 32 34 29 30 33 32 29 26 22 20 19 19 20 19 19 18 16 14 14 13 13 13 13 15 16 16 17 17 17 17 17
31 32 31 31 32 33 33 33 32 31 17 25 30 29 39 25 40 28 35 31 26 24 22 20 20 20 20 19 19 18 18 17 15 14 14 14 16 17 18 19 19 18 19
28 32 34 34 35 36 38 38 38 35 28 21 32 27 23 27 32 37 25 28 30 27 27 26 25 23 23 24 23 23 23 21 20 18 17 16 17 17 17 19 19 19 19
30 30 36 39 40 41 42 42 41 40 38 34 37 29 30 29 31 31 27 30 29 30 31 29 28 26 26 27 27 27 26 26 25 24 23 21 21 22 20 20 18 18 17
39 37 35 39 43 43 45 46 44 42 40 39 37 39 31 26 25 20 28 33 31 33 36 35 31 29 29 30 30 31 29 29 28 28 28 27 26 26 25 23 22 22 21
38 40 42 43 44 47 49 50 50 48 46 43 42 38 36 39 37 28 26 25 25 35 34 35 34 34 34 33 33 34 34 32 32 32 31 31 31 32 31 28 28 24 26
49 46 47 45 48 49 48 50 51 48 48 47 47 45 44 42 42 38 34 33 34 24 32 36 36 36 39 39 37 37 37 36 37 37 34 34 36 36 36 35 32 29 33
52 56 57 57 54 51 52 52 51 51 49 48 47 47 47 47 47 44 42 39 36 35 34 31 37 37 38 38 41 42 41 41 40 41 41 40 41 41 40 39 37 36 36
65 64 62 61 60 59 57 56 55 54 53 52 51 49 49 49 49 49 46 44 42 38 39 40 36 34 41 42 42 43 43 45 47 45 45 46 45 45 43 42 42 41 40
62 59 61 61 61 62 59 58 57 54 54 54 54 54 52 51 52 52 52 49 49 46 43 43 42 40 39 40 39 44 47 43 46 51 51 50 50 49 48 46 45 46 47
42 45 48 52 56 59 60 59 58 56 55 54 55 56 57 57 56 56 56 55 54 54 51 49 47 46 42 41 45 46 47 50 44 45 52 55 54 51 51 51 50 50 50
38 40 42 44 46 48 50 52 54 54 55 55 56 56 56 59 60 60 61 62 61 60 58 56 55 52 49 47 48 47 50 50 46 42 42 46 47 47 48 50 52 53 52

GFSMW_500_spd_084.txt.gz
Wind_Speed
7 3 6 8 10 9 10 10 8 7 7 6 5 7 8 7 10 9 7 8 10 12 14 12 14 14 14 14 14 15 14 13 13 14 13 14 18 15 17 20 19 18 18
2 9 6 8 11 9 9 9 8 9 8 7 6 6 8 7 9 9 7 6 6 9 9 11 13 12 12 12 12 12 14 11 12 15 14 17 14 15 17 18 19 18 18
7 8 8 11 10 11 13 11 9 8 10 10 7 6 7 7 9 8 7 5 5 4 7 8 10 12 11 10 12 10 12 12 12 15 15 13 14 14 16 18 17 17 18
14 19 14 11 11 11 13 14 12 11 10 11 7 5 9 9 7 5 7 7 6 4 5 6 8 8 10 9 8 9 10 12 13 11 10 9 8 12 17 18 16 15 14
13 14 14 15 16 13 15 15 14 13 12 11 10 8 11 12 10 8 7 7 6 4 4 5 8 9 10 9 8 8 9 10 12 11 9 6 7 10 17 18 18 16 15
17 22 23 22 14 14 13 16 14 15 15 14 13 11 9 12 13 11 8 6 6 5 5 5 5 6 8 10 8 9 9 9 8 9 9 5 5 5 14 17 14 13 15
18 20 22 20 14 12 17 18 17 19 18 18 16 15 11 11 14 10 11 8 8 6 7 7 6 6 6 9 10 9 9 8 7 7 7 5 5 9 11 13 10 8 7
12 19 22 21 21 18 22 20 21 19 19 20 19 17 15 14 12 11 13 11 6 6 7 8 8 8 6 8 10 11 9 9 8 6 6 5 6 10 12 12 7 5 4
13 16 18 21 20 19 22 24 26 21 20 21 21 21 18 17 16 15 14 11 7 10 7 10 10 10 10 7 9 10 11 11 10 10 8 6 4 10 14 14 10 8 5
16 19 22 19 20 23 22 26 24 21 22 24 25 24 22 19 17 16 15 14 13 13 11 11 10 8 9 10 9 12 12 12 11 10 10 7 6 8 14 16 15 12 10
16 20 22 28 35 28 25 31 24 21 20 22 23 24 24 22 19 18 17 16 16 16 13 16 12 10 8 9 10 10 11 12 12 12 12 10 10 10 11 14 15 14 12
21 22 23 23 26 19 29 32 27 24 24 24 25 24 26 25 23 21 20 18 19 18 19 16 17 11 11 10 11 12 13 14 13 14 14 12 11 11 11 13 14 16 16
25 23 21 21 21 18 18 27 34 33 30 27 28 27 26 27 26 24 23 22 21 22 21 20 18 15 15 13 13 14 13 14 15 15 15 15 14 13 14 14 14 17 18
26 26 25 25 24 23 20 20 27 29 28 29 32 33 29 29 29 28 26 25 25 24 22 22 20 20 20 16 16 17 16 16 18 17 17 17 17 17 16 17 17 17 17
28 26 24 25 24 24 24 20 20 28 28 32 37 28 24 27 30 31 31 28 27 26 25 24 23 23 21 21 22 21 18 18 19 19 19 19 20 19 19 20 20 18 18
29 30 27 25 28 26 29 28 26 33 22 26 35 32 26 26 29 29 32 35 36 32 29 28 26 26 27 27 26 24 23 22 22 20 19 19 21 22 23 23 22 21 21
25 29 30 28 27 30 30 32 30 32 29 27 21 15 36 32 32 31 37 36 34 37 32 33 31 29 29 30 27 26 26 25 24 22 21 21 21 22 23 24 24 23 24
27 29 30 28 26 28 31 31 32 32 30 25 25 32 23 20 32 24 30 39 32 42 38 36 34 31 31 32 33 31 29 28 27 26 25 23 24 24 24 23 22 22 22
36 37 35 35 33 30 31 32 33 35 35 30 30 32 30 31 34 22 29 30 25 33 37 35 35 33 34 34 34 35 33 31 30 31 29 29 28 28 27 25 24 23 22
43 45 39 38 39 38 34 33 34 36 39 38 35 34 34 31 29 34 20 15 27 33 34 37 39 35 36 38 37 36 35 34 34 35 34 34 33 34 33 29 29 25 26
42 41 40 41 41 42 42 41 40 40 40 41 40 39 39 38 35 33 33 38 34 27 25 26 36 37 41 44 41 40 39 38 39 39 37 37 37 36 36 35 32 29 32
48 48 43 43 43 43 44 43 41 41 43 43 43 40 41 41 39 36 36 33 34 32 37 36 34 35 42 44 44 44 44 43 42 42 41 41 42 41 40 40 37 36 36
55 49 43 44 47 48 49 50 50 48 46 45 46 47 45 43 43 42 40 39 38 36 36 37 41 43 39 36 42 43 44 45 46 45 44 45 46 45 46 45 43 43 41
60 60 62 63 64 61 59 60 59 58 56 54 52 51 51 50 48 46 45 44 44 44 41 40 39 40 41 42 41 34 39 43 45 48 49 47 47 47 48 49 49 48 47
48 52 58 63 66 64 61 60 59 59 59 57 56 53 54 54 54 52 50 49 49 48 49 46 45 43 43 44 45 44 43 45 46 44 46 45 42 44 49 52 52 53 53
41 41 44 43 45 51 53 54 54 54 54 53 54 55 55 55 55 56 56 55 54 54 54 55 53 50 49 48 50 50 49 50 53 50 47 45 49 50 47 48 51 56 57

GFSMW_500_spd_087.txt.gz
Wind_Speed
12 10 9 11 11 10 9 9 8 8 12 9 7 10 8 9 12 11 11 10 10 12 12 10 11 12 12 13 13 13 12 11 11 12 15 14 14 15 16 16 17 17 15
12 10 9 9 8 9 9 11 9 8 8 10 8 8 10 9 9 8 10 9 9 10 11 10 9 10 9 10 12 12 12 13 10 11 13 13 13 14 15 15 14 14 14
9 13 8 7 8 10 11 10 10 10 9 9 7 7 8 10 10 8 9 8 9 8 10 11 10 9 10 10 12 11 10 11 10 11 12 9 10 13 14 13 12 11 11
8 15 8 8 9 10 12 10 11 11 12 11 7 6 9 11 10 8 8 8 7 7 7 8 8 7 9 10 9 12 10 10 11 10 8 7 5 10 14 13 12 11 11
10 9 12 12 8 7 11 10 11 12 13 14 11 9 9 12 13 8 9 6 5 7 9 7 9 8 8 8 9 10 11 11 12 12 9 7 5 8 11 13 11 10 10
13 11 16 16 18 15 12 14 13 13 14 14 14 13 11 12 12 10 10 9 6 6 8 9 9 7 8 7 8 10 11 11 11 12 10 9 8 8 12 12 9 7 7
19 15 18 18 19 18 15 16 17 17 16 17 16 15 11 11 12 10 11 9 9 7 8 8 9 9 10 9 8 7 9 9 10 9 7 9 12 11 14 13 9 6 6
15 18 17 19 25 20 19 19 18 20 19 19 20 18 14 13 16 15 13 11 10 8 9 10 11 10 11 11 11 10 8 9 9 9 6 6 13 14 15 14 11 8 6
19 19 17 18 25 21 22 21 21 22 23 23 22 21 18 17 17 16 15 16 12 12 11 11 12 13 11 12 13 13 12 11 11 11 8 6 6 13 18 17 13 11 9
20 15 19 19 22 22 25 24 23 23 21 23 24 23 22 21 19 19 16 17 16 15 16 13 13 12 13 13 14 15 15 14 12 12 12 10 8 10 17 20 18 15 12
20 22 23 21 21 27 23 21 25 19 23 24 26 24 23 23 22 21 20 20 21 20 15 17 16 14 14 15 14 15 17 17 15 15 15 14 13 11 14 18 19 17 14
21 22 21 20 22 25 30 18 26 23 34 26 26 27 27 26 26 24 23 23 24 22 20 21 19 18 16 14 15 15 17 17 17 17 18 16 15 15 14 17 19 18 16
27 22 20 22 23 18 22 32 24 23 33 32 27 27 28 28 28 27 25 24 24 22 23 24 23 21 20 19 18 18 18 18 19 19 20 18 17 18 16 15 17 18 19
27 25 26 23 23 22 22 18 20 20 24 30 27 27 30 30 31 28 27 26 25 24 25 26 26 26 25 23 21 21 21 21 20 21 21 21 21 20 20 18 19 19 19
31 30 27 25 23 23 23 22 20 25 19 25 33 33 32 34 35 32 35 32 30 29 29 27 27 27 28 27 25 23 23 22 21 21 22 23 23 23 23 22 21 20 19
23 30 35 30 25 22 24 25 26 25 24 23 22 32 38 30 39 41 39 38 36 34 35 34 32 32 31 31 28 27 25 24 23 24 23 24 25 26 25 24 23 22 21
31 30 27 28 26 22 22 25 26 28 29 25 25 30 26 42 34 33 33 36 41 41 39 37 36 33 33 33 32 29 27 27 27 26 25 24 26 27 27 27 26 24 24
28 32 33 28 27 27 28 27 27 28 29 29 27 24 27 23 28 38 37 36 38 40 45 42 41 40 37 34 34 33 31 31 30 29 29 28 27 28 27 27 27 27 27
29 27 27 26 27 26 27 28 26 26 27 29 29 26 24 21 29 21 24 34 40 39 42 44 48 47 44 40 39 37 35 35 33 33 33 32 31 32 31 28 27 26 25
39 41 41 40 40 33 32 33 31 31 30 27 27 27 26 26 26 23 22 24 24 25 30 35 38 45 48 43 42 37 37 39 38 37 36 37 36 36 35 31 29 26 26
36 38 38 38 39 41 42 44 42 39 37 38 37 35 34 31 29 29 28 23 17 26 23 29 29 39 40 45 43 43 39 37 39 38 39 39 39 39 40 38 34 32 33
42 44 43 42 41 40 41 42 42 42 40 38 37 35 33 32 33 32 29 28 27 24 31 41 43 35 32 29 49 47 44 42 42 40 41 42 41 40 41 41 39 38 38
45 47 48 48 48 47 48 45 46 46 45 43 39 35 36 37 35 34 36 34 31 31 30 31 32 34 37 43 41 33 38 46 46 46 46 45 44 44 45 45 44 44 43
46 47 49 49 50 50 49 51 52 49 50 47 45 43 41 42 45 44 43 42 40 37 36 35 35 35 36 36 40 42 46 43 37 37 49 49 47 47 47 50 51 49 49
55 53 55 54 54 55 56 57 58 57 55 56 57 59 58 56 52 50 48 46 45 45 44 42 40 41 41 42 42 42 41 41 41 38 36 43 43 46 49 52 52 54 52
49 51 50 52 56 60 63 61 61 63 63 63 63 61 58 55 54 53 53 52 51 49 49 49 48 48 48 48 48 47 45 45 46 46 47 45 46 47 47 50 51 52 52

GFSMW_500_spd_090.txt.gz
Wind_Speed
10 9 11 11 12 11 9 9 9 8 8 9 7 7 8 6 10 8 10 10 9 7 10 9 10 11 11 11 11 10 9 10 12 13 14 15 14 14 13 14 13 12 14
13 12 12 13 12 12 11 9 8 9 9 8 11 6 7 7 8 8 8 10 10 8 7 10 8 8 9 11 10 10 9 9 11 12 13 12 14 14 12 12 12 11 10
18 15 14 12 13 10 10 10 9 10 11 8 7 10 8 7 8 8 8 10 9 9 7 8 9 7 8 10 11 10 10 10 10 14 14 11 13 14 13 11 10 10 8
12 15 13 10 9 12 10 9 11 11 11 11 9 9 11 9 7 8 7 8 10 9 9 8 8 9 7 8 8 9 10 9 10 13 13 11 10 13 13 11 9 8 7
12 13 13 11 9 6 10 13 11 12 12 11 10 10 11 11 9 9 8 7 9 10 11 9 7 8 7 8 8 7 9 9 9 12 12 11 9 11 12 11 9 8 7
14 13 13 10 8 8 6 9 12 13 13 13 13 11 11 14 12 11 9 8 8 10 12 12 11 10 9 8 8 8 8 11 10 10 11 11 10 10 12 11 9 7 5
17 15 12 16 15 15 14 8 12 15 15 14 14 13 12 13 15 13 12 10 9 10 11 12 12 12 12 11 9 10 9 9 10 7 7 12 13 12 14 14 11 8 6
20 20 15 16 17 12 15 12 9 16 17 16 16 16 15 15 17 16 14 12 12 10 11 11 12 12 13 12 12 11 11 10 9 8 5 7 13 14 15 15 12 10 8
20 26 21 17 17 17 19 20 13 13 18 17 17 18 18 17 16 18 15 16 14 12 12 13 12 13 13 13 14 13 12 12 11 10 9 5 10 13 17 17 15 11 9
22 21 23 21 19 20 23 22 18 16 16 19 20 21 21 20 17 17 17 18 19 15 15 13 14 14 13 13 14 14 14 13 13 12 12 11 8 12 16 20 18 15 13
18 23 22 26 24 19 23 27 21 18 16 22 25 24 25 23 22 21 21 20 19 20 14 17 17 16 17 16 15 16 16 15 14 14 14 14 13 12 16 19 20 18 16
22 24 23 21 23 25 25 24 18 25 24 26 32 28 27 26 25 25 23 23 21 20 19 19 20 20 18 18 18 17 17 16 17 17 17 17 16 16 16 19 20 21 20
25 21 20 21 24 28 29 31 30 29 25 23 28 26 27 28 30 30 27 25 24 23 23 22 23 22 21 20 20 20 19 19 18 19 20 18 17 18 17 17 20 21 21
25 26 23 24 25 29 29 27 18 26 27 28 31 24 27 30 32 34 31 28 27 25 25 26 25 24 24 23 22 21 22 21 21 22 22 21 20 20 19 18 18 18 19
28 30 28 28 28 25 24 23 18 22 24 20 14 22 34 33 34 36 35 32 30 28 29 29 29 28 28 29 28 25 24 24 23 23 24 23 22 22 22 22 21 20 21
31 28 30 29 30 27 24 24 26 27 27 17 19 18 24 39 34 36 35 35 35 34 33 31 32 30 31 33 30 28 27 26 26 26 26 25 25 26 25 25 24 23 22
36 29 25 21 24 31 28 25 26 25 26 27 23 26 25 27 18 30 34 41 40 40 41 38 35 33 33 33 34 33 33 30 29 29 28 27 27 27 27 26 26 24 25
37 35 28 30 29 27 29 27 24 24 26 27 26 24 23 22 26 26 23 36 41 45 43 41 42 39 36 34 35 35 35 35 33 33 32 29 30 30 29 27 27 26 26
36 31 30 31 33 32 29 27 26 24 22 23 24 23 20 19 17 18 16 27 35 49 41 45 45 45 44 41 40 39 39 38 38 35 35 33 32 32 30 27 27 27 28
49 47 42 39 31 28 26 25 23 26 26 23 22 20 16 14 14 16 19 22 21 23 32 47 53 48 49 48 47 49 43 44 43 40 38 36 35 35 34 31 30 29 31
36 38 42 43 44 44 41 39 37 36 34 33 29 27 27 29 28 27 25 25 20 20 21 26 24 29 45 47 47 53 51 46 43 47 43 39 37 36 37 37 36 34 35
45 46 46 48 47 46 46 45 42 42 40 39 38 36 36 35 34 30 26 26 24 22 23 24 27 31 32 33 36 25 23 47 49 44 43 42 41 40 39 42 42 40 40
43 45 50 50 50 50 49 48 44 41 41 41 40 38 37 36 36 36 33 29 29 28 26 26 28 29 27 30 39 42 32 29 29 37 47 45 40 42 44 45 46 46 46
46 49 50 47 47 47 49 49 47 46 45 44 44 45 43 42 42 40 40 37 34 33 34 34 32 33 33 32 33 36 39 39 36 40 34 42 50 48 48 51 50 48 49
53 51 47 51 52 50 51 53 52 52 49 48 48 50 47 47 46 46 45 42 43 43 43 40 39 40 39 39 37 37 39 40 39 38 39 37 45 42 39 48 57 55 53
49 49 51 55 56 51 52 53 52 52 51 51 51 52 53 52 51 51 50 54 56 53 49 48 47 46 45 45 45 45 44 45 45 44 43 42 45 47 46 45 41 44 57

GFSMW_500_spd_093.txt.gz
Wind_Speed
17 16 15 14 13 11 11 10 8 9 8 9 10 9 11 9 10 10 11 10 9 10 10 10 9 8 9 10 11 10 11 12 15 15 16 16 15 14 14 14 14 14 13
15 14 15 13 12 12 11 11 11 11 8 6 6 8 9 11 8 8 10 10 10 10 10 10 8 8 7 7 7 8 9 9 12 13 14 14 15 15 14 13 13 12 11
14 14 13 14 13 12 12 11 11 10 9 8 5 6 7 7 6 6 7 9 9 9 10 9 9 8 8 8 8 7 7 9 9 12 12 14 14 15 14 14 13 12 11
14 11 13 16 15 15 13 12 11 11 10 9 9 9 7 8 7 6 7 7 8 8 9 10 9 9 8 7 7 7 7 8 10 11 10 10 14 14 14 13 12 11 10
14 13 15 14 13 15 15 14 12 11 11 10 9 9 9 9 10 7 6 8 8 8 8 9 10 10 10 8 7 8 8 8 9 11 11 10 12 13 13 12 11 8 7
16 15 17 13 13 13 14 13 12 12 12 12 12 9 10 11 10 8 7 7 9 10 11 10 9 9 9 10 10 9 9 9 9 11 12 11 11 13 13 13 11 9 7
21 20 16 16 15 14 13 12 14 14 15 14 14 13 11 13 13 13 10 9 7 9 13 12 12 11 10 9 10 11 10 11 10 9 9 11 12 13 14 14 13 11 9
21 21 21 18 21 24 12 14 12 15 15 15 15 15 14 14 15 15 13 11 12 11 12 13 13 13 12 11 10 10 11 12 12 10 7 8 13 14 16 16 14 12 10
20 22 21 17 20 18 15 13 15 15 15 15 15 16 15 15 15 17 18 16 14 13 13 13 13 13 12 13 13 13 12 13 13 13 11 7 9 14 17 18 16 14 12
25 26 27 25 24 20 21 19 17 16 16 14 16 18 18 16 17 16 20 18 16 14 13 12 13 14 14 12 13 14 14 13 13 13 13 12 10 12 14 19 19 17 14
20 26 30 34 26 24 25 21 24 19 16 18 17 20 19 20 19 20 18 18 18 18 16 15 13 14 15 14 14 15 15 15 15 14 14 14 13 12 14 17 21 19 17
22 25 26 29 28 29 28 23 24 21 19 19 25 22 23 25 24 24 24 21 21 19 18 19 17 17 16 15 15 15 16 16 17 16 16 16 15 15 15 16 18 20 20
29 26 28 34 27 34 29 26 23 30 25 22 25 27 27 25 26 27 28 27 25 22 23 23 21 19 18 19 18 18 17 17 18 17 18 18 17 17 17 16 16 18 19
25 22 25 20 20 19 21 23 29 26 24 28 30 32 32 28 24 30 31 31 29 27 25 27 26 25 23 23 23 21 19 18 19 19 20 19 20 20 19 19 18 18 19
25 22 23 25 25 26 24 25 27 28 34 34 33 24 21 23 26 30 34 34 33 31 29 29 28 27 28 26 25 24 21 21 20 21 22 22 22 22 22 21 21 20 21
27 24 23 28 29 29 27 26 23 28 33 20 28 13 9 14 27 32 37 36 34 33 33 33 33 31 29 29 29 28 26 27 26 24 25 25 25 26 25 25 24 23 23
34 31 28 27 30 31 32 29 26 27 24 24 20 17 14 15 17 26 34 35 37 36 37 38 38 34 30 30 31 31 30 30 29 28 28 27 27 26 27 26 26 26 26
34 32 33 33 34 29 27 25 20 24 25 23 22 17 18 21 20 14 16 25 26 27 38 42 42 37 36 35 33 33 32 33 32 31 32 31 30 29 27 27 27 27 27
39 36 34 35 35 33 30 30 31 22 25 26 21 17 17 19 17 16 17 14 17 21 18 31 41 42 40 41 41 39 36 34 35 35 37 35 35 34 31 30 29 30 30
37 39 40 37 30 30 34 35 35 32 30 28 23 20 16 13 13 14 12 13 12 13 15 17 19 28 36 45 46 43 42 41 40 41 40 43 39 38 37 35 34 34 33
36 37 39 44 44 42 38 32 34 35 32 30 26 23 23 23 22 22 21 21 20 21 21 22 21 20 24 31 46 49 54 47 47 45 45 46 43 50 43 39 37 38 36
41 40 41 38 43 43 43 44 44 40 38 34 37 34 33 33 32 31 30 28 25 25 25 23 21 23 23 24 29 26 26 39 44 48 54 49 47 45 50 47 44 44 41
43 44 44 42 43 43 45 44 46 46 47 49 48 44 39 38 38 38 36 33 32 31 30 29 27 25 24 27 27 27 36 31 30 37 34 31 35 45 48 50 55 50 48
43 42 43 46 44 46 48 51 52 52 47 47 46 46 43 43 41 41 41 38 38 36 36 36 35 32 28 29 30 31 32 31 35 41 42 34 34 32 28 35 49 51 50
47 47 46 45 46 48 50 53 54 53 51 47 48 49 49 48 46 45 46 46 46 45 44 43 43 42 41 37 35 37 38 38 37 37 38 39 40 41 39 37 36 40 51
45 45 43 46 47 50 50 49 52 54 55 54 53 53 55 54 54 52 51 52 49 49 50 51 50 48 48 46 44 43 44 45 45 44 43 42 42 43 45 47 46 46 46

GFSMW_500_spd_096.txt.gz
Wind_Speed
17 16 15 14 12 11 11 10 8 8 10 10 10 9 10 11 12 12 11 11 11 9 8 8 9 10 8 9 10 11 13 13 14 15 14 14 15 15 15 15 15 15 14
15 16 16 16 14 12 12 12 11 8 8 8 9 10 8 9 10 9 9 10 9 8 8 8 7 7 8 9 9 9 10 12 12 12 11 12 14 15 14 15 14 12 12
18 18 18 19 18 15 13 12 11 10 7 9 8 9 10 7 8 9 7 8 9 8 8 7 6 5 5 6 7 8 8 10 12 11 11 11 13 14 14 13 13 12 10
18 18 18 18 18 17 15 14 12 11 10 8 9 9 8 9 8 8 7 6 8 9 9 8 6 5 5 5 6 7 9 9 11 10 10 9 11 11 13 13 12 11 10
16 14 15 15 17 18 17 16 15 13 11 10 8 7 8 7 6 6 5 6 7 7 7 8 10 7 6 6 6 5 6 8 9 11 9 9 11 11 11 12 11 9 7
17 18 17 14 14 16 18 17 16 15 14 13 12 9 8 8 8 6 6 6 6 7 9 9 8 9 9 8 7 6 6 7 8 9 9 8 10 11 12 12 12 10 9
16 17 14 16 14 15 17 17 16 15 14 14 13 12 10 9 11 10 9 7 7 8 8 9 10 9 8 9 10 9 8 8 8 7 8 10 10 12 13 14 12 12 11
20 19 17 15 21 20 20 17 14 12 14 14 14 13 12 11 12 13 11 10 10 9 8 9 10 10 10 10 8 10 11 10 10 8 6 7 11 13 15 16 15 14 13
18 19 22 21 24 23 27 19 19 15 12 14 14 14 15 14 13 14 15 13 10 10 9 9 10 11 11 11 11 10 11 12 11 11 10 8 8 14 15 18 19 16 15
21 22 24 27 29 26 29 25 20 19 15 13 15 16 17 17 16 16 15 16 14 13 12 11 10 11 11 11 12 12 12 12 13 13 13 12 10 11 13 16 20 19 17
27 28 29 30 30 29 26 22 21 21 19 14 15 17 16 18 19 19 17 16 16 15 14 13 12 13 12 11 11 12 12 14 15 14 14 14 14 13 13 15 18 21 20
26 23 26 33 33 34 31 30 22 29 27 16 16 19 14 19 20 22 22 21 19 18 18 17 16 16 13 13 13 13 13 14 15 15 15 15 14 15 15 14 16 18 21
23 23 24 25 27 26 36 32 27 22 17 20 22 18 19 22 23 24 27 26 24 24 22 21 19 18 15 15 15 15 15 15 16 16 15 15 16 15 16 17 15 16 18
25 24 30 28 27 28 29 33 29 25 26 34 24 28 30 27 27 27 29 30 31 28 26 24 23 22 21 21 18 17 19 18 18 18 18 18 18 17 18 19 19 18 18
27 26 28 27 23 22 25 26 21 31 25 20 23 26 25 31 33 33 31 33 34 32 29 27 26 26 25 24 24 22 23 22 22 21 22 21 21 20 19 20 20 20 20
25 23 22 23 20 20 22 22 25 25 21 20 26 26 35 38 28 30 32 32 33 33 33 30 30 30 28 27 27 25 24 24 26 25 22 23 23 21 22 23 23 23 23
31 28 26 22 19 23 27 28 28 29 27 26 23 24 23 18 10 16 23 24 34 33 33 32 33 32 32 31 30 31 27 29 28 29 27 26 25 23 22 23 24 25 26
35 36 35 32 30 29 28 28 28 25 26 28 25 20 20 28 20 13 15 16 12 20 16 26 34 34 35 35 34 34 31 30 31 30 29 29 28 25 27 28 28 28 28
36 37 36 36 36 35 36 33 30 26 25 22 21 19 15 17 15 15 17 17 14 16 21 16 22 30 36 38 39 38 38 35 35 32 32 31 31 31 31 32 33 32 32
36 35 37 38 38 36 37 38 37 34 30 28 27 24 20 19 19 20 22 20 18 15 11 14 13 12 14 24 34 39 42 39 39 38 37 35 33 33 34 35 34 34 36
38 37 36 37 39 40 39 37 35 36 35 35 33 31 26 24 22 18 18 20 18 18 17 18 16 16 17 20 19 21 31 42 46 42 41 39 40 41 42 41 40 39 42
41 41 40 40 40 42 44 44 42 38 36 34 34 35 34 31 28 25 26 25 26 26 24 23 22 21 24 22 24 23 24 26 27 32 38 42 46 45 43 44 49 51 45
41 41 42 40 40 42 46 47 47 46 47 47 44 38 38 36 34 32 33 34 34 33 31 30 29 28 28 28 27 28 28 28 28 30 31 40 44 45 48 45 47 48 47
41 40 38 37 41 41 41 42 47 48 45 44 44 47 47 48 46 43 40 40 40 40 40 38 36 36 35 35 34 33 33 33 31 30 32 37 38 36 40 41 39 38 48
42 42 42 40 40 40 39 40 43 43 44 46 51 53 53 50 51 49 45 44 46 45 45 44 42 39 39 40 41 40 39 37 38 37 37 37 39 42 42 46 46 43 42
40 41 43 41 40 40 42 42 42 45 50 52 55 54 53 56 56 55 51 51 51 51 49 49 49 49 48 48 48 50 48 49 47 45 45 44 45 45 45 45 45 47 46

GFSMW_500_spd_099.txt.gz
Wind_Speed
19 17 16 14 11 9 9 9 8 10 10 9 9 10 10 11 9 9 10 9 8 7 8 8 6 9 10 10 11 11 13 13 13 11 13 13 13 15 15 15 14 14 13
20 19 17 15 13 10 10 9 9 9 9 9 8 9 9 8 7 7 9 8 8 9 8 7 5 4 6 7 8 9 10 12 13 11 11 12 12 13 13 12 12 11 10
21 20 19 17 15 13 12 12 10 9 8 9 9 8 9 8 6 6 7 7 6 6 7 6 5 5 6 5 5 7 9 8 9 9 8 8 12 12 13 12 11 10 9
21 20 19 19 17 16 15 13 12 10 9 9 9 9 9 8 8 7 7 6 6 6 5 5 4 3 5 6 6 6 7 10 8 8 9 11 11 10 13 13 12 11 9
19 11 18 19 19 18 16 15 13 12 12 11 10 11 9 9 8 7 7 6 5 6 7 7 4 3 2 2 3 4 5 6 8 8 7 9 11 12 11 12 12 10 8
25 21 18 16 17 17 18 18 17 14 14 13 11 10 11 11 10 9 7 6 7 7 6 6 6 6 4 3 2 2 3 4 6 8 8 5 5 8 11 11 12 10 10
20 17 17 14 14 16 18 19 19 17 15 14 13 11 10 10 10 7 7 5 5 7 8 8 7 6 6 7 7 6 5 6 5 5 6 6 6 11 12 13 11 11 10
20 18 16 13 16 15 16 17 19 17 16 14 13 12 11 10 9 10 8 7 8 4 4 6 8 9 9 8 7 8 8 8 8 7 5 6 8 9 12 13 14 15 13
11 17 18 20 25 17 18 17 17 15 13 14 14 14 14 13 11 11 11 10 8 15 10 6 7 8 9 10 10 9 7 9 8 10 9 7 7 9 10 12 16 17 22
14 19 18 21 22 21 22 22 16 13 17 14 16 16 15 14 14 13 13 13 13 15 6 10 10 9 10 11 11 11 11 10 10 11 12 11 9 9 11 12 15 19 20
16 18 21 22 23 25 24 24 20 20 20 18 16 16 17 17 17 16 16 15 15 17 17 16 13 11 10 11 11 11 11 12 13 12 12 13 13 12 12 12 14 17 21
22 23 24 23 23 27 25 21 27 23 28 27 21 19 15 16 16 17 19 18 18 16 20 16 15 15 12 10 11 12 12 11 13 14 15 15 15 14 14 13 12 14 16
23 24 25 23 21 23 31 31 32 34 33 21 29 22 16 19 18 18 20 21 21 21 19 20 20 17 17 15 14 13 14 13 14 14 15 16 17 17 15 16 14 14 13
26 22 21 20 21 22 23 22 24 36 33 29 23 20 19 20 23 25 24 25 28 24 25 23 23 23 21 20 18 17 17 16 15 15 15 16 17 17 18 17 17 17 17
32 26 25 23 25 26 27 25 24 24 36 27 23 21 27 30 25 29 26 25 28 30 28 28 26 25 24 21 22 21 21 19 19 19 18 16 18 18 18 18 18 18 19
25 29 28 26 26 20 18 19 18 15 17 32 21 19 15 21 14 21 30 29 30 31 35 27 30 28 24 27 28 26 24 24 24 21 20 19 20 18 19 21 21 20 22
29 26 26 23 22 22 21 20 20 19 19 20 19 19 16 18 15 16 21 26 25 26 28 28 31 32 31 32 31 28 28 27 26 25 24 24 23 25 26 23 23 24 24
34 33 31 28 28 25 24 23 23 22 21 20 16 16 18 18 17 19 16 9 11 17 19 31 37 38 36 36 34 33 32 32 30 27 28 29 27 27 28 28 26 25 25
38 38 39 37 36 35 35 33 31 30 26 23 22 15 13 17 17 19 21 17 18 16 15 13 18 16 25 38 38 38 37 33 34 34 32 29 28 29 31 31 31 31 30
37 39 42 43 44 43 42 39 34 32 32 31 27 25 23 20 20 21 21 21 20 22 22 21 22 19 20 20 26 32 36 36 37 38 40 37 37 36 35 34 33 33 32
34 37 38 39 41 42 44 44 44 42 39 37 37 34 30 27 26 24 25 25 25 26 25 21 19 19 19 22 22 19 17 18 22 27 35 42 45 41 38 37 38 38 37
39 40 40 39 39 38 39 40 43 44 45 43 39 38 39 37 34 32 31 30 27 25 25 24 21 20 21 21 22 24 25 26 24 24 24 26 30 36 41 39 41 41 45
41 41 40 41 43 43 42 42 43 42 44 46 45 42 36 35 33 35 36 34 33 32 31 30 29 28 28 30 29 28 28 27 28 29 29 30 31 32 32 37 42 42 44
40 39 39 40 40 39 42 42 43 44 44 45 45 49 49 45 41 36 39 43 41 35 35 36 36 35 35 35 35 35 35 35 35 35 35 36 36 36 35 36 38 38 36
41 42 43 43 42 42 40 39 42 43 44 44 44 45 45 47 49 49 46 46 49 49 47 43 43 42 40 40 41 41 41 41 42 42 42 42 42 42 42 40 42 42 42
37 39 41 44 45 44 43 43 43 43 43 46 48 47 47 48 48 49 52 54 55 53 52 51 50 49 48 47 46 47 48 47 45 47 48 48 47 47 47 49 50 48 47

GFSMW_500_spd_102.txt.gz
Wind_Speed
19 16 13 13 12 10 9 10 10 9 9 9 9 9 9 9 7 8 8 10 9 10 12 14 14 10 10 10 11 11 9 12 11 10 13 15 13 14 14 13 12 10 9
21 17 14 13 12 12 10 10 10 9 8 8 9 9 9 9 7 6 6 6 7 8 7 8 12 13 12 11 10 8 9 8 10 7 3 10 13 13 13 12 11 9 8
23 20 16 15 14 12 11 10 9 9 9 8 8 6 7 8 8 7 6 7 6 5 4 4 4 11 7 9 13 6 6 7 4 7 8 3 6 11 13 12 11 10 8
22 20 19 17 16 14 12 11 10 9 8 9 9 7 7 7 6 7 8 7 5 3 2 5 5 7 5 10 10 5 5 4 5 3 5 8 8 10 11 11 11 9 8
27 24 20 21 17 15 14 12 11 10 8 8 9 8 7 7 4 4 3 6 4 6 6 1 4 1 2 7 9 4 3 3 3 4 6 10 11 13 10 10 9 9 9
21 25 19 18 17 16 15 13 12 10 10 9 7 8 7 8 9 11 5 5 6 5 6 5 6 8 7 4 7 2 2 0 1 6 6 6 5 9 8 13 13 9 10
26 27 25 16 17 15 16 14 12 11 11 10 10 8 7 9 10 7 7 7 7 8 6 5 3 7 4 2 2 4 4 3 2 5 7 7 2 6 10 8 24 9 11
29 29 23 18 14 14 11 12 14 12 13 13 12 12 10 9 10 8 9 10 2 2 7 8 6 8 7 4 5 7 9 9 8 7 7 9 2 6 11 10 3 15 18
27 27 24 30 24 20 13 10 12 12 15 14 14 14 13 13 12 12 13 12 11 11 10 8 8 10 10 8 7 7 9 10 9 9 5 8 7 4 6 9 12 17 19
18 28 25 25 18 23 17 10 10 12 14 12 13 16 16 14 14 13 13 12 10 9 8 7 6 10 9 8 7 9 10 9 9 5 6 9 9 9 6 9 11 16 19
10 14 23 31 19 20 21 15 13 20 15 14 15 16 19 18 17 17 17 16 13 12 12 10 10 10 7 8 8 9 11 11 10 7 8 11 12 12 10 10 10 13 12
17 13 18 25 18 23 17 18 20 18 20 18 19 19 22 16 16 20 22 19 16 14 14 15 13 10 10 9 10 10 12 12 11 12 12 12 12 15 13 11 11 12 11
24 23 18 14 16 13 19 16 20 24 26 22 20 21 28 17 19 22 21 17 17 15 16 15 12 15 16 14 12 14 14 14 13 13 12 13 14 14 14 15 15 13 12
23 25 19 21 19 17 17 16 17 20 29 31 26 26 21 32 23 26 22 16 16 17 20 23 20 18 18 17 16 18 18 16 15 15 14 15 15 15 14 15 16 16 16
26 28 27 24 19 20 21 20 20 21 23 21 19 18 27 23 26 26 23 20 23 22 24 21 22 24 20 23 23 21 22 20 18 18 18 17 17 16 16 17 17 17 18
27 29 30 31 26 21 18 18 17 19 19 15 14 18 32 27 26 23 26 26 28 24 25 21 23 24 26 26 24 23 24 23 21 22 22 22 20 20 20 19 19 19 19
30 29 29 31 28 26 24 23 20 18 17 14 14 17 20 12 12 12 11 11 15 16 15 19 20 26 26 29 29 28 28 28 28 26 25 26 22 25 24 23 23 22 22
33 30 26 26 24 23 22 21 22 22 20 18 16 13 14 14 13 15 16 15 12 12 17 12 20 22 27 30 31 32 33 33 32 32 30 28 29 28 30 28 27 27 26
33 32 31 30 28 27 28 28 27 26 24 21 19 16 15 15 13 14 18 18 22 24 19 18 16 12 15 22 34 39 38 36 36 33 32 31 33 34 34 33 32 31 31
35 38 37 36 35 34 34 34 34 33 31 29 28 28 26 23 22 18 19 20 21 24 25 24 22 23 21 20 23 22 22 34 39 36 39 39 35 37 40 39 35 34 33
33 34 36 39 41 42 42 43 43 42 41 38 36 33 33 30 29 27 27 23 24 26 27 27 27 25 27 29 28 27 23 22 21 21 28 29 26 32 39 41 43 42 41
34 35 35 35 37 38 40 43 45 45 45 44 42 39 38 37 36 34 32 31 30 29 29 30 31 30 27 25 26 25 27 27 26 26 26 27 29 29 28 27 31 34 39
37 37 39 40 41 41 40 40 41 41 42 42 43 42 41 40 37 36 37 38 37 36 36 36 32 30 30 30 29 28 28 28 29 29 29 29 29 29 31 32 31 33 31
40 40 42 43 44 43 43 43 44 46 45 45 45 46 45 45 43 43 39 39 38 40 39 38 36 35 35 35 37 36 35 37 35 36 36 35 35 36 37 37 35 35 36
36 39 42 43 43 42 43 44 45 45 45 46 47 47 48 46 45 46 49 48 47 43 43 40 45 44 40 40 42 42 42 41 41 40 41 42 42 43 43 44 44 42 43
33 34 37 39 42 45 47 47 47 46 46 46 47 48 50 49 49 49 49 50 46 53 44 51 49 53 53 50 48 48 48 47 46 46 46 46 48 49 50 50 51 52 51

GFSMW_500_spd_105.txt.gz
Wind_Speed
17 14 13 12 11 10 10 9 9 10 11 11 10 10 8 9 9 10 10 10 12 12 16 15 12 12 12 15 17 15 14 14 12 9 7 11 13 15 13 10 9 8 9
21 15 14 13 12 12 10 9 9 8 10 9 11 11 8 8 7 7 7 7 9 12 15 15 11 10 9 7 12 16 13 10 11 9 5 4 8 11 11 11 11 8 6
23 20 18 16 13 13 11 9 9 7 8 9 8 10 8 7 8 7 6 6 6 8 11 12 9 9 9 10 8 9 12 11 6 6 9 6 4 7 11 13 13 10 8
25 22 20 17 16 13 13 11 8 8 7 6 8 6 7 6 5 5 4 4 4 5 6 9 9 10 7 4 6 8 7 8 7 3 4 5 9 8 11 14 14 13 13
28 28 25 21 20 16 15 12 12 9 7 7 6 5 7 4 4 4 5 4 4 6 4 7 8 5 8 6 5 5 7 7 5 3 2 3 5 9 11 11 9 15 15
31 32 28 25 22 19 14 12 11 10 10 8 8 7 5 7 4 3 5 6 6 7 8 9 10 9 9 7 7 7 4 4 2 4 4 4 5 7 9 4 13 15 17
29 28 28 24 22 22 19 16 14 12 11 10 10 9 9 9 6 7 6 4 6 5 6 5 7 8 7 7 6 7 4 2 1 1 5 7 8 9 8 11 13 12 16
31 33 29 23 21 21 20 17 17 15 13 11 11 10 9 9 11 12 10 10 9 10 9 7 6 5 5 6 7 5 4 6 4 4 6 7 6 7 9 8 8 6 10
33 31 27 25 25 18 19 17 16 17 15 13 13 12 11 12 13 13 12 10 6 4 7 5 5 5 5 8 7 4 6 5 5 6 6 10 7 7 8 9 9 7 8
36 32 27 28 25 37 19 17 17 17 15 14 15 13 12 14 16 15 12 12 10 9 9 9 6 6 8 9 9 7 9 8 7 9 10 10 10 11 10 10 7 5 6
29 28 25 24 22 28 22 20 14 15 13 14 13 12 12 16 16 17 14 14 14 11 8 10 10 8 10 12 10 9 8 10 10 11 11 11 9 11 12 13 12 11 9
23 23 25 23 32 30 28 23 16 13 18 15 14 12 15 12 14 17 18 17 16 13 13 15 15 14 13 13 11 11 11 11 9 10 11 11 13 13 11 10 12 14 13
19 16 16 19 24 15 17 16 17 15 14 16 14 10 12 13 15 21 20 19 20 20 17 17 17 17 17 16 13 12 11 11 11 11 12 12 13 14 13 13 12 13 14
26 18 11 12 20 15 16 9 12 14 14 16 14 16 20 23 24 26 25 21 19 17 18 19 21 19 22 21 18 17 15 16 15 15 14 13 14 14 15 16 16 15 13
23 20 16 14 16 21 7 13 12 12 13 15 13 11 16 21 22 16 27 24 23 19 22 20 18 20 25 20 21 22 20 15 20 20 18 15 16 18 18 18 17 17 18
26 24 22 17 16 16 14 15 16 12 10 11 11 11 12 14 15 21 22 28 26 26 30 28 21 19 25 23 28 25 25 24 23 22 19 17 21 22 22 21 20 19 19
25 26 25 23 21 17 20 17 16 14 14 14 12 10 10 9 12 15 25 27 23 23 22 21 24 19 21 28 29 32 27 26 25 25 25 23 25 24 24 23 23 24 24
20 23 25 24 24 24 25 23 24 21 21 19 16 15 13 10 10 12 15 17 14 11 12 14 16 20 24 24 23 26 29 30 30 31 30 29 29 29 29 30 30 30 29
25 26 29 27 23 24 27 24 24 23 23 21 20 17 15 13 12 13 12 13 14 13 16 21 20 21 21 12 13 15 27 32 35 36 36 36 35 33 32 32 32 33 33
27 28 28 30 32 32 34 32 30 30 28 26 25 23 22 21 19 19 20 21 20 19 22 28 25 25 25 22 22 19 19 21 24 30 39 40 36 35 37 36 33 35 38
26 26 28 31 33 36 37 38 38 38 35 34 32 32 31 30 28 28 27 27 24 24 26 29 28 28 30 31 31 31 30 28 26 25 25 27 29 31 31 31 30 33 37
37 35 32 33 34 36 37 40 41 40 41 41 40 39 39 36 36 34 34 32 33 32 32 32 32 31 35 35 34 33 34 33 34 33 31 29 28 27 27 29 30 29 29
38 39 37 36 37 38 39 40 42 41 41 41 41 40 40 38 38 36 37 37 38 38 38 39 38 38 38 37 37 38 37 34 33 31 30 30 30 31 31 30 32 29 29
36 40 41 41 42 43 43 44 44 43 44 44 44 44 44 44 43 42 42 41 41 41 40 40 40 42 43 46 43 41 40 39 37 37 37 36 36 36 36 37 36 37 36
35 39 41 41 42 43 45 46 46 46 47 47 47 49 49 49 49 49 48 46 47 47 46 46 44 42 43 48 47 48 48 47 46 44 44 45 43 43 44 44 42 43 44
31 33 35 37 39 41 44 46 48 49 49 48 48 49 50 51 51 51 52 53 53 52 48 47 49 51 48 48 49 51 51 51 52 52 52 51 50 51 50 51 50 50 51

GFSMW_500_spd_108.txt.gz
Wind_Speed
13 13 10 9 8 7 10 13 12 13 15 16 13 13 11 10 11 10 11 13 13 15 17 16 14 14 16 16 14 13 14 13 11 10 11 11 8 9 11 10 8 4 3
16 15 14 12 11 9 10 11 13 11 12 13 13 13 10 10 9 9 9 9 8 12 12 11 11 13 12 12 14 13 11 11 10 7 9 6 7 9 10 9 9 9 9
17 17 16 15 14 12 10 10 12 11 12 11 10 11 10 9 9 10 8 9 9 8 7 8 8 9 8 9 9 9 11 10 9 9 7 7 4 7 13 14 8 6 9
18 19 18 18 18 15 13 12 11 10 10 11 10 12 10 9 7 9 7 7 8 6 4 5 7 7 8 9 8 8 7 8 8 5 7 8 7 8 13 11 11 10 10
20 24 22 22 20 19 17 14 13 12 10 9 8 11 10 6 7 6 9 6 7 7 7 7 8 6 7 7 8 9 9 8 8 7 7 7 7 7 12 12 12 14 13
24 26 25 25 24 20 18 16 15 13 12 10 9 9 9 8 7 6 7 7 7 9 7 6 5 6 7 6 6 6 7 7 6 7 4 4 5 8 8 7 10 13 15
26 26 24 28 24 24 20 17 17 16 14 12 11 11 8 7 7 6 7 8 8 8 10 11 10 10 9 7 6 4 5 7 7 6 6 5 6 6 8 13 9 10 13
32 28 29 32 29 25 23 21 18 16 16 16 14 13 12 11 9 8 8 7 8 8 11 10 10 10 11 10 9 9 10 8 8 7 5 3 4 4 8 8 9 11 9
33 31 29 30 26 27 25 23 21 20 18 17 16 14 13 12 11 12 11 9 10 7 10 10 11 11 12 9 8 9 11 8 8 10 11 6 5 6 6 7 8 9 10
37 36 30 33 24 24 27 26 22 22 18 19 18 16 15 15 13 12 12 12 10 10 10 11 12 12 13 12 11 11 11 10 10 10 12 10 9 7 8 7 6 7 9
38 33 32 30 28 24 26 22 22 23 23 19 18 15 14 15 14 14 15 14 14 14 12 13 15 13 13 12 12 12 13 12 12 12 10 10 11 11 10 9 8 8 9
34 35 32 28 27 35 32 27 25 20 18 18 16 16 13 15 13 16 16 16 16 15 16 15 16 14 14 14 13 12 14 13 13 13 12 11 12 14 12 12 12 9 9
33 30 31 27 24 24 24 38 25 22 17 20 16 19 13 15 12 12 14 15 20 18 19 19 19 18 19 18 17 16 15 17 15 15 15 13 13 13 13 14 14 14 11
13 24 19 29 28 22 20 29 27 30 20 20 17 11 9 15 14 13 16 17 18 18 20 20 20 21 22 21 21 21 21 21 20 20 18 17 15 15 15 15 15 14 14
16 17 19 21 19 18 21 26 28 26 28 19 13 8 11 14 18 16 19 19 25 20 19 19 21 22 22 27 24 25 29 25 22 17 16 19 19 16 19 17 17 16 16
26 19 15 14 17 16 27 32 20 22 21 17 14 16 16 15 16 17 20 19 25 24 23 25 24 27 25 25 26 28 26 26 26 24 18 24 26 23 23 21 21 19 21
20 23 24 25 16 28 33 27 28 18 18 16 15 15 13 11 12 13 15 18 23 26 26 29 32 33 35 32 30 31 27 33 32 31 30 30 30 26 25 25 25 22 21
25 28 27 31 35 27 20 21 13 16 15 14 15 16 16 12 13 13 14 14 15 21 24 25 24 23 25 27 27 27 29 31 32 34 31 31 30 31 30 29 29 28 29
28 31 33 29 29 26 18 21 20 21 23 22 20 20 19 17 19 18 16 16 18 18 17 17 16 19 17 19 22 26 23 26 27 32 34 34 33 34 34 37 35 33 33
30 32 29 27 26 25 23 22 19 22 26 22 22 25 21 22 23 22 21 20 21 22 22 22 22 25 27 26 25 25 23 24 23 26 33 34 31 35 39 40 39 36 36
32 29 27 28 27 26 26 26 25 28 29 29 27 25 25 28 26 26 27 25 24 26 28 28 28 29 30 31 30 31 32 32 32 32 32 33 34 33 31 33 37 41 41
39 30 25 25 27 28 30 31 32 32 33 34 34 36 37 37 36 35 37 35 34 34 33 35 34 34 34 34 34 35 35 37 36 37 37 38 40 39 35 34 32 33 32
25 25 25 24 29 33 33 35 37 38 40 42 43 42 41 42 40 40 39 37 37 37 38 38 40 41 41 42 40 39 39 38 39 39 39 39 41 38 37 34 33 35 33
25 36 36 37 39 43 42 39 40 41 43 45 44 45 45 44 44 42 42 41 40 40 42 42 43 44 46 46 44 44 45 45 44 43 42 43 42 40 37 35 37 38 37
24 32 39 42 38 39 42 42 43 45 47 48 49 48 48 48 48 48 48 49 47 46 46 46 46 47 49 49 49 48 46 50 51 50 47 46 46 46 46 44 44 44 44
26 27 29 33 37 41 44 44 45 46 48 50 51 52 51 51 51 51 51 50 51 50 50 50 50 50 50 52 53 53 52 49 49 51 51 51 52 53 52 51 52 50 50

GFSMW_500_spd_111.txt.gz
Wind_Speed
12 11 11 11 12 12 10 10 10 12 12 15 15 14 14 15 15 14 13 15 17 17 16 13 14 15 15 15 12 12 11 10 6 4 4 4 2 2 2 3 4 3 6
14 13 13 11 13 12 12 9 9 12 12 13 15 14 13 13 11 11 12 14 14 13 14 13 13 13 14 15 15 13 11 8 8 5 2 1 4 6 4 6 5 7 7
17 15 15 14 12 12 13 10 9 10 11 12 11 13 13 12 12 9 9 10 10 12 9 10 11 11 9 9 11 12 10 9 7 5 5 6 5 6 8 8 6 7 8
23 19 16 16 13 12 13 12 10 10 11 10 11 11 11 11 10 11 11 9 7 7 8 8 8 8 9 7 7 8 8 9 8 6 8 8 10 10 9 8 7 9 11
22 21 19 17 15 14 14 14 12 10 11 10 11 11 10 11 11 9 11 10 8 6 7 7 9 7 6 6 6 7 8 8 9 9 8 8 9 8 8 9 10 10 11
22 26 23 20 18 17 16 14 13 12 10 11 12 11 10 8 9 10 10 9 9 8 8 7 7 7 7 7 6 5 7 8 9 8 8 8 10 9 7 7 8 9 14
24 25 24 23 20 18 18 17 16 14 12 12 11 11 11 10 9 9 9 9 8 9 9 9 7 7 7 8 8 8 8 9 8 9 8 9 9 9 11 9 9 10 13
30 26 27 29 27 22 20 18 18 15 14 13 11 11 11 11 9 9 7 9 8 8 8 8 9 10 10 11 10 9 11 11 9 9 6 9 11 9 8 8 10 11 12
24 30 30 31 29 24 23 22 21 20 19 17 16 15 13 13 11 10 8 10 9 9 12 12 11 11 11 11 10 12 12 10 11 13 11 10 11 8 6 5 5 8 11
33 36 32 28 27 26 27 25 24 22 20 19 19 19 18 16 15 13 11 13 12 15 11 15 14 12 12 10 11 13 13 12 12 14 10 10 12 11 10 8 7 7 9
34 34 33 25 25 29 30 28 27 26 26 24 24 22 22 19 17 16 15 14 13 14 14 14 15 13 15 14 14 15 14 15 14 16 15 12 11 11 12 12 10 10 11
33 35 30 34 30 30 28 29 29 29 28 28 25 24 22 20 20 20 18 17 16 16 16 16 15 13 14 15 14 14 15 16 15 16 17 16 15 13 13 13 11 12 13
32 39 39 41 33 36 32 26 29 26 26 28 25 26 26 26 17 22 20 19 18 18 18 19 19 18 19 17 17 17 16 17 18 20 20 17 16 16 16 15 15 14 12
24 36 40 34 38 35 31 32 37 29 30 29 30 30 32 23 16 24 17 18 17 18 20 20 20 22 21 21 20 20 21 22 21 22 25 22 21 18 18 17 15 15 15
14 21 35 35 32 35 30 29 31 30 38 30 24 22 18 22 26 25 22 20 19 17 22 20 23 24 24 23 22 24 24 24 26 27 26 23 26 20 20 20 20 20 14
15 11 15 25 43 42 33 34 29 33 43 33 28 28 22 21 24 24 24 21 21 22 30 27 26 24 23 25 22 23 25 26 27 29 27 26 24 23 20 21 26 22 20
14 15 17 22 23 23 28 27 35 37 40 39 41 29 29 20 16 22 24 23 24 25 31 30 30 30 28 30 30 32 30 28 29 31 24 32 33 30 29 28 27 26 25
18 17 15 17 12 18 25 32 35 39 42 33 32 31 23 16 16 20 21 20 20 22 25 28 30 31 33 31 32 28 29 30 26 25 31 32 34 37 33 30 29 29 31
24 22 23 18 16 20 22 25 34 38 42 34 28 9 8 13 17 19 19 20 21 22 21 20 21 19 20 21 22 23 22 23 26 27 23 28 30 32 35 35 33 34 35
25 26 25 24 27 26 21 19 18 23 18 29 26 16 17 21 22 22 23 25 24 23 23 23 25 25 26 26 24 25 23 24 26 25 27 27 28 33 35 37 38 39 40
27 30 29 27 26 26 29 25 24 26 21 19 18 21 20 26 25 24 28 24 21 23 27 28 26 28 30 32 32 31 29 32 32 33 37 37 34 33 32 33 37 37 39
33 30 33 32 31 28 25 23 21 23 22 21 18 23 22 24 21 23 27 28 29 31 33 35 35 35 35 34 35 35 36 34 35 38 40 41 41 39 37 35 35 38 40
33 36 41 32 30 25 20 19 21 24 26 28 29 30 34 30 33 36 36 38 39 41 41 43 44 43 42 42 43 43 41 42 43 41 42 41 41 42 40 39 37 37 37
24 20 38 46 32 28 29 27 28 31 33 35 37 39 41 43 43 43 44 43 43 41 42 41 42 44 45 45 46 47 46 46 46 47 46 46 45 45 44 43 42 40 40
4 12 13 27 33 38 37 36 34 36 36 37 40 41 42 43 44 45 45 45 45 46 46 45 45 46 47 48 48 50 50 50 49 48 50 49 47 48 48 49 49 46 45
16 16 17 27 34 39 45 46 45 42 42 43 44 46 48 49 49 50 50 50 50 50 51 52 52 52 51 52 53 53 55 54 54 53 54 53 51 51 50 50 51 50 52

GFSMW_500_spd_114.txt.gz
Wind_Speed
14 13 12 12 13 12 11 12 12 12 15 16 16 15 17 18 18 18 18 17 18 19 18 17 17 17 18 16 14 13 12 8 5 4 2 1 3 4 6 7 7 6 7
16 16 15 14 14 14 13 12 13 11 12 12 14 14 14 14 17 15 16 17 15 16 16 15 15 13 11 12 14 14 9 5 4 4 2 2 4 5 8 8 7 8 8
21 19 18 17 17 15 14 13 11 10 11 10 10 11 13 12 12 13 14 14 13 14 14 13 12 12 11 11 10 11 10 9 6 5 5 4 4 5 6 9 9 9 10
25 22 20 17 18 17 15 14 11 10 11 12 11 8 8 9 11 12 13 14 13 14 11 11 12 10 10 9 10 9 8 8 8 9 7 6 5 7 8 9 9 11 11
24 22 21 20 17 18 16 14 14 11 10 11 11 11 9 10 10 11 13 12 13 12 12 12 11 12 11 9 7 7 7 8 9 9 7 7 5 6 8 10 11 11 14
22 28 25 23 19 17 16 14 13 15 12 8 10 11 12 10 10 10 10 10 11 10 11 11 10 7 8 10 9 8 8 8 7 7 9 11 8 6 7 8 12 11 13
23 27 24 23 22 19 17 15 14 13 14 14 10 12 12 10 10 10 10 10 11 11 10 11 10 10 10 9 9 10 9 8 7 9 10 12 12 8 9 9 12 11 12
26 24 26 26 25 23 20 17 17 15 15 15 15 14 13 12 12 11 11 10 9 10 11 12 12 13 13 13 11 10 9 7 7 8 9 10 14 13 12 9 9 10 10
30 25 30 26 28 24 23 21 19 18 18 15 14 15 16 14 12 11 12 11 11 9 9 10 11 10 11 12 11 11 12 12 11 11 11 12 14 14 13 10 9 10 10
31 27 33 29 28 27 27 24 22 21 20 18 18 16 16 15 14 14 14 13 13 12 10 8 11 12 11 10 11 11 11 10 9 9 10 9 13 14 13 13 13 12 14
35 26 30 33 30 29 32 28 26 24 23 22 21 21 20 19 18 18 17 16 15 13 11 11 10 12 12 11 14 13 12 11 11 11 10 10 12 14 14 16 15 15 16
34 33 39 29 35 33 36 31 29 29 27 25 23 24 22 22 22 21 22 18 17 16 15 15 13 13 14 15 14 12 13 12 12 13 14 12 13 14 15 16 17 18 17
34 27 39 33 41 35 35 32 31 32 30 27 25 26 26 26 28 27 27 23 20 20 18 17 17 18 17 16 17 16 16 15 13 12 13 14 15 17 18 16 17 18 18
21 30 34 44 32 25 31 31 30 27 29 29 27 29 29 31 31 27 26 27 23 22 20 19 19 20 20 20 21 22 22 20 19 17 18 18 19 22 20 19 20 18 17
1 18 27 43 39 42 37 32 30 26 28 30 27 29 32 34 33 32 23 24 24 23 20 19 20 20 22 22 23 22 21 22 23 22 21 22 24 24 20 19 19 22 20
4 4 27 40 40 40 31 28 34 35 33 35 32 33 35 33 30 31 30 27 25 25 24 22 23 22 23 19 21 22 22 24 23 23 24 23 23 23 25 23 21 21 20
9 6 9 9 17 22 35 39 41 36 39 32 38 40 40 29 27 22 31 33 30 31 28 27 28 29 32 29 26 28 26 28 27 27 26 25 24 29 27 29 35 30 27
15 11 11 8 12 6 21 26 43 39 37 39 34 37 39 34 32 33 39 36 29 29 29 29 31 32 34 32 32 31 30 33 30 26 25 28 24 29 24 28 31 35 32
17 16 17 11 10 13 16 19 25 40 42 34 34 40 41 41 39 32 29 24 26 29 31 32 35 30 33 29 26 25 23 19 29 28 31 32 30 25 28 31 28 33 34
23 22 21 20 21 22 20 21 21 21 32 34 41 37 40 30 31 28 29 25 28 27 24 24 24 25 25 25 23 23 24 24 26 26 24 25 24 28 30 29 29 29 31
26 24 23 23 24 25 26 25 23 14 15 24 24 34 40 37 24 30 26 25 29 32 33 30 27 27 25 26 26 27 28 30 31 30 29 30 31 34 35 37 38 35 35
25 25 25 25 22 26 27 26 27 27 33 32 27 19 32 25 28 33 31 33 25 21 22 25 25 25 29 31 33 35 35 36 36 35 35 35 35 35 36 38 41 41 39
29 28 30 28 30 25 29 26 24 24 24 23 30 23 18 29 18 18 22 24 24 27 28 30 31 35 36 39 41 43 44 44 44 44 44 44 45 43 42 42 42 41 41
24 34 28 26 24 30 33 34 32 29 22 24 27 30 32 33 30 27 29 31 31 36 39 39 41 42 43 43 43 44 45 46 47 47 48 48 48 51 49 47 47 48 47
27 17 21 14 15 25 31 37 38 33 33 34 34 34 35 37 36 38 39 41 43 44 44 44 44 46 47 46 46 46 46 47 48 49 51 51 52 48 47 47 49 49 48
18 16 15 14 19 25 30 36 42 39 43 41 41 41 39 40 41 41 43 44 46 47 47 48 48 50 51 52 53 53 52 52 53 53 54 56 55 56 55 56 56 55 53

GFSMW_500_spd_117.txt.gz
Wind_Speed
14 11 13 11 11 16 17 15 15 15 15 19 18 19 21 20 19 20 20 19 22 22 15 17 18 18 17 16 15 14 10 7 5 3 3 5 4 5 5 6 6 7 9
16 14 12 14 11 14 18 17 16 13 14 15 17 18 18 18 17 18 19 18 21 19 18 19 18 16 16 15 15 15 10 6 5 3 3 1 3 1 4 5 7 9 11
21 18 16 16 16 14 17 18 16 14 13 14 14 15 15 16 16 17 15 16 17 19 18 17 16 15 13 12 14 13 11 9 6 4 3 3 4 4 5 6 8 10 13
23 24 21 19 19 17 16 18 18 15 13 14 14 14 14 13 14 14 15 14 14 14 16 17 15 13 13 12 11 11 9 7 6 5 5 6 7 6 7 9 11 13 14
26 24 24 22 20 19 17 16 16 18 15 13 14 13 13 12 13 13 12 12 11 12 12 11 12 13 13 12 11 10 8 7 7 7 5 7 9 10 9 8 11 14 16
30 29 30 27 23 20 19 18 17 16 16 13 12 12 12 13 12 12 12 12 12 10 9 10 10 9 9 9 10 10 10 9 8 8 7 8 8 9 10 11 12 14 15
32 30 27 26 26 24 21 19 18 17 16 15 13 12 12 11 12 13 13 12 13 12 14 13 12 11 11 11 10 9 8 9 9 9 10 10 9 9 9 10 13 15 15
32 27 27 28 28 26 23 23 21 19 18 17 16 15 14 13 11 11 12 12 14 14 14 13 12 11 11 12 12 10 9 9 9 9 10 10 10 9 8 8 10 11 13
28 25 30 30 29 28 27 25 24 21 19 17 16 17 16 15 12 10 11 13 12 12 12 12 13 13 13 13 13 13 13 12 12 13 14 13 12 11 10 10 10 10 11
33 28 29 26 27 28 30 28 25 24 22 19 18 19 18 16 14 14 13 13 13 13 13 13 13 12 12 13 14 15 14 14 12 13 13 12 10 11 13 12 13 12 13
37 32 29 22 28 29 31 31 29 26 24 22 21 20 20 19 17 17 16 16 16 15 15 15 16 16 15 13 14 14 14 14 13 14 14 13 12 13 13 12 13 12 13
41 38 35 28 29 29 32 33 31 29 27 25 23 22 20 20 20 20 20 19 17 16 16 16 16 15 16 16 15 16 15 14 14 14 14 13 14 15 14 15 16 15 15
45 45 37 34 32 35 32 35 34 33 32 29 27 25 23 23 23 23 22 22 22 20 20 20 19 19 18 18 15 15 16 14 13 15 15 14 15 15 15 16 17 17 16
15 38 47 35 38 38 35 34 36 36 35 30 29 28 27 28 26 25 24 25 26 26 25 24 23 23 22 21 20 18 19 18 17 16 16 17 19 19 19 18 19 23 22
4 18 31 36 43 36 29 32 35 36 34 31 30 30 29 26 25 28 25 27 31 30 32 29 27 26 25 24 21 20 21 21 20 19 18 20 20 22 23 19 21 20 20
16 5 25 33 31 39 32 31 31 29 30 31 29 32 31 25 24 29 30 31 37 35 34 32 29 25 24 24 23 22 23 26 25 24 21 19 18 22 23 20 20 23 23
7 6 8 22 25 32 35 26 40 34 35 34 30 27 30 33 35 32 33 32 33 31 33 33 32 30 29 25 24 26 25 24 26 26 27 25 26 24 24 25 28 27 28
11 11 8 7 9 33 39 27 40 37 34 35 30 33 35 28 29 37 36 33 28 36 39 33 37 36 27 36 32 34 30 31 31 31 31 31 31 32 27 29 29 27 26
13 14 12 12 2 6 10 25 31 34 31 37 38 39 31 37 37 34 37 36 34 34 42 44 43 35 35 32 33 41 34 35 25 23 24 31 29 32 32 33 33 30 27
17 17 12 10 11 13 17 17 18 26 26 26 29 38 33 35 38 42 41 41 39 33 36 32 30 34 35 36 35 25 19 17 20 25 23 24 28 26 27 27 28 29 30
21 20 20 19 16 19 24 20 19 21 18 18 24 31 40 28 33 31 33 30 36 32 30 27 21 29 27 23 19 21 22 22 23 25 27 28 29 31 31 34 33 36 37
26 23 21 24 25 20 17 19 22 26 26 24 22 14 23 31 34 33 31 38 32 30 28 26 23 24 26 23 22 24 27 29 30 31 33 35 36 37 38 38 38 39 39
15 15 17 22 25 27 23 20 21 24 27 29 28 29 30 19 25 36 27 23 28 27 27 25 27 23 21 31 27 30 33 37 40 41 43 45 45 46 47 46 47 47 48
15 18 16 21 21 24 30 25 26 25 27 27 29 30 27 27 22 22 21 21 21 22 24 24 25 27 27 31 34 38 40 42 45 46 46 47 48 48 48 48 48 50 49
15 15 12 11 9 9 18 21 26 28 30 31 31 29 30 29 28 25 27 33 28 28 34 31 35 38 41 41 41 44 44 43 45 47 47 48 49 50 51 50 52 52 52
18 14 13 12 16 17 20 20 24 30 32 33 34 34 34 34 36 38 38 38 38 38 41 40 42 44 45 47 48 50 50 49 51 50 51 53 55 53 54 55 55 54 56

GFSMW_500_spd_120.txt.gz
Wind_Speed
15 13 12 11 12 13 14 13 14 14 16 19 18 18 20 20 21 20 19 22 24 23 20 19 19 19 18 16 14 15 13 10 8 7 8 7 5 3 3 3 5 7 10
16 16 14 13 13 14 15 15 14 15 14 18 18 19 21 21 20 21 20 21 22 17 19 19 18 17 15 15 15 15 13 10 8 5 5 3 2 0 2 4 6 10 11
19 18 17 15 14 15 16 16 14 15 15 16 17 17 19 22 21 21 20 21 19 19 18 18 18 17 15 13 13 13 12 8 7 6 3 2 4 4 5 7 9 12 14
21 21 19 17 16 16 18 18 17 14 14 15 16 17 18 20 21 19 19 18 18 17 18 18 16 14 14 13 12 10 8 7 5 3 2 4 4 6 7 9 9 11 12
25 23 20 20 18 17 18 19 18 17 15 14 13 14 15 15 17 18 19 18 17 16 14 14 14 14 13 13 13 11 10 8 5 4 4 4 4 6 8 10 11 13 14
29 26 24 23 20 18 18 19 20 18 18 17 15 14 14 14 14 14 15 16 16 15 14 14 13 13 13 12 12 12 10 8 6 6 7 7 7 9 10 12 13 15 14
30 28 27 23 23 21 20 20 20 21 21 19 17 15 15 15 14 13 12 13 13 13 14 13 13 13 12 12 11 10 9 9 9 9 9 9 9 9 10 11 13 14 14
32 29 27 28 29 26 24 23 22 21 20 18 18 16 16 16 15 15 13 13 13 12 13 13 12 12 12 12 12 12 11 10 10 10 10 11 10 10 9 9 11 11 12
35 30 31 31 32 29 27 26 24 22 21 20 19 17 16 16 14 14 14 13 13 14 15 15 14 14 14 14 14 14 13 13 14 13 13 13 13 12 12 11 12 12 13
38 31 32 32 34 34 32 29 26 24 22 20 19 18 18 16 14 14 13 14 15 14 15 15 16 17 17 18 18 18 17 16 16 17 15 14 13 13 13 14 14 14 14
46 38 35 33 38 38 35 32 29 26 24 23 22 21 21 19 17 16 15 15 15 14 14 15 15 16 18 17 16 15 15 15 15 14 14 15 15 16 15 16 16 16 16
47 40 36 35 38 38 36 34 33 30 28 27 25 24 22 21 20 20 19 18 17 18 19 20 19 19 20 19 20 18 16 16 16 16 16 15 15 16 16 17 17 17 17
34 40 43 38 41 38 38 36 34 33 32 29 28 26 25 24 22 20 21 21 22 21 20 21 21 19 20 19 20 20 19 21 19 18 17 16 17 16 16 16 17 18 17
38 41 46 51 43 38 39 36 35 36 34 32 30 29 27 26 24 23 23 23 23 23 23 24 23 24 23 23 23 23 22 23 23 21 21 19 20 21 20 21 20 19 18
33 53 50 57 47 42 40 43 37 35 34 34 33 32 32 28 27 26 25 25 25 26 26 27 29 29 28 26 27 24 24 25 26 25 24 24 24 23 21 21 21 19 18
3 11 41 52 47 48 43 40 39 37 35 33 33 34 34 32 30 28 24 25 24 24 24 32 34 34 34 32 29 27 27 26 26 25 25 27 26 23 23 21 23 23 21
4 3 4 29 48 50 46 45 48 37 35 33 35 33 32 30 31 31 25 25 28 30 33 36 34 38 38 36 32 29 30 28 28 26 24 27 27 29 29 29 28 27 26
8 10 10 7 34 53 43 44 44 37 33 32 33 39 34 32 33 32 32 34 34 34 27 30 28 37 36 38 37 35 33 32 31 32 34 33 32 34 33 34 33 31 29
14 13 16 13 18 36 36 37 42 40 35 38 39 40 40 42 37 40 33 33 28 29 36 37 32 34 41 41 43 41 42 43 39 39 37 37 35 34 37 37 33 30 30
17 14 12 12 15 5 11 20 25 32 40 32 34 32 41 35 41 25 31 32 27 35 33 36 40 42 43 45 42 46 47 39 49 50 39 33 34 26 30 30 31 30 30
15 15 15 11 5 8 10 13 14 19 18 14 28 25 31 30 24 35 38 41 37 37 42 39 39 38 33 33 41 51 43 41 33 32 26 23 24 25 27 27 27 30 31
19 19 18 16 17 14 16 17 18 14 15 15 15 18 17 23 31 33 38 32 29 30 31 40 42 40 32 27 27 27 30 29 24 23 24 26 28 30 31 32 34 37 39
19 17 22 25 14 17 21 20 16 16 18 18 20 21 27 25 27 24 27 31 36 30 30 40 32 30 30 27 26 24 22 23 23 23 30 32 34 36 39 41 42 44 46
12 12 12 15 16 20 23 23 22 23 19 18 21 22 20 24 24 25 24 25 32 30 18 21 26 28 28 28 22 18 20 26 30 33 36 37 39 42 44 45 46 46 47
11 15 13 16 11 7 11 19 21 25 26 27 26 28 29 28 29 26 24 25 32 28 24 21 22 23 27 30 32 33 33 34 36 40 43 45 47 47 49 49 50 51 51
13 16 10 9 14 15 13 12 15 20 20 23 24 27 29 30 29 30 29 29 30 34 35 34 35 42 44 40 40 43 44 44 45 48 50 53 54 54 54 55 55 57 57